<?xml version="1.0" encoding="UTF-8" standalone="no" ?>
<gpx xmlns="http://www.topografix.com/GPX/1/1" xmlns:xsi="http://www.w3.org/2001/XMLSchema-instance" xsi:schemaLocation="http://www.topografix.com/GPX/1/1 http://www.topografix.com/GPX/1/1/gpx.xsd" version="1.1" creator="VisuGPX - https://www.visugpx.com">
  <metadata>
    <name>Environs de Saint Marcel et Neulise.</name>
    <desc><![CDATA[Une balade agréable avec de magnifiques vues. Très peu de passages goudronnés.]]></desc>
  </metadata>
  <trk>
    <name><![CDATA[20181203185106-kj7bB]]></name>
    <trkseg>
      <trkpt lat="45.86885" lon="4.19146">
        <ele>529.14</ele>
        <time>2018-12-03T12:36:51Z</time>
      </trkpt>
      <trkpt lat="45.86885" lon="4.19146">
        <ele>535.925</ele>
        <time>2018-12-03T12:36:57Z</time>
      </trkpt>
      <trkpt lat="45.86888" lon="4.19136">
        <ele>543.628</ele>
        <time>2018-12-03T12:37:03Z</time>
      </trkpt>
      <trkpt lat="45.86892" lon="4.1913">
        <ele>543.294</ele>
        <time>2018-12-03T12:37:09Z</time>
      </trkpt>
      <trkpt lat="45.86895" lon="4.1912">
        <ele>541.953</ele>
        <time>2018-12-03T12:37:14Z</time>
      </trkpt>
      <trkpt lat="45.86895" lon="4.1912">
        <ele>541.291</ele>
        <time>2018-12-03T12:37:19Z</time>
      </trkpt>
      <trkpt lat="45.86901" lon="4.19111">
        <ele>541.939</ele>
        <time>2018-12-03T12:37:25Z</time>
      </trkpt>
      <trkpt lat="45.86907" lon="4.19108">
        <ele>542.828</ele>
        <time>2018-12-03T12:37:31Z</time>
      </trkpt>
      <trkpt lat="45.86913" lon="4.19103">
        <ele>543.961</ele>
        <time>2018-12-03T12:37:36Z</time>
      </trkpt>
      <trkpt lat="45.86917" lon="4.19102">
        <ele>544.819</ele>
        <time>2018-12-03T12:37:42Z</time>
      </trkpt>
      <trkpt lat="45.86922" lon="4.19103">
        <ele>545.062</ele>
        <time>2018-12-03T12:37:48Z</time>
      </trkpt>
      <trkpt lat="45.86922" lon="4.19105">
        <ele>545.038</ele>
        <time>2018-12-03T12:37:53Z</time>
      </trkpt>
      <trkpt lat="45.86923" lon="4.19108">
        <ele>543.504</ele>
        <time>2018-12-03T12:37:59Z</time>
      </trkpt>
      <trkpt lat="45.86924" lon="4.19107">
        <ele>542.908</ele>
        <time>2018-12-03T12:38:04Z</time>
      </trkpt>
      <trkpt lat="45.86924" lon="4.19106">
        <ele>542.788</ele>
        <time>2018-12-03T12:38:10Z</time>
      </trkpt>
      <trkpt lat="45.86923" lon="4.19105">
        <ele>542.235</ele>
        <time>2018-12-03T12:38:15Z</time>
      </trkpt>
      <trkpt lat="45.86922" lon="4.19105">
        <ele>541.473</ele>
        <time>2018-12-03T12:38:21Z</time>
      </trkpt>
      <trkpt lat="45.86923" lon="4.19103">
        <ele>540.84</ele>
        <time>2018-12-03T12:38:26Z</time>
      </trkpt>
      <trkpt lat="45.86923" lon="4.19106">
        <ele>539.783</ele>
        <time>2018-12-03T12:38:32Z</time>
      </trkpt>
      <trkpt lat="45.86923" lon="4.19109">
        <ele>539.111</ele>
        <time>2018-12-03T12:38:37Z</time>
      </trkpt>
      <trkpt lat="45.86921" lon="4.19121">
        <ele>536.368</ele>
        <time>2018-12-03T12:38:50Z</time>
      </trkpt>
      <trkpt lat="45.86921" lon="4.19133">
        <ele>530.86</ele>
        <time>2018-12-03T12:39:01Z</time>
      </trkpt>
      <trkpt lat="45.86917" lon="4.19135">
        <ele>528.593</ele>
        <time>2018-12-03T12:39:06Z</time>
      </trkpt>
      <trkpt lat="45.86915" lon="4.19127">
        <ele>526.588</ele>
        <time>2018-12-03T12:39:12Z</time>
      </trkpt>
      <trkpt lat="45.86921" lon="4.19122">
        <ele>524.496</ele>
        <time>2018-12-03T12:39:17Z</time>
      </trkpt>
      <trkpt lat="45.86925" lon="4.19121">
        <ele>522.597</ele>
        <time>2018-12-03T12:39:22Z</time>
      </trkpt>
      <trkpt lat="45.86934" lon="4.1912">
        <ele>521.008</ele>
        <time>2018-12-03T12:39:28Z</time>
      </trkpt>
      <trkpt lat="45.86942" lon="4.19117">
        <ele>520.616</ele>
        <time>2018-12-03T12:39:34Z</time>
      </trkpt>
      <trkpt lat="45.86948" lon="4.19115">
        <ele>520.779</ele>
        <time>2018-12-03T12:39:40Z</time>
      </trkpt>
      <trkpt lat="45.86951" lon="4.19114">
        <ele>521.206</ele>
        <time>2018-12-03T12:39:45Z</time>
      </trkpt>
      <trkpt lat="45.86955" lon="4.19113">
        <ele>521.904</ele>
        <time>2018-12-03T12:39:50Z</time>
      </trkpt>
      <trkpt lat="45.86961" lon="4.19111">
        <ele>522.527</ele>
        <time>2018-12-03T12:39:55Z</time>
      </trkpt>
      <trkpt lat="45.86966" lon="4.19109">
        <ele>523.464</ele>
        <time>2018-12-03T12:40:00Z</time>
      </trkpt>
      <trkpt lat="45.86968" lon="4.1911">
        <ele>524.603</ele>
        <time>2018-12-03T12:40:06Z</time>
      </trkpt>
      <trkpt lat="45.86972" lon="4.19108">
        <ele>526.013</ele>
        <time>2018-12-03T12:40:12Z</time>
      </trkpt>
      <trkpt lat="45.86977" lon="4.19106">
        <ele>526.899</ele>
        <time>2018-12-03T12:40:17Z</time>
      </trkpt>
      <trkpt lat="45.86983" lon="4.19106">
        <ele>528.011</ele>
        <time>2018-12-03T12:40:23Z</time>
      </trkpt>
      <trkpt lat="45.8699" lon="4.19106">
        <ele>528.068</ele>
        <time>2018-12-03T12:40:29Z</time>
      </trkpt>
      <trkpt lat="45.86996" lon="4.19104">
        <ele>528.399</ele>
        <time>2018-12-03T12:40:35Z</time>
      </trkpt>
      <trkpt lat="45.87002" lon="4.19104">
        <ele>528.212</ele>
        <time>2018-12-03T12:40:41Z</time>
      </trkpt>
      <trkpt lat="45.87008" lon="4.19105">
        <ele>527.921</ele>
        <time>2018-12-03T12:40:46Z</time>
      </trkpt>
      <trkpt lat="45.87013" lon="4.19103">
        <ele>528.329</ele>
        <time>2018-12-03T12:40:52Z</time>
      </trkpt>
      <trkpt lat="45.87021" lon="4.19103">
        <ele>529.119</ele>
        <time>2018-12-03T12:40:57Z</time>
      </trkpt>
      <trkpt lat="45.87024" lon="4.19102">
        <ele>529.668</ele>
        <time>2018-12-03T12:41:02Z</time>
      </trkpt>
      <trkpt lat="45.87033" lon="4.191">
        <ele>529.882</ele>
        <time>2018-12-03T12:41:07Z</time>
      </trkpt>
      <trkpt lat="45.87038" lon="4.19098">
        <ele>530.297</ele>
        <time>2018-12-03T12:41:13Z</time>
      </trkpt>
      <trkpt lat="45.87046" lon="4.19096">
        <ele>530.732</ele>
        <time>2018-12-03T12:41:19Z</time>
      </trkpt>
      <trkpt lat="45.87052" lon="4.19093">
        <ele>531.207</ele>
        <time>2018-12-03T12:41:25Z</time>
      </trkpt>
      <trkpt lat="45.87057" lon="4.19091">
        <ele>531.76</ele>
        <time>2018-12-03T12:41:31Z</time>
      </trkpt>
      <trkpt lat="45.87065" lon="4.19089">
        <ele>532.145</ele>
        <time>2018-12-03T12:41:37Z</time>
      </trkpt>
      <trkpt lat="45.87069" lon="4.19087">
        <ele>532.663</ele>
        <time>2018-12-03T12:41:43Z</time>
      </trkpt>
      <trkpt lat="45.87076" lon="4.19085">
        <ele>532.863</ele>
        <time>2018-12-03T12:41:49Z</time>
      </trkpt>
      <trkpt lat="45.87081" lon="4.19083">
        <ele>533.175</ele>
        <time>2018-12-03T12:41:54Z</time>
      </trkpt>
      <trkpt lat="45.87087" lon="4.19081">
        <ele>533.796</ele>
        <time>2018-12-03T12:41:59Z</time>
      </trkpt>
      <trkpt lat="45.87095" lon="4.19078">
        <ele>533.869</ele>
        <time>2018-12-03T12:42:05Z</time>
      </trkpt>
      <trkpt lat="45.87101" lon="4.19079">
        <ele>533.775</ele>
        <time>2018-12-03T12:42:10Z</time>
      </trkpt>
      <trkpt lat="45.87107" lon="4.19077">
        <ele>533.973</ele>
        <time>2018-12-03T12:42:15Z</time>
      </trkpt>
      <trkpt lat="45.87112" lon="4.19075">
        <ele>534.325</ele>
        <time>2018-12-03T12:42:21Z</time>
      </trkpt>
      <trkpt lat="45.87117" lon="4.19073">
        <ele>534.177</ele>
        <time>2018-12-03T12:42:26Z</time>
      </trkpt>
      <trkpt lat="45.87123" lon="4.1907">
        <ele>533.933</ele>
        <time>2018-12-03T12:42:31Z</time>
      </trkpt>
      <trkpt lat="45.87127" lon="4.19067">
        <ele>533.231</ele>
        <time>2018-12-03T12:42:37Z</time>
      </trkpt>
      <trkpt lat="45.87131" lon="4.19062">
        <ele>532.209</ele>
        <time>2018-12-03T12:42:42Z</time>
      </trkpt>
      <trkpt lat="45.8714" lon="4.19057">
        <ele>531.025</ele>
        <time>2018-12-03T12:42:48Z</time>
      </trkpt>
      <trkpt lat="45.87144" lon="4.19052">
        <ele>530.123</ele>
        <time>2018-12-03T12:42:53Z</time>
      </trkpt>
      <trkpt lat="45.87149" lon="4.19047">
        <ele>529.132</ele>
        <time>2018-12-03T12:42:58Z</time>
      </trkpt>
      <trkpt lat="45.87154" lon="4.1904">
        <ele>528.334</ele>
        <time>2018-12-03T12:43:04Z</time>
      </trkpt>
      <trkpt lat="45.87158" lon="4.19033">
        <ele>528.332</ele>
        <time>2018-12-03T12:43:10Z</time>
      </trkpt>
      <trkpt lat="45.87161" lon="4.19027">
        <ele>528.133</ele>
        <time>2018-12-03T12:43:15Z</time>
      </trkpt>
      <trkpt lat="45.87166" lon="4.1902">
        <ele>527.627</ele>
        <time>2018-12-03T12:43:21Z</time>
      </trkpt>
      <trkpt lat="45.87169" lon="4.1901">
        <ele>527.129</ele>
        <time>2018-12-03T12:43:27Z</time>
      </trkpt>
      <trkpt lat="45.87171" lon="4.19002">
        <ele>526.898</ele>
        <time>2018-12-03T12:43:33Z</time>
      </trkpt>
      <trkpt lat="45.87174" lon="4.18996">
        <ele>526.505</ele>
        <time>2018-12-03T12:43:39Z</time>
      </trkpt>
      <trkpt lat="45.87176" lon="4.18987">
        <ele>525.707</ele>
        <time>2018-12-03T12:43:45Z</time>
      </trkpt>
      <trkpt lat="45.87175" lon="4.18979">
        <ele>524.423</ele>
        <time>2018-12-03T12:43:51Z</time>
      </trkpt>
      <trkpt lat="45.87175" lon="4.18972">
        <ele>523.88</ele>
        <time>2018-12-03T12:43:56Z</time>
      </trkpt>
      <trkpt lat="45.87177" lon="4.18962">
        <ele>523.517</ele>
        <time>2018-12-03T12:44:02Z</time>
      </trkpt>
      <trkpt lat="45.87176" lon="4.18955">
        <ele>522.844</ele>
        <time>2018-12-03T12:44:07Z</time>
      </trkpt>
      <trkpt lat="45.87177" lon="4.18946">
        <ele>522.19</ele>
        <time>2018-12-03T12:44:13Z</time>
      </trkpt>
      <trkpt lat="45.87176" lon="4.18937">
        <ele>521.712</ele>
        <time>2018-12-03T12:44:19Z</time>
      </trkpt>
      <trkpt lat="45.87175" lon="4.18929">
        <ele>521.462</ele>
        <time>2018-12-03T12:44:24Z</time>
      </trkpt>
      <trkpt lat="45.87176" lon="4.18915">
        <ele>521.086</ele>
        <time>2018-12-03T12:44:30Z</time>
      </trkpt>
      <trkpt lat="45.87176" lon="4.18907">
        <ele>520.57</ele>
        <time>2018-12-03T12:44:35Z</time>
      </trkpt>
      <trkpt lat="45.87176" lon="4.18896">
        <ele>520.117</ele>
        <time>2018-12-03T12:44:41Z</time>
      </trkpt>
      <trkpt lat="45.87174" lon="4.1889">
        <ele>519.455</ele>
        <time>2018-12-03T12:44:47Z</time>
      </trkpt>
      <trkpt lat="45.87174" lon="4.18885">
        <ele>518.74</ele>
        <time>2018-12-03T12:44:52Z</time>
      </trkpt>
      <trkpt lat="45.87173" lon="4.18877">
        <ele>518.232</ele>
        <time>2018-12-03T12:44:58Z</time>
      </trkpt>
      <trkpt lat="45.87175" lon="4.18867">
        <ele>517.725</ele>
        <time>2018-12-03T12:45:03Z</time>
      </trkpt>
      <trkpt lat="45.87176" lon="4.18858">
        <ele>516.94</ele>
        <time>2018-12-03T12:45:09Z</time>
      </trkpt>
      <trkpt lat="45.87176" lon="4.18854">
        <ele>516.042</ele>
        <time>2018-12-03T12:45:14Z</time>
      </trkpt>
      <trkpt lat="45.87179" lon="4.18843">
        <ele>515.43</ele>
        <time>2018-12-03T12:45:20Z</time>
      </trkpt>
      <trkpt lat="45.87181" lon="4.18833">
        <ele>514.773</ele>
        <time>2018-12-03T12:45:25Z</time>
      </trkpt>
      <trkpt lat="45.87182" lon="4.18825">
        <ele>513.936</ele>
        <time>2018-12-03T12:45:31Z</time>
      </trkpt>
      <trkpt lat="45.87183" lon="4.18816">
        <ele>513.496</ele>
        <time>2018-12-03T12:45:37Z</time>
      </trkpt>
      <trkpt lat="45.87185" lon="4.18806">
        <ele>512.672</ele>
        <time>2018-12-03T12:45:43Z</time>
      </trkpt>
      <trkpt lat="45.87188" lon="4.18797">
        <ele>511.885</ele>
        <time>2018-12-03T12:45:49Z</time>
      </trkpt>
      <trkpt lat="45.87189" lon="4.1879">
        <ele>511.576</ele>
        <time>2018-12-03T12:45:54Z</time>
      </trkpt>
      <trkpt lat="45.87191" lon="4.1878">
        <ele>511.155</ele>
        <time>2018-12-03T12:46:00Z</time>
      </trkpt>
      <trkpt lat="45.87191" lon="4.18773">
        <ele>510.646</ele>
        <time>2018-12-03T12:46:05Z</time>
      </trkpt>
      <trkpt lat="45.87192" lon="4.18765">
        <ele>510.075</ele>
        <time>2018-12-03T12:46:11Z</time>
      </trkpt>
      <trkpt lat="45.8719" lon="4.18755">
        <ele>509.437</ele>
        <time>2018-12-03T12:46:17Z</time>
      </trkpt>
      <trkpt lat="45.87189" lon="4.18748">
        <ele>508.611</ele>
        <time>2018-12-03T12:46:22Z</time>
      </trkpt>
      <trkpt lat="45.87188" lon="4.18738">
        <ele>507.591</ele>
        <time>2018-12-03T12:46:28Z</time>
      </trkpt>
      <trkpt lat="45.87184" lon="4.18732">
        <ele>506.804</ele>
        <time>2018-12-03T12:46:34Z</time>
      </trkpt>
      <trkpt lat="45.8718" lon="4.18727">
        <ele>506.1</ele>
        <time>2018-12-03T12:46:39Z</time>
      </trkpt>
      <trkpt lat="45.87177" lon="4.18718">
        <ele>505.347</ele>
        <time>2018-12-03T12:46:45Z</time>
      </trkpt>
      <trkpt lat="45.87175" lon="4.1871">
        <ele>504.689</ele>
        <time>2018-12-03T12:46:50Z</time>
      </trkpt>
      <trkpt lat="45.87173" lon="4.18701">
        <ele>503.973</ele>
        <time>2018-12-03T12:46:56Z</time>
      </trkpt>
      <trkpt lat="45.87172" lon="4.18691">
        <ele>503.452</ele>
        <time>2018-12-03T12:47:02Z</time>
      </trkpt>
      <trkpt lat="45.87173" lon="4.18682">
        <ele>502.848</ele>
        <time>2018-12-03T12:47:07Z</time>
      </trkpt>
      <trkpt lat="45.87176" lon="4.18672">
        <ele>501.652</ele>
        <time>2018-12-03T12:47:13Z</time>
      </trkpt>
      <trkpt lat="45.8718" lon="4.18663">
        <ele>500.628</ele>
        <time>2018-12-03T12:47:19Z</time>
      </trkpt>
      <trkpt lat="45.87184" lon="4.18654">
        <ele>500.442</ele>
        <time>2018-12-03T12:47:25Z</time>
      </trkpt>
      <trkpt lat="45.87186" lon="4.18649">
        <ele>500.261</ele>
        <time>2018-12-03T12:47:31Z</time>
      </trkpt>
      <trkpt lat="45.87189" lon="4.18644">
        <ele>499.482</ele>
        <time>2018-12-03T12:47:36Z</time>
      </trkpt>
      <trkpt lat="45.87193" lon="4.18637">
        <ele>498.394</ele>
        <time>2018-12-03T12:47:42Z</time>
      </trkpt>
      <trkpt lat="45.87195" lon="4.18631">
        <ele>497.998</ele>
        <time>2018-12-03T12:47:47Z</time>
      </trkpt>
      <trkpt lat="45.87198" lon="4.18623">
        <ele>497.664</ele>
        <time>2018-12-03T12:47:53Z</time>
      </trkpt>
      <trkpt lat="45.87203" lon="4.18612">
        <ele>496.873</ele>
        <time>2018-12-03T12:47:59Z</time>
      </trkpt>
      <trkpt lat="45.87206" lon="4.18604">
        <ele>496.39</ele>
        <time>2018-12-03T12:48:04Z</time>
      </trkpt>
      <trkpt lat="45.8721" lon="4.18597">
        <ele>496.097</ele>
        <time>2018-12-03T12:48:10Z</time>
      </trkpt>
      <trkpt lat="45.87214" lon="4.18591">
        <ele>495.58</ele>
        <time>2018-12-03T12:48:15Z</time>
      </trkpt>
      <trkpt lat="45.87219" lon="4.18585">
        <ele>494.652</ele>
        <time>2018-12-03T12:48:21Z</time>
      </trkpt>
      <trkpt lat="45.87223" lon="4.18581">
        <ele>494.046</ele>
        <time>2018-12-03T12:48:27Z</time>
      </trkpt>
      <trkpt lat="45.87228" lon="4.18577">
        <ele>493.791</ele>
        <time>2018-12-03T12:48:32Z</time>
      </trkpt>
      <trkpt lat="45.87234" lon="4.18573">
        <ele>493.767</ele>
        <time>2018-12-03T12:48:38Z</time>
      </trkpt>
      <trkpt lat="45.87239" lon="4.18571">
        <ele>494.04</ele>
        <time>2018-12-03T12:48:43Z</time>
      </trkpt>
      <trkpt lat="45.87247" lon="4.18565">
        <ele>494.872</ele>
        <time>2018-12-03T12:48:49Z</time>
      </trkpt>
      <trkpt lat="45.87251" lon="4.18565">
        <ele>495.128</ele>
        <time>2018-12-03T12:48:54Z</time>
      </trkpt>
      <trkpt lat="45.87257" lon="4.18562">
        <ele>495.844</ele>
        <time>2018-12-03T12:49:00Z</time>
      </trkpt>
      <trkpt lat="45.87261" lon="4.1856">
        <ele>496.431</ele>
        <time>2018-12-03T12:49:05Z</time>
      </trkpt>
      <trkpt lat="45.87266" lon="4.18556">
        <ele>496.94</ele>
        <time>2018-12-03T12:49:10Z</time>
      </trkpt>
      <trkpt lat="45.8727" lon="4.18553">
        <ele>497.335</ele>
        <time>2018-12-03T12:49:15Z</time>
      </trkpt>
      <trkpt lat="45.87278" lon="4.1855">
        <ele>497.352</ele>
        <time>2018-12-03T12:49:21Z</time>
      </trkpt>
      <trkpt lat="45.87283" lon="4.18549">
        <ele>496.595</ele>
        <time>2018-12-03T12:49:27Z</time>
      </trkpt>
      <trkpt lat="45.87288" lon="4.18547">
        <ele>496.462</ele>
        <time>2018-12-03T12:49:33Z</time>
      </trkpt>
      <trkpt lat="45.87295" lon="4.1855">
        <ele>496.499</ele>
        <time>2018-12-03T12:49:38Z</time>
      </trkpt>
      <trkpt lat="45.87301" lon="4.1855">
        <ele>495.85</ele>
        <time>2018-12-03T12:49:44Z</time>
      </trkpt>
      <trkpt lat="45.87305" lon="4.18549">
        <ele>495.507</ele>
        <time>2018-12-03T12:49:49Z</time>
      </trkpt>
      <trkpt lat="45.87309" lon="4.18543">
        <ele>495.137</ele>
        <time>2018-12-03T12:49:55Z</time>
      </trkpt>
      <trkpt lat="45.87311" lon="4.18539">
        <ele>494.433</ele>
        <time>2018-12-03T12:50:01Z</time>
      </trkpt>
      <trkpt lat="45.87309" lon="4.18531">
        <ele>493.483</ele>
        <time>2018-12-03T12:50:07Z</time>
      </trkpt>
      <trkpt lat="45.87306" lon="4.18526">
        <ele>492.641</ele>
        <time>2018-12-03T12:50:12Z</time>
      </trkpt>
      <trkpt lat="45.87303" lon="4.1852">
        <ele>491.261</ele>
        <time>2018-12-03T12:50:18Z</time>
      </trkpt>
      <trkpt lat="45.87301" lon="4.18515">
        <ele>490.139</ele>
        <time>2018-12-03T12:50:23Z</time>
      </trkpt>
      <trkpt lat="45.87299" lon="4.18505">
        <ele>488.592</ele>
        <time>2018-12-03T12:50:29Z</time>
      </trkpt>
      <trkpt lat="45.87297" lon="4.185">
        <ele>487.813</ele>
        <time>2018-12-03T12:50:34Z</time>
      </trkpt>
      <trkpt lat="45.87292" lon="4.18489">
        <ele>486.714</ele>
        <time>2018-12-03T12:50:40Z</time>
      </trkpt>
      <trkpt lat="45.8729" lon="4.18483">
        <ele>485.668</ele>
        <time>2018-12-03T12:50:45Z</time>
      </trkpt>
      <trkpt lat="45.87287" lon="4.18476">
        <ele>484.867</ele>
        <time>2018-12-03T12:50:51Z</time>
      </trkpt>
      <trkpt lat="45.87282" lon="4.18466">
        <ele>484.826</ele>
        <time>2018-12-03T12:50:56Z</time>
      </trkpt>
      <trkpt lat="45.87278" lon="4.18462">
        <ele>485.225</ele>
        <time>2018-12-03T12:51:02Z</time>
      </trkpt>
      <trkpt lat="45.87274" lon="4.18455">
        <ele>484.533</ele>
        <time>2018-12-03T12:51:08Z</time>
      </trkpt>
      <trkpt lat="45.87273" lon="4.18448">
        <ele>483.585</ele>
        <time>2018-12-03T12:51:14Z</time>
      </trkpt>
      <trkpt lat="45.87274" lon="4.18433">
        <ele>482.438</ele>
        <time>2018-12-03T12:51:20Z</time>
      </trkpt>
      <trkpt lat="45.87276" lon="4.18429">
        <ele>481.702</ele>
        <time>2018-12-03T12:51:25Z</time>
      </trkpt>
      <trkpt lat="45.87279" lon="4.18427">
        <ele>480.496</ele>
        <time>2018-12-03T12:51:31Z</time>
      </trkpt>
      <trkpt lat="45.87284" lon="4.18426">
        <ele>479.883</ele>
        <time>2018-12-03T12:51:36Z</time>
      </trkpt>
      <trkpt lat="45.87287" lon="4.18427">
        <ele>479.359</ele>
        <time>2018-12-03T12:51:42Z</time>
      </trkpt>
      <trkpt lat="45.87292" lon="4.18429">
        <ele>478.982</ele>
        <time>2018-12-03T12:51:48Z</time>
      </trkpt>
      <trkpt lat="45.87296" lon="4.1843">
        <ele>478.78</ele>
        <time>2018-12-03T12:51:53Z</time>
      </trkpt>
      <trkpt lat="45.87299" lon="4.18431">
        <ele>478.244</ele>
        <time>2018-12-03T12:51:59Z</time>
      </trkpt>
      <trkpt lat="45.87303" lon="4.1843">
        <ele>477.259</ele>
        <time>2018-12-03T12:52:05Z</time>
      </trkpt>
      <trkpt lat="45.87306" lon="4.18431">
        <ele>476.382</ele>
        <time>2018-12-03T12:52:10Z</time>
      </trkpt>
      <trkpt lat="45.87311" lon="4.18431">
        <ele>475.552</ele>
        <time>2018-12-03T12:52:16Z</time>
      </trkpt>
      <trkpt lat="45.87313" lon="4.18429">
        <ele>474.735</ele>
        <time>2018-12-03T12:52:21Z</time>
      </trkpt>
      <trkpt lat="45.87315" lon="4.18428">
        <ele>473.337</ele>
        <time>2018-12-03T12:52:27Z</time>
      </trkpt>
      <trkpt lat="45.87317" lon="4.18424">
        <ele>472.009</ele>
        <time>2018-12-03T12:52:32Z</time>
      </trkpt>
      <trkpt lat="45.8732" lon="4.18419">
        <ele>469.876</ele>
        <time>2018-12-03T12:52:37Z</time>
      </trkpt>
      <trkpt lat="45.87323" lon="4.1842">
        <ele>467.729</ele>
        <time>2018-12-03T12:52:43Z</time>
      </trkpt>
      <trkpt lat="45.87329" lon="4.18423">
        <ele>467.287</ele>
        <time>2018-12-03T12:52:49Z</time>
      </trkpt>
      <trkpt lat="45.87337" lon="4.18422">
        <ele>467.583</ele>
        <time>2018-12-03T12:52:55Z</time>
      </trkpt>
      <trkpt lat="45.8734" lon="4.18421">
        <ele>467.504</ele>
        <time>2018-12-03T12:53:01Z</time>
      </trkpt>
      <trkpt lat="45.87343" lon="4.18424">
        <ele>467.795</ele>
        <time>2018-12-03T12:53:06Z</time>
      </trkpt>
      <trkpt lat="45.87345" lon="4.18424">
        <ele>468.375</ele>
        <time>2018-12-03T12:53:12Z</time>
      </trkpt>
      <trkpt lat="45.87345" lon="4.18422">
        <ele>468.337</ele>
        <time>2018-12-03T12:53:18Z</time>
      </trkpt>
      <trkpt lat="45.87345" lon="4.18422">
        <ele>468.131</ele>
        <time>2018-12-03T12:53:23Z</time>
      </trkpt>
      <trkpt lat="45.87343" lon="4.18423">
        <ele>467.986</ele>
        <time>2018-12-03T12:53:29Z</time>
      </trkpt>
      <trkpt lat="45.87343" lon="4.18423">
        <ele>468.127</ele>
        <time>2018-12-03T12:53:35Z</time>
      </trkpt>
      <trkpt lat="45.87343" lon="4.18423">
        <ele>468.163</ele>
        <time>2018-12-03T12:53:41Z</time>
      </trkpt>
      <trkpt lat="45.87343" lon="4.18423">
        <ele>468.064</ele>
        <time>2018-12-03T12:53:46Z</time>
      </trkpt>
      <trkpt lat="45.87342" lon="4.18424">
        <ele>467.431</ele>
        <time>2018-12-03T12:53:52Z</time>
      </trkpt>
      <trkpt lat="45.87341" lon="4.18428">
        <ele>466.691</ele>
        <time>2018-12-03T12:53:58Z</time>
      </trkpt>
      <trkpt lat="45.87339" lon="4.18428">
        <ele>465.547</ele>
        <time>2018-12-03T12:54:03Z</time>
      </trkpt>
      <trkpt lat="45.87336" lon="4.1843">
        <ele>463.498</ele>
        <time>2018-12-03T12:54:10Z</time>
      </trkpt>
      <trkpt lat="45.87336" lon="4.18431">
        <ele>463.781</ele>
        <time>2018-12-03T12:54:15Z</time>
      </trkpt>
      <trkpt lat="45.87336" lon="4.18431">
        <ele>463.331</ele>
        <time>2018-12-03T12:54:21Z</time>
      </trkpt>
      <trkpt lat="45.87336" lon="4.18431">
        <ele>463.281</ele>
        <time>2018-12-03T12:54:27Z</time>
      </trkpt>
      <trkpt lat="45.87336" lon="4.18431">
        <ele>463.252</ele>
        <time>2018-12-03T12:54:32Z</time>
      </trkpt>
      <trkpt lat="45.87336" lon="4.1843">
        <ele>463.233</ele>
        <time>2018-12-03T12:54:38Z</time>
      </trkpt>
      <trkpt lat="45.87333" lon="4.18417">
        <ele>463.321</ele>
        <time>2018-12-03T12:54:43Z</time>
      </trkpt>
      <trkpt lat="45.87334" lon="4.18409">
        <ele>463.215</ele>
        <time>2018-12-03T12:54:49Z</time>
      </trkpt>
      <trkpt lat="45.87335" lon="4.18404">
        <ele>463.163</ele>
        <time>2018-12-03T12:54:55Z</time>
      </trkpt>
      <trkpt lat="45.87338" lon="4.18399">
        <ele>463.424</ele>
        <time>2018-12-03T12:55:01Z</time>
      </trkpt>
      <trkpt lat="45.87339" lon="4.18387">
        <ele>463.019</ele>
        <time>2018-12-03T12:55:07Z</time>
      </trkpt>
      <trkpt lat="45.87352" lon="4.18379">
        <ele>463.012</ele>
        <time>2018-12-03T12:55:12Z</time>
      </trkpt>
      <trkpt lat="45.87356" lon="4.1837">
        <ele>462.195</ele>
        <time>2018-12-03T12:55:18Z</time>
      </trkpt>
      <trkpt lat="45.87358" lon="4.18361">
        <ele>460.923</ele>
        <time>2018-12-03T12:55:23Z</time>
      </trkpt>
      <trkpt lat="45.87367" lon="4.18348">
        <ele>459.389</ele>
        <time>2018-12-03T12:55:29Z</time>
      </trkpt>
      <trkpt lat="45.87374" lon="4.18344">
        <ele>458.794</ele>
        <time>2018-12-03T12:55:34Z</time>
      </trkpt>
      <trkpt lat="45.87377" lon="4.18344">
        <ele>458.581</ele>
        <time>2018-12-03T12:55:40Z</time>
      </trkpt>
      <trkpt lat="45.87377" lon="4.18344">
        <ele>458.352</ele>
        <time>2018-12-03T12:55:46Z</time>
      </trkpt>
      <trkpt lat="45.87377" lon="4.18345">
        <ele>458.169</ele>
        <time>2018-12-03T12:55:52Z</time>
      </trkpt>
      <trkpt lat="45.87377" lon="4.18345">
        <ele>458.243</ele>
        <time>2018-12-03T12:55:57Z</time>
      </trkpt>
      <trkpt lat="45.87381" lon="4.18335">
        <ele>458.239</ele>
        <time>2018-12-03T12:56:03Z</time>
      </trkpt>
      <trkpt lat="45.87385" lon="4.18331">
        <ele>457.933</ele>
        <time>2018-12-03T12:56:09Z</time>
      </trkpt>
      <trkpt lat="45.87389" lon="4.18327">
        <ele>457.902</ele>
        <time>2018-12-03T12:56:15Z</time>
      </trkpt>
      <trkpt lat="45.87392" lon="4.18324">
        <ele>458.126</ele>
        <time>2018-12-03T12:56:21Z</time>
      </trkpt>
      <trkpt lat="45.87396" lon="4.18319">
        <ele>457.48</ele>
        <time>2018-12-03T12:56:26Z</time>
      </trkpt>
      <trkpt lat="45.87401" lon="4.18313">
        <ele>457.301</ele>
        <time>2018-12-03T12:56:32Z</time>
      </trkpt>
      <trkpt lat="45.87408" lon="4.1831">
        <ele>457.358</ele>
        <time>2018-12-03T12:56:38Z</time>
      </trkpt>
      <trkpt lat="45.87415" lon="4.18307">
        <ele>457.095</ele>
        <time>2018-12-03T12:56:44Z</time>
      </trkpt>
      <trkpt lat="45.87419" lon="4.18303">
        <ele>457.364</ele>
        <time>2018-12-03T12:56:50Z</time>
      </trkpt>
      <trkpt lat="45.87427" lon="4.18296">
        <ele>457.388</ele>
        <time>2018-12-03T12:56:56Z</time>
      </trkpt>
      <trkpt lat="45.87432" lon="4.18292">
        <ele>457.842</ele>
        <time>2018-12-03T12:57:02Z</time>
      </trkpt>
      <trkpt lat="45.87436" lon="4.18284">
        <ele>458.357</ele>
        <time>2018-12-03T12:57:08Z</time>
      </trkpt>
      <trkpt lat="45.87439" lon="4.18279">
        <ele>458.581</ele>
        <time>2018-12-03T12:57:13Z</time>
      </trkpt>
      <trkpt lat="45.87443" lon="4.18271">
        <ele>458.802</ele>
        <time>2018-12-03T12:57:19Z</time>
      </trkpt>
      <trkpt lat="45.87447" lon="4.18267">
        <ele>458.916</ele>
        <time>2018-12-03T12:57:24Z</time>
      </trkpt>
      <trkpt lat="45.87454" lon="4.1826">
        <ele>459.153</ele>
        <time>2018-12-03T12:57:30Z</time>
      </trkpt>
      <trkpt lat="45.87458" lon="4.18256">
        <ele>459.148</ele>
        <time>2018-12-03T12:57:35Z</time>
      </trkpt>
      <trkpt lat="45.87462" lon="4.18252">
        <ele>458.926</ele>
        <time>2018-12-03T12:57:41Z</time>
      </trkpt>
      <trkpt lat="45.87467" lon="4.18247">
        <ele>458.855</ele>
        <time>2018-12-03T12:57:46Z</time>
      </trkpt>
      <trkpt lat="45.87472" lon="4.18242">
        <ele>458.439</ele>
        <time>2018-12-03T12:57:52Z</time>
      </trkpt>
      <trkpt lat="45.87478" lon="4.18237">
        <ele>458.51</ele>
        <time>2018-12-03T12:57:58Z</time>
      </trkpt>
      <trkpt lat="45.87483" lon="4.18233">
        <ele>458.722</ele>
        <time>2018-12-03T12:58:04Z</time>
      </trkpt>
      <trkpt lat="45.87486" lon="4.1823">
        <ele>458.639</ele>
        <time>2018-12-03T12:58:09Z</time>
      </trkpt>
      <trkpt lat="45.8749" lon="4.18225">
        <ele>458.748</ele>
        <time>2018-12-03T12:58:15Z</time>
      </trkpt>
      <trkpt lat="45.87495" lon="4.1822">
        <ele>458.747</ele>
        <time>2018-12-03T12:58:21Z</time>
      </trkpt>
      <trkpt lat="45.875" lon="4.18216">
        <ele>458.675</ele>
        <time>2018-12-03T12:58:27Z</time>
      </trkpt>
      <trkpt lat="45.87506" lon="4.18213">
        <ele>458.952</ele>
        <time>2018-12-03T12:58:32Z</time>
      </trkpt>
      <trkpt lat="45.87511" lon="4.18207">
        <ele>459.596</ele>
        <time>2018-12-03T12:58:38Z</time>
      </trkpt>
      <trkpt lat="45.87514" lon="4.18203">
        <ele>460.045</ele>
        <time>2018-12-03T12:58:44Z</time>
      </trkpt>
      <trkpt lat="45.87518" lon="4.18197">
        <ele>460.321</ele>
        <time>2018-12-03T12:58:50Z</time>
      </trkpt>
      <trkpt lat="45.87524" lon="4.18191">
        <ele>460.736</ele>
        <time>2018-12-03T12:58:55Z</time>
      </trkpt>
      <trkpt lat="45.87529" lon="4.18186">
        <ele>461.05</ele>
        <time>2018-12-03T12:59:00Z</time>
      </trkpt>
      <trkpt lat="45.87534" lon="4.18181">
        <ele>461.603</ele>
        <time>2018-12-03T12:59:05Z</time>
      </trkpt>
      <trkpt lat="45.87538" lon="4.18176">
        <ele>462.392</ele>
        <time>2018-12-03T12:59:10Z</time>
      </trkpt>
      <trkpt lat="45.87542" lon="4.18171">
        <ele>462.986</ele>
        <time>2018-12-03T12:59:16Z</time>
      </trkpt>
      <trkpt lat="45.87549" lon="4.18166">
        <ele>463.132</ele>
        <time>2018-12-03T12:59:22Z</time>
      </trkpt>
      <trkpt lat="45.87552" lon="4.18162">
        <ele>463.255</ele>
        <time>2018-12-03T12:59:28Z</time>
      </trkpt>
      <trkpt lat="45.87556" lon="4.18157">
        <ele>463.909</ele>
        <time>2018-12-03T12:59:34Z</time>
      </trkpt>
      <trkpt lat="45.8756" lon="4.1815">
        <ele>464.896</ele>
        <time>2018-12-03T12:59:39Z</time>
      </trkpt>
      <trkpt lat="45.87564" lon="4.18143">
        <ele>465.688</ele>
        <time>2018-12-03T12:59:45Z</time>
      </trkpt>
      <trkpt lat="45.87567" lon="4.18137">
        <ele>466.482</ele>
        <time>2018-12-03T12:59:51Z</time>
      </trkpt>
      <trkpt lat="45.87569" lon="4.18131">
        <ele>466.491</ele>
        <time>2018-12-03T12:59:56Z</time>
      </trkpt>
      <trkpt lat="45.87572" lon="4.18125">
        <ele>466.65</ele>
        <time>2018-12-03T13:00:01Z</time>
      </trkpt>
      <trkpt lat="45.87573" lon="4.18118">
        <ele>467.152</ele>
        <time>2018-12-03T13:00:07Z</time>
      </trkpt>
      <trkpt lat="45.87574" lon="4.18114">
        <ele>468.012</ele>
        <time>2018-12-03T13:00:12Z</time>
      </trkpt>
      <trkpt lat="45.87579" lon="4.18106">
        <ele>468.844</ele>
        <time>2018-12-03T13:00:17Z</time>
      </trkpt>
      <trkpt lat="45.87582" lon="4.18097">
        <ele>470.223</ele>
        <time>2018-12-03T13:00:23Z</time>
      </trkpt>
      <trkpt lat="45.87585" lon="4.18093">
        <ele>470.91</ele>
        <time>2018-12-03T13:00:28Z</time>
      </trkpt>
      <trkpt lat="45.87588" lon="4.18085">
        <ele>471.179</ele>
        <time>2018-12-03T13:00:34Z</time>
      </trkpt>
      <trkpt lat="45.8759" lon="4.18074">
        <ele>471.682</ele>
        <time>2018-12-03T13:00:40Z</time>
      </trkpt>
      <trkpt lat="45.87593" lon="4.18068">
        <ele>472.324</ele>
        <time>2018-12-03T13:00:45Z</time>
      </trkpt>
      <trkpt lat="45.87598" lon="4.18059">
        <ele>472.931</ele>
        <time>2018-12-03T13:00:51Z</time>
      </trkpt>
      <trkpt lat="45.87601" lon="4.18051">
        <ele>473.986</ele>
        <time>2018-12-03T13:00:57Z</time>
      </trkpt>
      <trkpt lat="45.87604" lon="4.18041">
        <ele>474.928</ele>
        <time>2018-12-03T13:01:03Z</time>
      </trkpt>
      <trkpt lat="45.87606" lon="4.18033">
        <ele>475.784</ele>
        <time>2018-12-03T13:01:09Z</time>
      </trkpt>
      <trkpt lat="45.87608" lon="4.18025">
        <ele>476.521</ele>
        <time>2018-12-03T13:01:14Z</time>
      </trkpt>
      <trkpt lat="45.87611" lon="4.18017">
        <ele>477.209</ele>
        <time>2018-12-03T13:01:20Z</time>
      </trkpt>
      <trkpt lat="45.87615" lon="4.1801">
        <ele>477.668</ele>
        <time>2018-12-03T13:01:25Z</time>
      </trkpt>
      <trkpt lat="45.87618" lon="4.18001">
        <ele>478.193</ele>
        <time>2018-12-03T13:01:31Z</time>
      </trkpt>
      <trkpt lat="45.87622" lon="4.17993">
        <ele>478.602</ele>
        <time>2018-12-03T13:01:37Z</time>
      </trkpt>
      <trkpt lat="45.87624" lon="4.17986">
        <ele>478.656</ele>
        <time>2018-12-03T13:01:42Z</time>
      </trkpt>
      <trkpt lat="45.87628" lon="4.17978">
        <ele>479.241</ele>
        <time>2018-12-03T13:01:48Z</time>
      </trkpt>
      <trkpt lat="45.8763" lon="4.17971">
        <ele>479.677</ele>
        <time>2018-12-03T13:01:53Z</time>
      </trkpt>
      <trkpt lat="45.87633" lon="4.17963">
        <ele>480.691</ele>
        <time>2018-12-03T13:01:59Z</time>
      </trkpt>
      <trkpt lat="45.87635" lon="4.17956">
        <ele>481.269</ele>
        <time>2018-12-03T13:02:05Z</time>
      </trkpt>
      <trkpt lat="45.87639" lon="4.17945">
        <ele>481.589</ele>
        <time>2018-12-03T13:02:11Z</time>
      </trkpt>
      <trkpt lat="45.87641" lon="4.17939">
        <ele>482.203</ele>
        <time>2018-12-03T13:02:16Z</time>
      </trkpt>
      <trkpt lat="45.87643" lon="4.17932">
        <ele>482.658</ele>
        <time>2018-12-03T13:02:21Z</time>
      </trkpt>
      <trkpt lat="45.87646" lon="4.17929">
        <ele>483.809</ele>
        <time>2018-12-03T13:02:27Z</time>
      </trkpt>
      <trkpt lat="45.87648" lon="4.17919">
        <ele>484.832</ele>
        <time>2018-12-03T13:02:33Z</time>
      </trkpt>
      <trkpt lat="45.87649" lon="4.17913">
        <ele>485.482</ele>
        <time>2018-12-03T13:02:39Z</time>
      </trkpt>
      <trkpt lat="45.87651" lon="4.17902">
        <ele>486.084</ele>
        <time>2018-12-03T13:02:45Z</time>
      </trkpt>
      <trkpt lat="45.87652" lon="4.17897">
        <ele>486.198</ele>
        <time>2018-12-03T13:02:50Z</time>
      </trkpt>
      <trkpt lat="45.87655" lon="4.17886">
        <ele>486.595</ele>
        <time>2018-12-03T13:02:56Z</time>
      </trkpt>
      <trkpt lat="45.87655" lon="4.17878">
        <ele>486.727</ele>
        <time>2018-12-03T13:03:01Z</time>
      </trkpt>
      <trkpt lat="45.87655" lon="4.17867">
        <ele>486.924</ele>
        <time>2018-12-03T13:03:07Z</time>
      </trkpt>
      <trkpt lat="45.87657" lon="4.17855">
        <ele>487.423</ele>
        <time>2018-12-03T13:03:13Z</time>
      </trkpt>
      <trkpt lat="45.87658" lon="4.17846">
        <ele>487.281</ele>
        <time>2018-12-03T13:03:19Z</time>
      </trkpt>
      <trkpt lat="45.87657" lon="4.17843">
        <ele>487.498</ele>
        <time>2018-12-03T13:03:25Z</time>
      </trkpt>
      <trkpt lat="45.87658" lon="4.1783">
        <ele>487.766</ele>
        <time>2018-12-03T13:03:31Z</time>
      </trkpt>
      <trkpt lat="45.87657" lon="4.17823">
        <ele>487.837</ele>
        <time>2018-12-03T13:03:36Z</time>
      </trkpt>
      <trkpt lat="45.87658" lon="4.17818">
        <ele>487.748</ele>
        <time>2018-12-03T13:03:42Z</time>
      </trkpt>
      <trkpt lat="45.87659" lon="4.17817">
        <ele>488.202</ele>
        <time>2018-12-03T13:03:48Z</time>
      </trkpt>
      <trkpt lat="45.87659" lon="4.17816">
        <ele>488.843</ele>
        <time>2018-12-03T13:03:53Z</time>
      </trkpt>
      <trkpt lat="45.8766" lon="4.17815">
        <ele>489.149</ele>
        <time>2018-12-03T13:03:59Z</time>
      </trkpt>
      <trkpt lat="45.8766" lon="4.17813">
        <ele>489.676</ele>
        <time>2018-12-03T13:04:04Z</time>
      </trkpt>
      <trkpt lat="45.8766" lon="4.17809">
        <ele>490.064</ele>
        <time>2018-12-03T13:04:10Z</time>
      </trkpt>
      <trkpt lat="45.8766" lon="4.17803">
        <ele>490.516</ele>
        <time>2018-12-03T13:04:15Z</time>
      </trkpt>
      <trkpt lat="45.87659" lon="4.17793">
        <ele>491.462</ele>
        <time>2018-12-03T13:04:21Z</time>
      </trkpt>
      <trkpt lat="45.87659" lon="4.17783">
        <ele>492.567</ele>
        <time>2018-12-03T13:04:27Z</time>
      </trkpt>
      <trkpt lat="45.8766" lon="4.17774">
        <ele>493.406</ele>
        <time>2018-12-03T13:04:33Z</time>
      </trkpt>
      <trkpt lat="45.87661" lon="4.17768">
        <ele>493.646</ele>
        <time>2018-12-03T13:04:38Z</time>
      </trkpt>
      <trkpt lat="45.8766" lon="4.17758">
        <ele>493.767</ele>
        <time>2018-12-03T13:04:44Z</time>
      </trkpt>
      <trkpt lat="45.8766" lon="4.17751">
        <ele>494.086</ele>
        <time>2018-12-03T13:04:49Z</time>
      </trkpt>
      <trkpt lat="45.8766" lon="4.17743">
        <ele>494.328</ele>
        <time>2018-12-03T13:04:55Z</time>
      </trkpt>
      <trkpt lat="45.87662" lon="4.17738">
        <ele>494.669</ele>
        <time>2018-12-03T13:05:00Z</time>
      </trkpt>
      <trkpt lat="45.87662" lon="4.17732">
        <ele>495.14</ele>
        <time>2018-12-03T13:05:05Z</time>
      </trkpt>
      <trkpt lat="45.87661" lon="4.17722">
        <ele>495.417</ele>
        <time>2018-12-03T13:05:11Z</time>
      </trkpt>
      <trkpt lat="45.87661" lon="4.17717">
        <ele>495.744</ele>
        <time>2018-12-03T13:05:16Z</time>
      </trkpt>
      <trkpt lat="45.8766" lon="4.1771">
        <ele>496.177</ele>
        <time>2018-12-03T13:05:21Z</time>
      </trkpt>
      <trkpt lat="45.87659" lon="4.17705">
        <ele>497.488</ele>
        <time>2018-12-03T13:05:27Z</time>
      </trkpt>
      <trkpt lat="45.87658" lon="4.17701">
        <ele>498.663</ele>
        <time>2018-12-03T13:05:33Z</time>
      </trkpt>
      <trkpt lat="45.8766" lon="4.17689">
        <ele>499.703</ele>
        <time>2018-12-03T13:05:39Z</time>
      </trkpt>
      <trkpt lat="45.87661" lon="4.17683">
        <ele>500.981</ele>
        <time>2018-12-03T13:05:44Z</time>
      </trkpt>
      <trkpt lat="45.87662" lon="4.17676">
        <ele>502.186</ele>
        <time>2018-12-03T13:05:50Z</time>
      </trkpt>
      <trkpt lat="45.8766" lon="4.17671">
        <ele>502.76</ele>
        <time>2018-12-03T13:05:55Z</time>
      </trkpt>
      <trkpt lat="45.87659" lon="4.17664">
        <ele>502.817</ele>
        <time>2018-12-03T13:06:01Z</time>
      </trkpt>
      <trkpt lat="45.87659" lon="4.17656">
        <ele>502.38</ele>
        <time>2018-12-03T13:06:06Z</time>
      </trkpt>
      <trkpt lat="45.87657" lon="4.17645">
        <ele>501.954</ele>
        <time>2018-12-03T13:06:12Z</time>
      </trkpt>
      <trkpt lat="45.87658" lon="4.17635">
        <ele>501.957</ele>
        <time>2018-12-03T13:06:18Z</time>
      </trkpt>
      <trkpt lat="45.8766" lon="4.17628">
        <ele>502.272</ele>
        <time>2018-12-03T13:06:23Z</time>
      </trkpt>
      <trkpt lat="45.87662" lon="4.17621">
        <ele>502.247</ele>
        <time>2018-12-03T13:06:29Z</time>
      </trkpt>
      <trkpt lat="45.87662" lon="4.17611">
        <ele>502.63</ele>
        <time>2018-12-03T13:06:34Z</time>
      </trkpt>
      <trkpt lat="45.87664" lon="4.17606">
        <ele>503.106</ele>
        <time>2018-12-03T13:06:39Z</time>
      </trkpt>
      <trkpt lat="45.87664" lon="4.17601">
        <ele>503.687</ele>
        <time>2018-12-03T13:06:44Z</time>
      </trkpt>
      <trkpt lat="45.87663" lon="4.176">
        <ele>504.832</ele>
        <time>2018-12-03T13:06:50Z</time>
      </trkpt>
      <trkpt lat="45.87664" lon="4.17597">
        <ele>504.929</ele>
        <time>2018-12-03T13:06:56Z</time>
      </trkpt>
      <trkpt lat="45.87665" lon="4.17598">
        <ele>504.585</ele>
        <time>2018-12-03T13:07:02Z</time>
      </trkpt>
      <trkpt lat="45.87664" lon="4.17597">
        <ele>503.216</ele>
        <time>2018-12-03T13:07:08Z</time>
      </trkpt>
      <trkpt lat="45.87665" lon="4.17596">
        <ele>503.651</ele>
        <time>2018-12-03T13:07:14Z</time>
      </trkpt>
      <trkpt lat="45.87666" lon="4.17592">
        <ele>504.534</ele>
        <time>2018-12-03T13:07:20Z</time>
      </trkpt>
      <trkpt lat="45.87667" lon="4.17588">
        <ele>504.893</ele>
        <time>2018-12-03T13:07:25Z</time>
      </trkpt>
      <trkpt lat="45.87668" lon="4.17584">
        <ele>504.692</ele>
        <time>2018-12-03T13:07:30Z</time>
      </trkpt>
      <trkpt lat="45.87665" lon="4.17577">
        <ele>504.37</ele>
        <time>2018-12-03T13:07:36Z</time>
      </trkpt>
      <trkpt lat="45.87662" lon="4.17571">
        <ele>504.371</ele>
        <time>2018-12-03T13:07:41Z</time>
      </trkpt>
      <trkpt lat="45.87658" lon="4.17566">
        <ele>503.944</ele>
        <time>2018-12-03T13:07:47Z</time>
      </trkpt>
      <trkpt lat="45.87653" lon="4.1756">
        <ele>504.313</ele>
        <time>2018-12-03T13:07:53Z</time>
      </trkpt>
      <trkpt lat="45.87647" lon="4.17553">
        <ele>505.366</ele>
        <time>2018-12-03T13:07:59Z</time>
      </trkpt>
      <trkpt lat="45.87642" lon="4.1755">
        <ele>506.275</ele>
        <time>2018-12-03T13:08:04Z</time>
      </trkpt>
      <trkpt lat="45.87639" lon="4.17549">
        <ele>506.969</ele>
        <time>2018-12-03T13:08:09Z</time>
      </trkpt>
      <trkpt lat="45.87638" lon="4.17543">
        <ele>507.525</ele>
        <time>2018-12-03T13:08:15Z</time>
      </trkpt>
      <trkpt lat="45.87636" lon="4.17541">
        <ele>507.61</ele>
        <time>2018-12-03T13:08:21Z</time>
      </trkpt>
      <trkpt lat="45.87634" lon="4.1754">
        <ele>507.539</ele>
        <time>2018-12-03T13:08:26Z</time>
      </trkpt>
      <trkpt lat="45.87631" lon="4.17543">
        <ele>507.751</ele>
        <time>2018-12-03T13:08:32Z</time>
      </trkpt>
      <trkpt lat="45.87631" lon="4.17543">
        <ele>507.997</ele>
        <time>2018-12-03T13:08:38Z</time>
      </trkpt>
      <trkpt lat="45.87631" lon="4.17543">
        <ele>508.572</ele>
        <time>2018-12-03T13:08:43Z</time>
      </trkpt>
      <trkpt lat="45.87631" lon="4.17545">
        <ele>509.273</ele>
        <time>2018-12-03T13:08:49Z</time>
      </trkpt>
      <trkpt lat="45.87631" lon="4.17546">
        <ele>510.041</ele>
        <time>2018-12-03T13:08:55Z</time>
      </trkpt>
      <trkpt lat="45.87631" lon="4.17547">
        <ele>510.321</ele>
        <time>2018-12-03T13:09:00Z</time>
      </trkpt>
      <trkpt lat="45.87631" lon="4.17546">
        <ele>510.399</ele>
        <time>2018-12-03T13:09:06Z</time>
      </trkpt>
      <trkpt lat="45.87631" lon="4.17545">
        <ele>510.805</ele>
        <time>2018-12-03T13:09:11Z</time>
      </trkpt>
      <trkpt lat="45.87631" lon="4.17546">
        <ele>511.389</ele>
        <time>2018-12-03T13:09:17Z</time>
      </trkpt>
      <trkpt lat="45.8763" lon="4.17547">
        <ele>511.914</ele>
        <time>2018-12-03T13:09:22Z</time>
      </trkpt>
      <trkpt lat="45.87629" lon="4.17547">
        <ele>512.598</ele>
        <time>2018-12-03T13:09:28Z</time>
      </trkpt>
      <trkpt lat="45.87629" lon="4.17547">
        <ele>513.304</ele>
        <time>2018-12-03T13:09:33Z</time>
      </trkpt>
      <trkpt lat="45.87628" lon="4.17546">
        <ele>513.913</ele>
        <time>2018-12-03T13:09:39Z</time>
      </trkpt>
      <trkpt lat="45.87627" lon="4.17545">
        <ele>513.801</ele>
        <time>2018-12-03T13:09:45Z</time>
      </trkpt>
      <trkpt lat="45.87627" lon="4.17544">
        <ele>512.762</ele>
        <time>2018-12-03T13:09:51Z</time>
      </trkpt>
      <trkpt lat="45.87627" lon="4.17544">
        <ele>511.835</ele>
        <time>2018-12-03T13:09:56Z</time>
      </trkpt>
      <trkpt lat="45.87629" lon="4.17545">
        <ele>511.424</ele>
        <time>2018-12-03T13:10:01Z</time>
      </trkpt>
      <trkpt lat="45.87629" lon="4.17544">
        <ele>510.855</ele>
        <time>2018-12-03T13:10:07Z</time>
      </trkpt>
      <trkpt lat="45.87629" lon="4.17544">
        <ele>510.839</ele>
        <time>2018-12-03T13:10:13Z</time>
      </trkpt>
      <trkpt lat="45.87629" lon="4.17544">
        <ele>510.884</ele>
        <time>2018-12-03T13:10:19Z</time>
      </trkpt>
      <trkpt lat="45.87629" lon="4.17544">
        <ele>510.837</ele>
        <time>2018-12-03T13:10:24Z</time>
      </trkpt>
      <trkpt lat="45.87629" lon="4.17544">
        <ele>510.502</ele>
        <time>2018-12-03T13:10:30Z</time>
      </trkpt>
      <trkpt lat="45.87629" lon="4.17544">
        <ele>510.422</ele>
        <time>2018-12-03T13:10:35Z</time>
      </trkpt>
      <trkpt lat="45.87629" lon="4.17544">
        <ele>509.984</ele>
        <time>2018-12-03T13:10:41Z</time>
      </trkpt>
      <trkpt lat="45.87629" lon="4.17544">
        <ele>509.838</ele>
        <time>2018-12-03T13:10:47Z</time>
      </trkpt>
      <trkpt lat="45.87629" lon="4.17544">
        <ele>509.732</ele>
        <time>2018-12-03T13:10:53Z</time>
      </trkpt>
      <trkpt lat="45.87629" lon="4.17544">
        <ele>509.575</ele>
        <time>2018-12-03T13:10:59Z</time>
      </trkpt>
      <trkpt lat="45.87629" lon="4.17544">
        <ele>509.44</ele>
        <time>2018-12-03T13:11:05Z</time>
      </trkpt>
      <trkpt lat="45.87629" lon="4.17544">
        <ele>509.331</ele>
        <time>2018-12-03T13:11:11Z</time>
      </trkpt>
      <trkpt lat="45.87629" lon="4.17544">
        <ele>509.193</ele>
        <time>2018-12-03T13:11:17Z</time>
      </trkpt>
      <trkpt lat="45.87629" lon="4.17544">
        <ele>509.101</ele>
        <time>2018-12-03T13:11:23Z</time>
      </trkpt>
      <trkpt lat="45.87629" lon="4.17544">
        <ele>509.043</ele>
        <time>2018-12-03T13:11:28Z</time>
      </trkpt>
      <trkpt lat="45.87629" lon="4.17544">
        <ele>509.008</ele>
        <time>2018-12-03T13:11:33Z</time>
      </trkpt>
      <trkpt lat="45.87629" lon="4.17544">
        <ele>509.159</ele>
        <time>2018-12-03T13:11:39Z</time>
      </trkpt>
      <trkpt lat="45.87629" lon="4.17544">
        <ele>509.184</ele>
        <time>2018-12-03T13:11:44Z</time>
      </trkpt>
      <trkpt lat="45.87629" lon="4.17544">
        <ele>509.209</ele>
        <time>2018-12-03T13:11:50Z</time>
      </trkpt>
      <trkpt lat="45.87629" lon="4.17544">
        <ele>509.255</ele>
        <time>2018-12-03T13:11:55Z</time>
      </trkpt>
      <trkpt lat="45.87629" lon="4.17544">
        <ele>509.306</ele>
        <time>2018-12-03T13:12:00Z</time>
      </trkpt>
      <trkpt lat="45.87629" lon="4.17544">
        <ele>509.4</ele>
        <time>2018-12-03T13:12:06Z</time>
      </trkpt>
      <trkpt lat="45.87629" lon="4.17544">
        <ele>509.471</ele>
        <time>2018-12-03T13:12:11Z</time>
      </trkpt>
      <trkpt lat="45.87629" lon="4.17544">
        <ele>509.533</ele>
        <time>2018-12-03T13:12:17Z</time>
      </trkpt>
      <trkpt lat="45.87629" lon="4.17544">
        <ele>509.584</ele>
        <time>2018-12-03T13:12:22Z</time>
      </trkpt>
      <trkpt lat="45.87629" lon="4.17544">
        <ele>509.645</ele>
        <time>2018-12-03T13:12:27Z</time>
      </trkpt>
      <trkpt lat="45.87629" lon="4.17544">
        <ele>509.754</ele>
        <time>2018-12-03T13:12:33Z</time>
      </trkpt>
      <trkpt lat="45.87629" lon="4.17544">
        <ele>509.85</ele>
        <time>2018-12-03T13:12:38Z</time>
      </trkpt>
      <trkpt lat="45.87629" lon="4.17544">
        <ele>510.067</ele>
        <time>2018-12-03T13:12:44Z</time>
      </trkpt>
      <trkpt lat="45.87629" lon="4.17544">
        <ele>510.031</ele>
        <time>2018-12-03T13:12:49Z</time>
      </trkpt>
      <trkpt lat="45.87629" lon="4.17544">
        <ele>509.946</ele>
        <time>2018-12-03T13:12:55Z</time>
      </trkpt>
      <trkpt lat="45.87629" lon="4.17544">
        <ele>509.857</ele>
        <time>2018-12-03T13:13:00Z</time>
      </trkpt>
      <trkpt lat="45.8763" lon="4.17544">
        <ele>509.574</ele>
        <time>2018-12-03T13:13:06Z</time>
      </trkpt>
      <trkpt lat="45.87631" lon="4.17543">
        <ele>508.425</ele>
        <time>2018-12-03T13:13:12Z</time>
      </trkpt>
      <trkpt lat="45.87631" lon="4.17543">
        <ele>508.358</ele>
        <time>2018-12-03T13:13:18Z</time>
      </trkpt>
      <trkpt lat="45.87631" lon="4.17543">
        <ele>508.414</ele>
        <time>2018-12-03T13:13:23Z</time>
      </trkpt>
      <trkpt lat="45.87631" lon="4.17543">
        <ele>508.461</ele>
        <time>2018-12-03T13:13:29Z</time>
      </trkpt>
      <trkpt lat="45.87631" lon="4.17543">
        <ele>508.606</ele>
        <time>2018-12-03T13:13:35Z</time>
      </trkpt>
      <trkpt lat="45.87633" lon="4.17544">
        <ele>509.209</ele>
        <time>2018-12-03T13:13:41Z</time>
      </trkpt>
      <trkpt lat="45.87633" lon="4.17544">
        <ele>509.216</ele>
        <time>2018-12-03T13:13:46Z</time>
      </trkpt>
      <trkpt lat="45.87633" lon="4.17544">
        <ele>509.138</ele>
        <time>2018-12-03T13:13:52Z</time>
      </trkpt>
      <trkpt lat="45.87633" lon="4.17544">
        <ele>509.135</ele>
        <time>2018-12-03T13:13:57Z</time>
      </trkpt>
      <trkpt lat="45.87633" lon="4.17544">
        <ele>509.75</ele>
        <time>2018-12-03T13:14:03Z</time>
      </trkpt>
      <trkpt lat="45.87633" lon="4.17544">
        <ele>509.974</ele>
        <time>2018-12-03T13:14:08Z</time>
      </trkpt>
      <trkpt lat="45.87635" lon="4.17545">
        <ele>511.128</ele>
        <time>2018-12-03T13:14:14Z</time>
      </trkpt>
      <trkpt lat="45.87635" lon="4.17545">
        <ele>511.353</ele>
        <time>2018-12-03T13:14:20Z</time>
      </trkpt>
      <trkpt lat="45.87638" lon="4.17547">
        <ele>510.9</ele>
        <time>2018-12-03T13:14:26Z</time>
      </trkpt>
      <trkpt lat="45.87641" lon="4.17548">
        <ele>511.149</ele>
        <time>2018-12-03T13:14:31Z</time>
      </trkpt>
      <trkpt lat="45.87647" lon="4.1755">
        <ele>511.608</ele>
        <time>2018-12-03T13:14:37Z</time>
      </trkpt>
      <trkpt lat="45.87651" lon="4.17552">
        <ele>511.481</ele>
        <time>2018-12-03T13:14:43Z</time>
      </trkpt>
      <trkpt lat="45.87657" lon="4.17556">
        <ele>510.987</ele>
        <time>2018-12-03T13:14:49Z</time>
      </trkpt>
      <trkpt lat="45.87661" lon="4.17558">
        <ele>510.509</ele>
        <time>2018-12-03T13:14:54Z</time>
      </trkpt>
      <trkpt lat="45.87667" lon="4.17561">
        <ele>510.114</ele>
        <time>2018-12-03T13:15:00Z</time>
      </trkpt>
      <trkpt lat="45.87673" lon="4.17561">
        <ele>509.797</ele>
        <time>2018-12-03T13:15:05Z</time>
      </trkpt>
      <trkpt lat="45.87679" lon="4.17564">
        <ele>509.209</ele>
        <time>2018-12-03T13:15:11Z</time>
      </trkpt>
      <trkpt lat="45.87685" lon="4.17568">
        <ele>509.198</ele>
        <time>2018-12-03T13:15:16Z</time>
      </trkpt>
      <trkpt lat="45.87691" lon="4.17568">
        <ele>509.35</ele>
        <time>2018-12-03T13:15:22Z</time>
      </trkpt>
      <trkpt lat="45.87697" lon="4.17572">
        <ele>510.183</ele>
        <time>2018-12-03T13:15:28Z</time>
      </trkpt>
      <trkpt lat="45.87704" lon="4.17572">
        <ele>511.184</ele>
        <time>2018-12-03T13:15:34Z</time>
      </trkpt>
      <trkpt lat="45.87708" lon="4.17577">
        <ele>511.154</ele>
        <time>2018-12-03T13:15:40Z</time>
      </trkpt>
      <trkpt lat="45.87711" lon="4.17575">
        <ele>511.349</ele>
        <time>2018-12-03T13:15:45Z</time>
      </trkpt>
      <trkpt lat="45.87716" lon="4.17578">
        <ele>512.098</ele>
        <time>2018-12-03T13:15:51Z</time>
      </trkpt>
      <trkpt lat="45.87721" lon="4.17582">
        <ele>512.68</ele>
        <time>2018-12-03T13:15:56Z</time>
      </trkpt>
      <trkpt lat="45.87728" lon="4.17585">
        <ele>512.64</ele>
        <time>2018-12-03T13:16:02Z</time>
      </trkpt>
      <trkpt lat="45.87734" lon="4.17587">
        <ele>511.9</ele>
        <time>2018-12-03T13:16:08Z</time>
      </trkpt>
      <trkpt lat="45.8774" lon="4.17589">
        <ele>511.391</ele>
        <time>2018-12-03T13:16:14Z</time>
      </trkpt>
      <trkpt lat="45.87747" lon="4.17589">
        <ele>510.675</ele>
        <time>2018-12-03T13:16:20Z</time>
      </trkpt>
      <trkpt lat="45.87752" lon="4.17589">
        <ele>510.475</ele>
        <time>2018-12-03T13:16:25Z</time>
      </trkpt>
      <trkpt lat="45.87758" lon="4.17593">
        <ele>510.59</ele>
        <time>2018-12-03T13:16:31Z</time>
      </trkpt>
      <trkpt lat="45.87765" lon="4.17595">
        <ele>510.992</ele>
        <time>2018-12-03T13:16:37Z</time>
      </trkpt>
      <trkpt lat="45.87771" lon="4.17595">
        <ele>511.183</ele>
        <time>2018-12-03T13:16:42Z</time>
      </trkpt>
      <trkpt lat="45.87779" lon="4.17596">
        <ele>511.658</ele>
        <time>2018-12-03T13:16:48Z</time>
      </trkpt>
      <trkpt lat="45.87784" lon="4.17599">
        <ele>511.768</ele>
        <time>2018-12-03T13:16:54Z</time>
      </trkpt>
      <trkpt lat="45.87789" lon="4.176">
        <ele>511.681</ele>
        <time>2018-12-03T13:16:59Z</time>
      </trkpt>
      <trkpt lat="45.87795" lon="4.17602">
        <ele>511.488</ele>
        <time>2018-12-03T13:17:05Z</time>
      </trkpt>
      <trkpt lat="45.87802" lon="4.17605">
        <ele>510.997</ele>
        <time>2018-12-03T13:17:11Z</time>
      </trkpt>
      <trkpt lat="45.87806" lon="4.17608">
        <ele>510.533</ele>
        <time>2018-12-03T13:17:16Z</time>
      </trkpt>
      <trkpt lat="45.87813" lon="4.1761">
        <ele>511.019</ele>
        <time>2018-12-03T13:17:21Z</time>
      </trkpt>
      <trkpt lat="45.87819" lon="4.17612">
        <ele>511.687</ele>
        <time>2018-12-03T13:17:27Z</time>
      </trkpt>
      <trkpt lat="45.87824" lon="4.17613">
        <ele>511.786</ele>
        <time>2018-12-03T13:17:33Z</time>
      </trkpt>
      <trkpt lat="45.87831" lon="4.17616">
        <ele>511.378</ele>
        <time>2018-12-03T13:17:39Z</time>
      </trkpt>
      <trkpt lat="45.87835" lon="4.17618">
        <ele>511.099</ele>
        <time>2018-12-03T13:17:45Z</time>
      </trkpt>
      <trkpt lat="45.87836" lon="4.17619">
        <ele>511.009</ele>
        <time>2018-12-03T13:17:51Z</time>
      </trkpt>
      <trkpt lat="45.87838" lon="4.17621">
        <ele>511.011</ele>
        <time>2018-12-03T13:17:57Z</time>
      </trkpt>
      <trkpt lat="45.87841" lon="4.17623">
        <ele>511.093</ele>
        <time>2018-12-03T13:18:03Z</time>
      </trkpt>
      <trkpt lat="45.87845" lon="4.17627">
        <ele>510.744</ele>
        <time>2018-12-03T13:18:08Z</time>
      </trkpt>
      <trkpt lat="45.87848" lon="4.1763">
        <ele>509.95</ele>
        <time>2018-12-03T13:18:14Z</time>
      </trkpt>
      <trkpt lat="45.8785" lon="4.17635">
        <ele>509.484</ele>
        <time>2018-12-03T13:18:19Z</time>
      </trkpt>
      <trkpt lat="45.87852" lon="4.17641">
        <ele>509.469</ele>
        <time>2018-12-03T13:18:25Z</time>
      </trkpt>
      <trkpt lat="45.87855" lon="4.17645">
        <ele>509.298</ele>
        <time>2018-12-03T13:18:31Z</time>
      </trkpt>
      <trkpt lat="45.87858" lon="4.17648">
        <ele>509.168</ele>
        <time>2018-12-03T13:18:37Z</time>
      </trkpt>
      <trkpt lat="45.87863" lon="4.17651">
        <ele>509.058</ele>
        <time>2018-12-03T13:18:42Z</time>
      </trkpt>
      <trkpt lat="45.87869" lon="4.17653">
        <ele>509.178</ele>
        <time>2018-12-03T13:18:48Z</time>
      </trkpt>
      <trkpt lat="45.87873" lon="4.17657">
        <ele>509.26</ele>
        <time>2018-12-03T13:18:54Z</time>
      </trkpt>
      <trkpt lat="45.87877" lon="4.17659">
        <ele>509.159</ele>
        <time>2018-12-03T13:18:59Z</time>
      </trkpt>
      <trkpt lat="45.87881" lon="4.17663">
        <ele>508.755</ele>
        <time>2018-12-03T13:19:05Z</time>
      </trkpt>
      <trkpt lat="45.87888" lon="4.17665">
        <ele>508.145</ele>
        <time>2018-12-03T13:19:10Z</time>
      </trkpt>
      <trkpt lat="45.8789" lon="4.17667">
        <ele>507.659</ele>
        <time>2018-12-03T13:19:15Z</time>
      </trkpt>
      <trkpt lat="45.87897" lon="4.1767">
        <ele>507.191</ele>
        <time>2018-12-03T13:19:20Z</time>
      </trkpt>
      <trkpt lat="45.87902" lon="4.17676">
        <ele>506.232</ele>
        <time>2018-12-03T13:19:26Z</time>
      </trkpt>
      <trkpt lat="45.87908" lon="4.1768">
        <ele>505.823</ele>
        <time>2018-12-03T13:19:32Z</time>
      </trkpt>
      <trkpt lat="45.87913" lon="4.17684">
        <ele>505.393</ele>
        <time>2018-12-03T13:19:38Z</time>
      </trkpt>
      <trkpt lat="45.87916" lon="4.17687">
        <ele>505.231</ele>
        <time>2018-12-03T13:19:43Z</time>
      </trkpt>
      <trkpt lat="45.87922" lon="4.17692">
        <ele>505.089</ele>
        <time>2018-12-03T13:19:49Z</time>
      </trkpt>
      <trkpt lat="45.87929" lon="4.17694">
        <ele>504.735</ele>
        <time>2018-12-03T13:19:55Z</time>
      </trkpt>
      <trkpt lat="45.87933" lon="4.17693">
        <ele>504.415</ele>
        <time>2018-12-03T13:20:00Z</time>
      </trkpt>
      <trkpt lat="45.87939" lon="4.17687">
        <ele>504.62</ele>
        <time>2018-12-03T13:20:06Z</time>
      </trkpt>
      <trkpt lat="45.87945" lon="4.1768">
        <ele>505.174</ele>
        <time>2018-12-03T13:20:11Z</time>
      </trkpt>
      <trkpt lat="45.87951" lon="4.17673">
        <ele>505.942</ele>
        <time>2018-12-03T13:20:17Z</time>
      </trkpt>
      <trkpt lat="45.87956" lon="4.17672">
        <ele>506.869</ele>
        <time>2018-12-03T13:20:23Z</time>
      </trkpt>
      <trkpt lat="45.87959" lon="4.17675">
        <ele>507.952</ele>
        <time>2018-12-03T13:20:29Z</time>
      </trkpt>
      <trkpt lat="45.87964" lon="4.17677">
        <ele>509.101</ele>
        <time>2018-12-03T13:20:35Z</time>
      </trkpt>
      <trkpt lat="45.87967" lon="4.17679">
        <ele>509.89</ele>
        <time>2018-12-03T13:20:41Z</time>
      </trkpt>
      <trkpt lat="45.87973" lon="4.17681">
        <ele>511.098</ele>
        <time>2018-12-03T13:20:47Z</time>
      </trkpt>
      <trkpt lat="45.87979" lon="4.17683">
        <ele>511.863</ele>
        <time>2018-12-03T13:20:53Z</time>
      </trkpt>
      <trkpt lat="45.87984" lon="4.17684">
        <ele>512.232</ele>
        <time>2018-12-03T13:20:58Z</time>
      </trkpt>
      <trkpt lat="45.87991" lon="4.17689">
        <ele>513.198</ele>
        <time>2018-12-03T13:21:04Z</time>
      </trkpt>
      <trkpt lat="45.87996" lon="4.17691">
        <ele>513.66</ele>
        <time>2018-12-03T13:21:09Z</time>
      </trkpt>
      <trkpt lat="45.88002" lon="4.17695">
        <ele>514.512</ele>
        <time>2018-12-03T13:21:15Z</time>
      </trkpt>
      <trkpt lat="45.88007" lon="4.17697">
        <ele>515.119</ele>
        <time>2018-12-03T13:21:21Z</time>
      </trkpt>
      <trkpt lat="45.88013" lon="4.177">
        <ele>515.777</ele>
        <time>2018-12-03T13:21:27Z</time>
      </trkpt>
      <trkpt lat="45.88018" lon="4.17704">
        <ele>516.085</ele>
        <time>2018-12-03T13:21:33Z</time>
      </trkpt>
      <trkpt lat="45.88022" lon="4.17706">
        <ele>516.186</ele>
        <time>2018-12-03T13:21:38Z</time>
      </trkpt>
      <trkpt lat="45.88028" lon="4.17708">
        <ele>515.671</ele>
        <time>2018-12-03T13:21:44Z</time>
      </trkpt>
      <trkpt lat="45.88033" lon="4.17711">
        <ele>515.613</ele>
        <time>2018-12-03T13:21:50Z</time>
      </trkpt>
      <trkpt lat="45.88039" lon="4.17711">
        <ele>515.622</ele>
        <time>2018-12-03T13:21:55Z</time>
      </trkpt>
      <trkpt lat="45.88045" lon="4.17714">
        <ele>515.559</ele>
        <time>2018-12-03T13:22:01Z</time>
      </trkpt>
      <trkpt lat="45.88053" lon="4.17717">
        <ele>515.213</ele>
        <time>2018-12-03T13:22:07Z</time>
      </trkpt>
      <trkpt lat="45.88057" lon="4.1772">
        <ele>514.881</ele>
        <time>2018-12-03T13:22:13Z</time>
      </trkpt>
      <trkpt lat="45.88061" lon="4.17723">
        <ele>515.039</ele>
        <time>2018-12-03T13:22:18Z</time>
      </trkpt>
      <trkpt lat="45.8807" lon="4.17725">
        <ele>515.117</ele>
        <time>2018-12-03T13:22:24Z</time>
      </trkpt>
      <trkpt lat="45.88076" lon="4.17728">
        <ele>515.401</ele>
        <time>2018-12-03T13:22:29Z</time>
      </trkpt>
      <trkpt lat="45.8808" lon="4.17731">
        <ele>515.07</ele>
        <time>2018-12-03T13:22:35Z</time>
      </trkpt>
      <trkpt lat="45.88085" lon="4.17732">
        <ele>514.717</ele>
        <time>2018-12-03T13:22:41Z</time>
      </trkpt>
      <trkpt lat="45.88094" lon="4.17736">
        <ele>514.615</ele>
        <time>2018-12-03T13:22:47Z</time>
      </trkpt>
      <trkpt lat="45.88101" lon="4.17738">
        <ele>515.124</ele>
        <time>2018-12-03T13:22:53Z</time>
      </trkpt>
      <trkpt lat="45.88104" lon="4.17739">
        <ele>514.989</ele>
        <time>2018-12-03T13:22:58Z</time>
      </trkpt>
      <trkpt lat="45.8811" lon="4.17741">
        <ele>515.015</ele>
        <time>2018-12-03T13:23:04Z</time>
      </trkpt>
      <trkpt lat="45.88116" lon="4.17745">
        <ele>515.024</ele>
        <time>2018-12-03T13:23:09Z</time>
      </trkpt>
      <trkpt lat="45.88119" lon="4.17747">
        <ele>515.252</ele>
        <time>2018-12-03T13:23:14Z</time>
      </trkpt>
      <trkpt lat="45.88125" lon="4.17746">
        <ele>515.161</ele>
        <time>2018-12-03T13:23:19Z</time>
      </trkpt>
      <trkpt lat="45.8813" lon="4.17749">
        <ele>515.408</ele>
        <time>2018-12-03T13:23:25Z</time>
      </trkpt>
      <trkpt lat="45.88137" lon="4.17751">
        <ele>515.232</ele>
        <time>2018-12-03T13:23:31Z</time>
      </trkpt>
      <trkpt lat="45.88144" lon="4.17754">
        <ele>514.772</ele>
        <time>2018-12-03T13:23:36Z</time>
      </trkpt>
      <trkpt lat="45.88148" lon="4.17754">
        <ele>515.205</ele>
        <time>2018-12-03T13:23:42Z</time>
      </trkpt>
      <trkpt lat="45.88153" lon="4.17755">
        <ele>515.204</ele>
        <time>2018-12-03T13:23:47Z</time>
      </trkpt>
      <trkpt lat="45.88158" lon="4.17757">
        <ele>514.805</ele>
        <time>2018-12-03T13:23:53Z</time>
      </trkpt>
      <trkpt lat="45.88164" lon="4.17759">
        <ele>514.376</ele>
        <time>2018-12-03T13:23:59Z</time>
      </trkpt>
      <trkpt lat="45.8817" lon="4.1776">
        <ele>514.114</ele>
        <time>2018-12-03T13:24:05Z</time>
      </trkpt>
      <trkpt lat="45.88177" lon="4.17761">
        <ele>514.283</ele>
        <time>2018-12-03T13:24:11Z</time>
      </trkpt>
      <trkpt lat="45.88183" lon="4.17764">
        <ele>514.542</ele>
        <time>2018-12-03T13:24:16Z</time>
      </trkpt>
      <trkpt lat="45.88187" lon="4.17766">
        <ele>514.443</ele>
        <time>2018-12-03T13:24:22Z</time>
      </trkpt>
      <trkpt lat="45.88192" lon="4.17767">
        <ele>514.728</ele>
        <time>2018-12-03T13:24:27Z</time>
      </trkpt>
      <trkpt lat="45.882" lon="4.17769">
        <ele>515.473</ele>
        <time>2018-12-03T13:24:33Z</time>
      </trkpt>
      <trkpt lat="45.88205" lon="4.17771">
        <ele>515.619</ele>
        <time>2018-12-03T13:24:39Z</time>
      </trkpt>
      <trkpt lat="45.8821" lon="4.17771">
        <ele>516.009</ele>
        <time>2018-12-03T13:24:44Z</time>
      </trkpt>
      <trkpt lat="45.88216" lon="4.17773">
        <ele>516.352</ele>
        <time>2018-12-03T13:24:50Z</time>
      </trkpt>
      <trkpt lat="45.88221" lon="4.17775">
        <ele>517.471</ele>
        <time>2018-12-03T13:24:55Z</time>
      </trkpt>
      <trkpt lat="45.88227" lon="4.17777">
        <ele>518.029</ele>
        <time>2018-12-03T13:25:01Z</time>
      </trkpt>
      <trkpt lat="45.88232" lon="4.17781">
        <ele>517.688</ele>
        <time>2018-12-03T13:25:07Z</time>
      </trkpt>
      <trkpt lat="45.88238" lon="4.17784">
        <ele>517.174</ele>
        <time>2018-12-03T13:25:13Z</time>
      </trkpt>
      <trkpt lat="45.88243" lon="4.17788">
        <ele>517.346</ele>
        <time>2018-12-03T13:25:20Z</time>
      </trkpt>
      <trkpt lat="45.88248" lon="4.17793">
        <ele>517.224</ele>
        <time>2018-12-03T13:25:25Z</time>
      </trkpt>
      <trkpt lat="45.88252" lon="4.17796">
        <ele>517.264</ele>
        <time>2018-12-03T13:25:30Z</time>
      </trkpt>
      <trkpt lat="45.88258" lon="4.17799">
        <ele>517.526</ele>
        <time>2018-12-03T13:25:35Z</time>
      </trkpt>
      <trkpt lat="45.88264" lon="4.17802">
        <ele>517.837</ele>
        <time>2018-12-03T13:25:41Z</time>
      </trkpt>
      <trkpt lat="45.8827" lon="4.17805">
        <ele>517.954</ele>
        <time>2018-12-03T13:25:47Z</time>
      </trkpt>
      <trkpt lat="45.88276" lon="4.17808">
        <ele>518.235</ele>
        <time>2018-12-03T13:25:52Z</time>
      </trkpt>
      <trkpt lat="45.88281" lon="4.1781">
        <ele>518.705</ele>
        <time>2018-12-03T13:25:58Z</time>
      </trkpt>
      <trkpt lat="45.88286" lon="4.17813">
        <ele>518.681</ele>
        <time>2018-12-03T13:26:03Z</time>
      </trkpt>
      <trkpt lat="45.88291" lon="4.17817">
        <ele>518.828</ele>
        <time>2018-12-03T13:26:09Z</time>
      </trkpt>
      <trkpt lat="45.88295" lon="4.17818">
        <ele>518.815</ele>
        <time>2018-12-03T13:26:14Z</time>
      </trkpt>
      <trkpt lat="45.883" lon="4.17822">
        <ele>518.853</ele>
        <time>2018-12-03T13:26:20Z</time>
      </trkpt>
      <trkpt lat="45.88307" lon="4.17826">
        <ele>519.234</ele>
        <time>2018-12-03T13:26:25Z</time>
      </trkpt>
      <trkpt lat="45.88313" lon="4.17831">
        <ele>519.257</ele>
        <time>2018-12-03T13:26:31Z</time>
      </trkpt>
      <trkpt lat="45.88317" lon="4.17834">
        <ele>519.449</ele>
        <time>2018-12-03T13:26:37Z</time>
      </trkpt>
      <trkpt lat="45.88324" lon="4.17837">
        <ele>519.413</ele>
        <time>2018-12-03T13:26:42Z</time>
      </trkpt>
      <trkpt lat="45.88329" lon="4.17838">
        <ele>519.511</ele>
        <time>2018-12-03T13:26:47Z</time>
      </trkpt>
      <trkpt lat="45.88336" lon="4.17837">
        <ele>519.685</ele>
        <time>2018-12-03T13:26:53Z</time>
      </trkpt>
      <trkpt lat="45.88339" lon="4.17837">
        <ele>519.803</ele>
        <time>2018-12-03T13:26:58Z</time>
      </trkpt>
      <trkpt lat="45.88344" lon="4.17839">
        <ele>520.053</ele>
        <time>2018-12-03T13:27:04Z</time>
      </trkpt>
      <trkpt lat="45.88349" lon="4.17843">
        <ele>519.991</ele>
        <time>2018-12-03T13:27:10Z</time>
      </trkpt>
      <trkpt lat="45.88353" lon="4.17845">
        <ele>519.828</ele>
        <time>2018-12-03T13:27:16Z</time>
      </trkpt>
      <trkpt lat="45.88359" lon="4.17845">
        <ele>520.289</ele>
        <time>2018-12-03T13:27:21Z</time>
      </trkpt>
      <trkpt lat="45.88364" lon="4.17847">
        <ele>520.712</ele>
        <time>2018-12-03T13:27:27Z</time>
      </trkpt>
      <trkpt lat="45.88369" lon="4.17848">
        <ele>520.758</ele>
        <time>2018-12-03T13:27:33Z</time>
      </trkpt>
      <trkpt lat="45.88375" lon="4.1785">
        <ele>521.54</ele>
        <time>2018-12-03T13:27:39Z</time>
      </trkpt>
      <trkpt lat="45.88379" lon="4.17854">
        <ele>522.486</ele>
        <time>2018-12-03T13:27:44Z</time>
      </trkpt>
      <trkpt lat="45.88384" lon="4.17861">
        <ele>523.748</ele>
        <time>2018-12-03T13:27:50Z</time>
      </trkpt>
      <trkpt lat="45.88387" lon="4.17866">
        <ele>524.691</ele>
        <time>2018-12-03T13:27:55Z</time>
      </trkpt>
      <trkpt lat="45.88393" lon="4.17873">
        <ele>525.69</ele>
        <time>2018-12-03T13:28:01Z</time>
      </trkpt>
      <trkpt lat="45.88396" lon="4.17876">
        <ele>526.504</ele>
        <time>2018-12-03T13:28:06Z</time>
      </trkpt>
      <trkpt lat="45.884" lon="4.17881">
        <ele>527.23</ele>
        <time>2018-12-03T13:28:12Z</time>
      </trkpt>
      <trkpt lat="45.88404" lon="4.17886">
        <ele>527.646</ele>
        <time>2018-12-03T13:28:17Z</time>
      </trkpt>
      <trkpt lat="45.88406" lon="4.17892">
        <ele>528.47</ele>
        <time>2018-12-03T13:28:22Z</time>
      </trkpt>
      <trkpt lat="45.88408" lon="4.17897">
        <ele>529.183</ele>
        <time>2018-12-03T13:28:28Z</time>
      </trkpt>
      <trkpt lat="45.88407" lon="4.179">
        <ele>529.431</ele>
        <time>2018-12-03T13:28:33Z</time>
      </trkpt>
      <trkpt lat="45.88406" lon="4.17912">
        <ele>529.284</ele>
        <time>2018-12-03T13:28:40Z</time>
      </trkpt>
      <trkpt lat="45.88404" lon="4.17918">
        <ele>529.078</ele>
        <time>2018-12-03T13:28:45Z</time>
      </trkpt>
      <trkpt lat="45.88404" lon="4.17916">
        <ele>528.926</ele>
        <time>2018-12-03T13:28:51Z</time>
      </trkpt>
      <trkpt lat="45.88399" lon="4.17923">
        <ele>527.814</ele>
        <time>2018-12-03T13:28:57Z</time>
      </trkpt>
      <trkpt lat="45.88394" lon="4.17926">
        <ele>527.319</ele>
        <time>2018-12-03T13:29:02Z</time>
      </trkpt>
      <trkpt lat="45.8839" lon="4.17931">
        <ele>526.945</ele>
        <time>2018-12-03T13:29:08Z</time>
      </trkpt>
      <trkpt lat="45.88383" lon="4.17935">
        <ele>526.13</ele>
        <time>2018-12-03T13:29:13Z</time>
      </trkpt>
      <trkpt lat="45.88376" lon="4.17937">
        <ele>524.733</ele>
        <time>2018-12-03T13:29:19Z</time>
      </trkpt>
      <trkpt lat="45.88373" lon="4.17939">
        <ele>523.278</ele>
        <time>2018-12-03T13:29:25Z</time>
      </trkpt>
      <trkpt lat="45.88371" lon="4.1794">
        <ele>522.144</ele>
        <time>2018-12-03T13:29:30Z</time>
      </trkpt>
      <trkpt lat="45.88373" lon="4.17943">
        <ele>520.857</ele>
        <time>2018-12-03T13:29:36Z</time>
      </trkpt>
      <trkpt lat="45.88377" lon="4.17944">
        <ele>519.598</ele>
        <time>2018-12-03T13:29:42Z</time>
      </trkpt>
      <trkpt lat="45.88382" lon="4.17946">
        <ele>518.374</ele>
        <time>2018-12-03T13:29:47Z</time>
      </trkpt>
      <trkpt lat="45.88387" lon="4.17947">
        <ele>516.956</ele>
        <time>2018-12-03T13:29:53Z</time>
      </trkpt>
      <trkpt lat="45.88391" lon="4.17946">
        <ele>516.302</ele>
        <time>2018-12-03T13:29:58Z</time>
      </trkpt>
      <trkpt lat="45.88398" lon="4.17948">
        <ele>516.135</ele>
        <time>2018-12-03T13:30:04Z</time>
      </trkpt>
      <trkpt lat="45.88404" lon="4.17949">
        <ele>516.055</ele>
        <time>2018-12-03T13:30:09Z</time>
      </trkpt>
      <trkpt lat="45.88407" lon="4.17951">
        <ele>515.743</ele>
        <time>2018-12-03T13:30:15Z</time>
      </trkpt>
      <trkpt lat="45.88414" lon="4.17952">
        <ele>515.746</ele>
        <time>2018-12-03T13:30:20Z</time>
      </trkpt>
      <trkpt lat="45.88419" lon="4.17954">
        <ele>515.557</ele>
        <time>2018-12-03T13:30:26Z</time>
      </trkpt>
      <trkpt lat="45.88423" lon="4.17955">
        <ele>515.21</ele>
        <time>2018-12-03T13:30:31Z</time>
      </trkpt>
      <trkpt lat="45.88429" lon="4.17956">
        <ele>514.962</ele>
        <time>2018-12-03T13:30:37Z</time>
      </trkpt>
      <trkpt lat="45.88433" lon="4.17957">
        <ele>515.291</ele>
        <time>2018-12-03T13:30:43Z</time>
      </trkpt>
      <trkpt lat="45.88438" lon="4.17959">
        <ele>515.406</ele>
        <time>2018-12-03T13:30:49Z</time>
      </trkpt>
      <trkpt lat="45.88442" lon="4.17959">
        <ele>515.653</ele>
        <time>2018-12-03T13:30:54Z</time>
      </trkpt>
      <trkpt lat="45.88445" lon="4.1796">
        <ele>515.877</ele>
        <time>2018-12-03T13:30:59Z</time>
      </trkpt>
      <trkpt lat="45.88451" lon="4.17962">
        <ele>516.37</ele>
        <time>2018-12-03T13:31:05Z</time>
      </trkpt>
      <trkpt lat="45.88455" lon="4.17963">
        <ele>516.607</ele>
        <time>2018-12-03T13:31:10Z</time>
      </trkpt>
      <trkpt lat="45.88459" lon="4.17962">
        <ele>516.794</ele>
        <time>2018-12-03T13:31:16Z</time>
      </trkpt>
      <trkpt lat="45.88464" lon="4.17962">
        <ele>517.201</ele>
        <time>2018-12-03T13:31:21Z</time>
      </trkpt>
      <trkpt lat="45.88469" lon="4.17964">
        <ele>517.396</ele>
        <time>2018-12-03T13:31:27Z</time>
      </trkpt>
      <trkpt lat="45.88473" lon="4.17966">
        <ele>517.511</ele>
        <time>2018-12-03T13:31:32Z</time>
      </trkpt>
      <trkpt lat="45.88479" lon="4.17966">
        <ele>517.758</ele>
        <time>2018-12-03T13:31:37Z</time>
      </trkpt>
      <trkpt lat="45.88484" lon="4.17966">
        <ele>518.076</ele>
        <time>2018-12-03T13:31:43Z</time>
      </trkpt>
      <trkpt lat="45.88488" lon="4.17966">
        <ele>518.689</ele>
        <time>2018-12-03T13:31:48Z</time>
      </trkpt>
      <trkpt lat="45.88493" lon="4.17966">
        <ele>519.306</ele>
        <time>2018-12-03T13:31:54Z</time>
      </trkpt>
      <trkpt lat="45.88496" lon="4.17967">
        <ele>520.241</ele>
        <time>2018-12-03T13:31:59Z</time>
      </trkpt>
      <trkpt lat="45.88505" lon="4.1797">
        <ele>521.205</ele>
        <time>2018-12-03T13:32:05Z</time>
      </trkpt>
      <trkpt lat="45.8851" lon="4.17972">
        <ele>521.839</ele>
        <time>2018-12-03T13:32:10Z</time>
      </trkpt>
      <trkpt lat="45.88513" lon="4.17974">
        <ele>522.324</ele>
        <time>2018-12-03T13:32:16Z</time>
      </trkpt>
      <trkpt lat="45.88519" lon="4.17975">
        <ele>522.612</ele>
        <time>2018-12-03T13:32:21Z</time>
      </trkpt>
      <trkpt lat="45.88524" lon="4.17975">
        <ele>523.238</ele>
        <time>2018-12-03T13:32:27Z</time>
      </trkpt>
      <trkpt lat="45.8853" lon="4.17977">
        <ele>523.768</ele>
        <time>2018-12-03T13:32:33Z</time>
      </trkpt>
      <trkpt lat="45.88533" lon="4.17977">
        <ele>524.6</ele>
        <time>2018-12-03T13:32:39Z</time>
      </trkpt>
      <trkpt lat="45.88539" lon="4.17978">
        <ele>525.344</ele>
        <time>2018-12-03T13:32:44Z</time>
      </trkpt>
      <trkpt lat="45.88544" lon="4.1798">
        <ele>526.009</ele>
        <time>2018-12-03T13:32:49Z</time>
      </trkpt>
      <trkpt lat="45.88548" lon="4.17982">
        <ele>526.193</ele>
        <time>2018-12-03T13:32:55Z</time>
      </trkpt>
      <trkpt lat="45.88553" lon="4.17984">
        <ele>526.749</ele>
        <time>2018-12-03T13:33:01Z</time>
      </trkpt>
      <trkpt lat="45.88559" lon="4.17986">
        <ele>527.375</ele>
        <time>2018-12-03T13:33:06Z</time>
      </trkpt>
      <trkpt lat="45.88564" lon="4.17987">
        <ele>527.975</ele>
        <time>2018-12-03T13:33:12Z</time>
      </trkpt>
      <trkpt lat="45.88572" lon="4.17988">
        <ele>528.533</ele>
        <time>2018-12-03T13:33:17Z</time>
      </trkpt>
      <trkpt lat="45.88576" lon="4.17989">
        <ele>528.655</ele>
        <time>2018-12-03T13:33:22Z</time>
      </trkpt>
      <trkpt lat="45.8858" lon="4.17991">
        <ele>528.945</ele>
        <time>2018-12-03T13:33:27Z</time>
      </trkpt>
      <trkpt lat="45.88584" lon="4.17992">
        <ele>529.066</ele>
        <time>2018-12-03T13:33:33Z</time>
      </trkpt>
      <trkpt lat="45.88588" lon="4.17993">
        <ele>529.607</ele>
        <time>2018-12-03T13:33:39Z</time>
      </trkpt>
      <trkpt lat="45.88595" lon="4.17995">
        <ele>529.899</ele>
        <time>2018-12-03T13:33:44Z</time>
      </trkpt>
      <trkpt lat="45.886" lon="4.17996">
        <ele>530.033</ele>
        <time>2018-12-03T13:33:50Z</time>
      </trkpt>
      <trkpt lat="45.88606" lon="4.17999">
        <ele>530.258</ele>
        <time>2018-12-03T13:33:56Z</time>
      </trkpt>
      <trkpt lat="45.88612" lon="4.18001">
        <ele>530.853</ele>
        <time>2018-12-03T13:34:02Z</time>
      </trkpt>
      <trkpt lat="45.88616" lon="4.18004">
        <ele>531.407</ele>
        <time>2018-12-03T13:34:07Z</time>
      </trkpt>
      <trkpt lat="45.88616" lon="4.18006">
        <ele>531.696</ele>
        <time>2018-12-03T13:34:13Z</time>
      </trkpt>
      <trkpt lat="45.88617" lon="4.18005">
        <ele>531.96</ele>
        <time>2018-12-03T13:34:18Z</time>
      </trkpt>
      <trkpt lat="45.88616" lon="4.18003">
        <ele>532.289</ele>
        <time>2018-12-03T13:34:24Z</time>
      </trkpt>
      <trkpt lat="45.88618" lon="4.18003">
        <ele>532.43</ele>
        <time>2018-12-03T13:34:29Z</time>
      </trkpt>
      <trkpt lat="45.88624" lon="4.18004">
        <ele>532.47</ele>
        <time>2018-12-03T13:34:36Z</time>
      </trkpt>
      <trkpt lat="45.88628" lon="4.18005">
        <ele>532.25</ele>
        <time>2018-12-03T13:34:41Z</time>
      </trkpt>
      <trkpt lat="45.88632" lon="4.18007">
        <ele>532.186</ele>
        <time>2018-12-03T13:34:46Z</time>
      </trkpt>
      <trkpt lat="45.88637" lon="4.18008">
        <ele>532.529</ele>
        <time>2018-12-03T13:34:52Z</time>
      </trkpt>
      <trkpt lat="45.88642" lon="4.18009">
        <ele>532.61</ele>
        <time>2018-12-03T13:34:58Z</time>
      </trkpt>
      <trkpt lat="45.88646" lon="4.1801">
        <ele>531.824</ele>
        <time>2018-12-03T13:35:03Z</time>
      </trkpt>
      <trkpt lat="45.8865" lon="4.18011">
        <ele>531.369</ele>
        <time>2018-12-03T13:35:08Z</time>
      </trkpt>
      <trkpt lat="45.88655" lon="4.18011">
        <ele>531.538</ele>
        <time>2018-12-03T13:35:13Z</time>
      </trkpt>
      <trkpt lat="45.88657" lon="4.18012">
        <ele>532.085</ele>
        <time>2018-12-03T13:35:19Z</time>
      </trkpt>
      <trkpt lat="45.88659" lon="4.1801">
        <ele>532.42</ele>
        <time>2018-12-03T13:35:25Z</time>
      </trkpt>
      <trkpt lat="45.88659" lon="4.18009">
        <ele>533.042</ele>
        <time>2018-12-03T13:35:30Z</time>
      </trkpt>
      <trkpt lat="45.88658" lon="4.18011">
        <ele>533.449</ele>
        <time>2018-12-03T13:35:37Z</time>
      </trkpt>
      <trkpt lat="45.88657" lon="4.18011">
        <ele>533.907</ele>
        <time>2018-12-03T13:35:43Z</time>
      </trkpt>
      <trkpt lat="45.88657" lon="4.18012">
        <ele>534.23</ele>
        <time>2018-12-03T13:35:49Z</time>
      </trkpt>
      <trkpt lat="45.88657" lon="4.18012">
        <ele>534.283</ele>
        <time>2018-12-03T13:35:55Z</time>
      </trkpt>
      <trkpt lat="45.88657" lon="4.18012">
        <ele>534.487</ele>
        <time>2018-12-03T13:36:00Z</time>
      </trkpt>
      <trkpt lat="45.88659" lon="4.18007">
        <ele>534.575</ele>
        <time>2018-12-03T13:36:06Z</time>
      </trkpt>
      <trkpt lat="45.8866" lon="4.18008">
        <ele>534.725</ele>
        <time>2018-12-03T13:36:12Z</time>
      </trkpt>
      <trkpt lat="45.88661" lon="4.1801">
        <ele>535.152</ele>
        <time>2018-12-03T13:36:17Z</time>
      </trkpt>
      <trkpt lat="45.8866" lon="4.18009">
        <ele>535.609</ele>
        <time>2018-12-03T13:36:22Z</time>
      </trkpt>
      <trkpt lat="45.8866" lon="4.18008">
        <ele>536.013</ele>
        <time>2018-12-03T13:36:27Z</time>
      </trkpt>
      <trkpt lat="45.8866" lon="4.1801">
        <ele>536.298</ele>
        <time>2018-12-03T13:36:33Z</time>
      </trkpt>
      <trkpt lat="45.88658" lon="4.1801">
        <ele>536.349</ele>
        <time>2018-12-03T13:36:38Z</time>
      </trkpt>
      <trkpt lat="45.8866" lon="4.18011">
        <ele>536.742</ele>
        <time>2018-12-03T13:36:43Z</time>
      </trkpt>
      <trkpt lat="45.88664" lon="4.18014">
        <ele>537.073</ele>
        <time>2018-12-03T13:36:49Z</time>
      </trkpt>
      <trkpt lat="45.88669" lon="4.18016">
        <ele>537.594</ele>
        <time>2018-12-03T13:36:54Z</time>
      </trkpt>
      <trkpt lat="45.88673" lon="4.18018">
        <ele>537.951</ele>
        <time>2018-12-03T13:37:00Z</time>
      </trkpt>
      <trkpt lat="45.88678" lon="4.18021">
        <ele>538.548</ele>
        <time>2018-12-03T13:37:05Z</time>
      </trkpt>
      <trkpt lat="45.88681" lon="4.18022">
        <ele>539.193</ele>
        <time>2018-12-03T13:37:11Z</time>
      </trkpt>
      <trkpt lat="45.88686" lon="4.18024">
        <ele>539.131</ele>
        <time>2018-12-03T13:37:17Z</time>
      </trkpt>
      <trkpt lat="45.88691" lon="4.18028">
        <ele>539.123</ele>
        <time>2018-12-03T13:37:23Z</time>
      </trkpt>
      <trkpt lat="45.88696" lon="4.18031">
        <ele>539.084</ele>
        <time>2018-12-03T13:37:28Z</time>
      </trkpt>
      <trkpt lat="45.88699" lon="4.18034">
        <ele>539.385</ele>
        <time>2018-12-03T13:37:34Z</time>
      </trkpt>
      <trkpt lat="45.88703" lon="4.18036">
        <ele>539.636</ele>
        <time>2018-12-03T13:37:39Z</time>
      </trkpt>
      <trkpt lat="45.88707" lon="4.18038">
        <ele>539.736</ele>
        <time>2018-12-03T13:37:44Z</time>
      </trkpt>
      <trkpt lat="45.88712" lon="4.18039">
        <ele>540.105</ele>
        <time>2018-12-03T13:37:50Z</time>
      </trkpt>
      <trkpt lat="45.88719" lon="4.18039">
        <ele>540.695</ele>
        <time>2018-12-03T13:37:55Z</time>
      </trkpt>
      <trkpt lat="45.88725" lon="4.18038">
        <ele>541.21</ele>
        <time>2018-12-03T13:38:00Z</time>
      </trkpt>
      <trkpt lat="45.88728" lon="4.18039">
        <ele>541.252</ele>
        <time>2018-12-03T13:38:06Z</time>
      </trkpt>
      <trkpt lat="45.88732" lon="4.1804">
        <ele>541.696</ele>
        <time>2018-12-03T13:38:11Z</time>
      </trkpt>
      <trkpt lat="45.88736" lon="4.1804">
        <ele>542.096</ele>
        <time>2018-12-03T13:38:16Z</time>
      </trkpt>
      <trkpt lat="45.88741" lon="4.18039">
        <ele>542.162</ele>
        <time>2018-12-03T13:38:22Z</time>
      </trkpt>
      <trkpt lat="45.88745" lon="4.18034">
        <ele>542.224</ele>
        <time>2018-12-03T13:38:27Z</time>
      </trkpt>
      <trkpt lat="45.88748" lon="4.18028">
        <ele>542.286</ele>
        <time>2018-12-03T13:38:32Z</time>
      </trkpt>
      <trkpt lat="45.88748" lon="4.1802">
        <ele>542.826</ele>
        <time>2018-12-03T13:38:38Z</time>
      </trkpt>
      <trkpt lat="45.8875" lon="4.18014">
        <ele>543.087</ele>
        <time>2018-12-03T13:38:43Z</time>
      </trkpt>
      <trkpt lat="45.88755" lon="4.18012">
        <ele>542.845</ele>
        <time>2018-12-03T13:38:49Z</time>
      </trkpt>
      <trkpt lat="45.8876" lon="4.18012">
        <ele>542.753</ele>
        <time>2018-12-03T13:38:54Z</time>
      </trkpt>
      <trkpt lat="45.88766" lon="4.18011">
        <ele>542.801</ele>
        <time>2018-12-03T13:38:59Z</time>
      </trkpt>
      <trkpt lat="45.88771" lon="4.18011">
        <ele>542.982</ele>
        <time>2018-12-03T13:39:05Z</time>
      </trkpt>
      <trkpt lat="45.88776" lon="4.1801">
        <ele>543.309</ele>
        <time>2018-12-03T13:39:11Z</time>
      </trkpt>
      <trkpt lat="45.88781" lon="4.1801">
        <ele>543.773</ele>
        <time>2018-12-03T13:39:16Z</time>
      </trkpt>
      <trkpt lat="45.88786" lon="4.1801">
        <ele>544.314</ele>
        <time>2018-12-03T13:39:22Z</time>
      </trkpt>
      <trkpt lat="45.88788" lon="4.18009">
        <ele>544.409</ele>
        <time>2018-12-03T13:39:27Z</time>
      </trkpt>
      <trkpt lat="45.88794" lon="4.18008">
        <ele>544.632</ele>
        <time>2018-12-03T13:39:33Z</time>
      </trkpt>
      <trkpt lat="45.88799" lon="4.18003">
        <ele>545.228</ele>
        <time>2018-12-03T13:39:39Z</time>
      </trkpt>
      <trkpt lat="45.88803" lon="4.18002">
        <ele>545.557</ele>
        <time>2018-12-03T13:39:44Z</time>
      </trkpt>
      <trkpt lat="45.88808" lon="4.18003">
        <ele>545.691</ele>
        <time>2018-12-03T13:39:50Z</time>
      </trkpt>
      <trkpt lat="45.88814" lon="4.18004">
        <ele>546.249</ele>
        <time>2018-12-03T13:39:56Z</time>
      </trkpt>
      <trkpt lat="45.8882" lon="4.18004">
        <ele>546.138</ele>
        <time>2018-12-03T13:40:01Z</time>
      </trkpt>
      <trkpt lat="45.88824" lon="4.18005">
        <ele>545.94</ele>
        <time>2018-12-03T13:40:06Z</time>
      </trkpt>
      <trkpt lat="45.8883" lon="4.18005">
        <ele>546.096</ele>
        <time>2018-12-03T13:40:12Z</time>
      </trkpt>
      <trkpt lat="45.88834" lon="4.18004">
        <ele>545.6</ele>
        <time>2018-12-03T13:40:18Z</time>
      </trkpt>
      <trkpt lat="45.88838" lon="4.18004">
        <ele>545.975</ele>
        <time>2018-12-03T13:40:24Z</time>
      </trkpt>
      <trkpt lat="45.88843" lon="4.18004">
        <ele>546.232</ele>
        <time>2018-12-03T13:40:30Z</time>
      </trkpt>
      <trkpt lat="45.88848" lon="4.18003">
        <ele>546.84</ele>
        <time>2018-12-03T13:40:35Z</time>
      </trkpt>
      <trkpt lat="45.88851" lon="4.18003">
        <ele>547.727</ele>
        <time>2018-12-03T13:40:41Z</time>
      </trkpt>
      <trkpt lat="45.88855" lon="4.18003">
        <ele>548.644</ele>
        <time>2018-12-03T13:40:47Z</time>
      </trkpt>
      <trkpt lat="45.88861" lon="4.18004">
        <ele>549.996</ele>
        <time>2018-12-03T13:40:53Z</time>
      </trkpt>
      <trkpt lat="45.88865" lon="4.18004">
        <ele>550.756</ele>
        <time>2018-12-03T13:40:58Z</time>
      </trkpt>
      <trkpt lat="45.88868" lon="4.18005">
        <ele>550.899</ele>
        <time>2018-12-03T13:41:04Z</time>
      </trkpt>
      <trkpt lat="45.88872" lon="4.18006">
        <ele>551.058</ele>
        <time>2018-12-03T13:41:10Z</time>
      </trkpt>
      <trkpt lat="45.88878" lon="4.18007">
        <ele>551.363</ele>
        <time>2018-12-03T13:41:16Z</time>
      </trkpt>
      <trkpt lat="45.88883" lon="4.18008">
        <ele>551.013</ele>
        <time>2018-12-03T13:41:22Z</time>
      </trkpt>
      <trkpt lat="45.88887" lon="4.18009">
        <ele>550.955</ele>
        <time>2018-12-03T13:41:28Z</time>
      </trkpt>
      <trkpt lat="45.88891" lon="4.1801">
        <ele>551.568</ele>
        <time>2018-12-03T13:41:34Z</time>
      </trkpt>
      <trkpt lat="45.88899" lon="4.1801">
        <ele>552.342</ele>
        <time>2018-12-03T13:41:40Z</time>
      </trkpt>
      <trkpt lat="45.88904" lon="4.18012">
        <ele>552.982</ele>
        <time>2018-12-03T13:41:46Z</time>
      </trkpt>
      <trkpt lat="45.88909" lon="4.18014">
        <ele>553.178</ele>
        <time>2018-12-03T13:41:52Z</time>
      </trkpt>
      <trkpt lat="45.88912" lon="4.18016">
        <ele>553.401</ele>
        <time>2018-12-03T13:41:57Z</time>
      </trkpt>
      <trkpt lat="45.88915" lon="4.18016">
        <ele>554.022</ele>
        <time>2018-12-03T13:42:02Z</time>
      </trkpt>
      <trkpt lat="45.88921" lon="4.18017">
        <ele>554.933</ele>
        <time>2018-12-03T13:42:08Z</time>
      </trkpt>
      <trkpt lat="45.88926" lon="4.18019">
        <ele>555.702</ele>
        <time>2018-12-03T13:42:13Z</time>
      </trkpt>
      <trkpt lat="45.8893" lon="4.1802">
        <ele>556.453</ele>
        <time>2018-12-03T13:42:19Z</time>
      </trkpt>
      <trkpt lat="45.88934" lon="4.18021">
        <ele>556.83</ele>
        <time>2018-12-03T13:42:25Z</time>
      </trkpt>
      <trkpt lat="45.88941" lon="4.18021">
        <ele>557.404</ele>
        <time>2018-12-03T13:42:31Z</time>
      </trkpt>
      <trkpt lat="45.88948" lon="4.18024">
        <ele>557.847</ele>
        <time>2018-12-03T13:42:36Z</time>
      </trkpt>
      <trkpt lat="45.88952" lon="4.18024">
        <ele>558.555</ele>
        <time>2018-12-03T13:42:41Z</time>
      </trkpt>
      <trkpt lat="45.88955" lon="4.18025">
        <ele>559.092</ele>
        <time>2018-12-03T13:42:46Z</time>
      </trkpt>
      <trkpt lat="45.88958" lon="4.18027">
        <ele>559.847</ele>
        <time>2018-12-03T13:42:52Z</time>
      </trkpt>
      <trkpt lat="45.88962" lon="4.18028">
        <ele>560.416</ele>
        <time>2018-12-03T13:42:57Z</time>
      </trkpt>
      <trkpt lat="45.88966" lon="4.1803">
        <ele>560.804</ele>
        <time>2018-12-03T13:43:02Z</time>
      </trkpt>
      <trkpt lat="45.8897" lon="4.18032">
        <ele>561.392</ele>
        <time>2018-12-03T13:43:07Z</time>
      </trkpt>
      <trkpt lat="45.88974" lon="4.18032">
        <ele>562.401</ele>
        <time>2018-12-03T13:43:13Z</time>
      </trkpt>
      <trkpt lat="45.88978" lon="4.18031">
        <ele>562.906</ele>
        <time>2018-12-03T13:43:18Z</time>
      </trkpt>
      <trkpt lat="45.88983" lon="4.18031">
        <ele>563.369</ele>
        <time>2018-12-03T13:43:23Z</time>
      </trkpt>
      <trkpt lat="45.88987" lon="4.1803">
        <ele>563.909</ele>
        <time>2018-12-03T13:43:29Z</time>
      </trkpt>
      <trkpt lat="45.88994" lon="4.18027">
        <ele>564.511</ele>
        <time>2018-12-03T13:43:35Z</time>
      </trkpt>
      <trkpt lat="45.88997" lon="4.18028">
        <ele>565.67</ele>
        <time>2018-12-03T13:43:41Z</time>
      </trkpt>
      <trkpt lat="45.88998" lon="4.18027">
        <ele>566.548</ele>
        <time>2018-12-03T13:43:47Z</time>
      </trkpt>
      <trkpt lat="45.88999" lon="4.18027">
        <ele>566.901</ele>
        <time>2018-12-03T13:43:52Z</time>
      </trkpt>
      <trkpt lat="45.88999" lon="4.18028">
        <ele>567.11</ele>
        <time>2018-12-03T13:43:58Z</time>
      </trkpt>
      <trkpt lat="45.88999" lon="4.18029">
        <ele>567.149</ele>
        <time>2018-12-03T13:44:03Z</time>
      </trkpt>
      <trkpt lat="45.88998" lon="4.1803">
        <ele>567.313</ele>
        <time>2018-12-03T13:44:08Z</time>
      </trkpt>
      <trkpt lat="45.88999" lon="4.1803">
        <ele>567.426</ele>
        <time>2018-12-03T13:44:14Z</time>
      </trkpt>
      <trkpt lat="45.89" lon="4.1803">
        <ele>567.551</ele>
        <time>2018-12-03T13:44:19Z</time>
      </trkpt>
      <trkpt lat="45.89" lon="4.18028">
        <ele>567.947</ele>
        <time>2018-12-03T13:44:26Z</time>
      </trkpt>
      <trkpt lat="45.88999" lon="4.18027">
        <ele>568.101</ele>
        <time>2018-12-03T13:44:32Z</time>
      </trkpt>
      <trkpt lat="45.88998" lon="4.18027">
        <ele>568.437</ele>
        <time>2018-12-03T13:44:38Z</time>
      </trkpt>
      <trkpt lat="45.88997" lon="4.18027">
        <ele>568.621</ele>
        <time>2018-12-03T13:44:43Z</time>
      </trkpt>
      <trkpt lat="45.88997" lon="4.18026">
        <ele>569.005</ele>
        <time>2018-12-03T13:44:49Z</time>
      </trkpt>
      <trkpt lat="45.88998" lon="4.18027">
        <ele>569.25</ele>
        <time>2018-12-03T13:44:55Z</time>
      </trkpt>
      <trkpt lat="45.89" lon="4.18028">
        <ele>569.661</ele>
        <time>2018-12-03T13:45:01Z</time>
      </trkpt>
      <trkpt lat="45.89" lon="4.18027">
        <ele>569.845</ele>
        <time>2018-12-03T13:45:06Z</time>
      </trkpt>
      <trkpt lat="45.89" lon="4.18027">
        <ele>569.618</ele>
        <time>2018-12-03T13:45:12Z</time>
      </trkpt>
      <trkpt lat="45.89002" lon="4.18026">
        <ele>569.501</ele>
        <time>2018-12-03T13:45:17Z</time>
      </trkpt>
      <trkpt lat="45.89003" lon="4.18028">
        <ele>569.197</ele>
        <time>2018-12-03T13:45:23Z</time>
      </trkpt>
      <trkpt lat="45.89004" lon="4.18027">
        <ele>569.281</ele>
        <time>2018-12-03T13:45:28Z</time>
      </trkpt>
      <trkpt lat="45.89004" lon="4.18028">
        <ele>569.416</ele>
        <time>2018-12-03T13:45:34Z</time>
      </trkpt>
      <trkpt lat="45.89005" lon="4.18028">
        <ele>569.46</ele>
        <time>2018-12-03T13:45:39Z</time>
      </trkpt>
      <trkpt lat="45.89004" lon="4.18028">
        <ele>569.459</ele>
        <time>2018-12-03T13:45:44Z</time>
      </trkpt>
      <trkpt lat="45.89005" lon="4.18027">
        <ele>569.551</ele>
        <time>2018-12-03T13:45:50Z</time>
      </trkpt>
      <trkpt lat="45.89005" lon="4.18029">
        <ele>569.469</ele>
        <time>2018-12-03T13:45:55Z</time>
      </trkpt>
      <trkpt lat="45.89005" lon="4.18029">
        <ele>569.391</ele>
        <time>2018-12-03T13:46:00Z</time>
      </trkpt>
      <trkpt lat="45.89004" lon="4.1803">
        <ele>569.338</ele>
        <time>2018-12-03T13:46:06Z</time>
      </trkpt>
      <trkpt lat="45.89003" lon="4.1803">
        <ele>569.362</ele>
        <time>2018-12-03T13:46:11Z</time>
      </trkpt>
      <trkpt lat="45.89003" lon="4.18028">
        <ele>569.337</ele>
        <time>2018-12-03T13:46:17Z</time>
      </trkpt>
      <trkpt lat="45.89006" lon="4.18025">
        <ele>569.479</ele>
        <time>2018-12-03T13:46:23Z</time>
      </trkpt>
      <trkpt lat="45.8901" lon="4.18023">
        <ele>569.677</ele>
        <time>2018-12-03T13:46:28Z</time>
      </trkpt>
      <trkpt lat="45.89013" lon="4.18021">
        <ele>569.933</ele>
        <time>2018-12-03T13:46:33Z</time>
      </trkpt>
      <trkpt lat="45.89017" lon="4.18018">
        <ele>570.231</ele>
        <time>2018-12-03T13:46:39Z</time>
      </trkpt>
      <trkpt lat="45.89019" lon="4.18018">
        <ele>570.455</ele>
        <time>2018-12-03T13:46:45Z</time>
      </trkpt>
      <trkpt lat="45.89023" lon="4.18017">
        <ele>570.68</ele>
        <time>2018-12-03T13:46:51Z</time>
      </trkpt>
      <trkpt lat="45.89027" lon="4.18016">
        <ele>571.055</ele>
        <time>2018-12-03T13:46:57Z</time>
      </trkpt>
      <trkpt lat="45.89031" lon="4.18015">
        <ele>571.524</ele>
        <time>2018-12-03T13:47:02Z</time>
      </trkpt>
      <trkpt lat="45.89034" lon="4.18017">
        <ele>571.655</ele>
        <time>2018-12-03T13:47:07Z</time>
      </trkpt>
      <trkpt lat="45.89037" lon="4.18016">
        <ele>571.808</ele>
        <time>2018-12-03T13:47:12Z</time>
      </trkpt>
      <trkpt lat="45.89035" lon="4.18014">
        <ele>571.793</ele>
        <time>2018-12-03T13:47:17Z</time>
      </trkpt>
      <trkpt lat="45.89036" lon="4.18013">
        <ele>571.78</ele>
        <time>2018-12-03T13:47:22Z</time>
      </trkpt>
      <trkpt lat="45.89037" lon="4.18014">
        <ele>571.639</ele>
        <time>2018-12-03T13:47:27Z</time>
      </trkpt>
      <trkpt lat="45.89035" lon="4.18016">
        <ele>571.636</ele>
        <time>2018-12-03T13:47:33Z</time>
      </trkpt>
      <trkpt lat="45.89037" lon="4.18016">
        <ele>571.765</ele>
        <time>2018-12-03T13:47:39Z</time>
      </trkpt>
      <trkpt lat="45.89042" lon="4.18016">
        <ele>571.942</ele>
        <time>2018-12-03T13:47:44Z</time>
      </trkpt>
      <trkpt lat="45.89045" lon="4.18015">
        <ele>571.936</ele>
        <time>2018-12-03T13:47:49Z</time>
      </trkpt>
      <trkpt lat="45.89051" lon="4.18016">
        <ele>571.959</ele>
        <time>2018-12-03T13:47:55Z</time>
      </trkpt>
      <trkpt lat="45.89057" lon="4.18016">
        <ele>572.226</ele>
        <time>2018-12-03T13:48:00Z</time>
      </trkpt>
      <trkpt lat="45.89062" lon="4.18017">
        <ele>572.919</ele>
        <time>2018-12-03T13:48:06Z</time>
      </trkpt>
      <trkpt lat="45.8906" lon="4.18016">
        <ele>573.076</ele>
        <time>2018-12-03T13:48:11Z</time>
      </trkpt>
      <trkpt lat="45.89059" lon="4.18015">
        <ele>573.086</ele>
        <time>2018-12-03T13:48:17Z</time>
      </trkpt>
      <trkpt lat="45.89058" lon="4.18015">
        <ele>572.892</ele>
        <time>2018-12-03T13:48:23Z</time>
      </trkpt>
      <trkpt lat="45.89059" lon="4.18015">
        <ele>572.948</ele>
        <time>2018-12-03T13:48:28Z</time>
      </trkpt>
      <trkpt lat="45.89061" lon="4.18015">
        <ele>572.935</ele>
        <time>2018-12-03T13:48:34Z</time>
      </trkpt>
      <trkpt lat="45.89064" lon="4.18018">
        <ele>573.4</ele>
        <time>2018-12-03T13:48:39Z</time>
      </trkpt>
      <trkpt lat="45.89071" lon="4.18018">
        <ele>573.514</ele>
        <time>2018-12-03T13:48:45Z</time>
      </trkpt>
      <trkpt lat="45.89075" lon="4.18019">
        <ele>573.682</ele>
        <time>2018-12-03T13:48:50Z</time>
      </trkpt>
      <trkpt lat="45.89081" lon="4.1802">
        <ele>574.024</ele>
        <time>2018-12-03T13:48:55Z</time>
      </trkpt>
      <trkpt lat="45.89087" lon="4.18022">
        <ele>574.431</ele>
        <time>2018-12-03T13:49:01Z</time>
      </trkpt>
      <trkpt lat="45.89094" lon="4.18024">
        <ele>574.903</ele>
        <time>2018-12-03T13:49:07Z</time>
      </trkpt>
      <trkpt lat="45.891" lon="4.18026">
        <ele>575.564</ele>
        <time>2018-12-03T13:49:13Z</time>
      </trkpt>
      <trkpt lat="45.89105" lon="4.1803">
        <ele>575.669</ele>
        <time>2018-12-03T13:49:18Z</time>
      </trkpt>
      <trkpt lat="45.89111" lon="4.18031">
        <ele>575.782</ele>
        <time>2018-12-03T13:49:23Z</time>
      </trkpt>
      <trkpt lat="45.89115" lon="4.18032">
        <ele>576.033</ele>
        <time>2018-12-03T13:49:28Z</time>
      </trkpt>
      <trkpt lat="45.89121" lon="4.18035">
        <ele>575.991</ele>
        <time>2018-12-03T13:49:34Z</time>
      </trkpt>
      <trkpt lat="45.89125" lon="4.18037">
        <ele>575.554</ele>
        <time>2018-12-03T13:49:39Z</time>
      </trkpt>
      <trkpt lat="45.8913" lon="4.1804">
        <ele>575.194</ele>
        <time>2018-12-03T13:49:44Z</time>
      </trkpt>
      <trkpt lat="45.89138" lon="4.18044">
        <ele>574.842</ele>
        <time>2018-12-03T13:49:50Z</time>
      </trkpt>
      <trkpt lat="45.89144" lon="4.18047">
        <ele>574.605</ele>
        <time>2018-12-03T13:49:55Z</time>
      </trkpt>
      <trkpt lat="45.8915" lon="4.1805">
        <ele>574.458</ele>
        <time>2018-12-03T13:50:00Z</time>
      </trkpt>
      <trkpt lat="45.89156" lon="4.18052">
        <ele>574.373</ele>
        <time>2018-12-03T13:50:06Z</time>
      </trkpt>
      <trkpt lat="45.89161" lon="4.18055">
        <ele>574.322</ele>
        <time>2018-12-03T13:50:11Z</time>
      </trkpt>
      <trkpt lat="45.89168" lon="4.18058">
        <ele>574.347</ele>
        <time>2018-12-03T13:50:16Z</time>
      </trkpt>
      <trkpt lat="45.89176" lon="4.18059">
        <ele>574.353</ele>
        <time>2018-12-03T13:50:22Z</time>
      </trkpt>
      <trkpt lat="45.89181" lon="4.1806">
        <ele>574.46</ele>
        <time>2018-12-03T13:50:27Z</time>
      </trkpt>
      <trkpt lat="45.89189" lon="4.18063">
        <ele>573.986</ele>
        <time>2018-12-03T13:50:33Z</time>
      </trkpt>
      <trkpt lat="45.89194" lon="4.18066">
        <ele>573.987</ele>
        <time>2018-12-03T13:50:38Z</time>
      </trkpt>
      <trkpt lat="45.892" lon="4.18068">
        <ele>573.998</ele>
        <time>2018-12-03T13:50:43Z</time>
      </trkpt>
      <trkpt lat="45.89206" lon="4.18073">
        <ele>574.203</ele>
        <time>2018-12-03T13:50:49Z</time>
      </trkpt>
      <trkpt lat="45.89211" lon="4.18075">
        <ele>574.744</ele>
        <time>2018-12-03T13:50:54Z</time>
      </trkpt>
      <trkpt lat="45.89216" lon="4.1808">
        <ele>575.127</ele>
        <time>2018-12-03T13:51:00Z</time>
      </trkpt>
      <trkpt lat="45.89223" lon="4.18081">
        <ele>575.586</ele>
        <time>2018-12-03T13:51:05Z</time>
      </trkpt>
      <trkpt lat="45.8923" lon="4.18083">
        <ele>576.298</ele>
        <time>2018-12-03T13:51:10Z</time>
      </trkpt>
      <trkpt lat="45.89238" lon="4.18084">
        <ele>576.927</ele>
        <time>2018-12-03T13:51:16Z</time>
      </trkpt>
      <trkpt lat="45.89244" lon="4.18086">
        <ele>576.865</ele>
        <time>2018-12-03T13:51:21Z</time>
      </trkpt>
      <trkpt lat="45.89249" lon="4.18088">
        <ele>577.388</ele>
        <time>2018-12-03T13:51:26Z</time>
      </trkpt>
      <trkpt lat="45.89256" lon="4.18091">
        <ele>577.999</ele>
        <time>2018-12-03T13:51:32Z</time>
      </trkpt>
      <trkpt lat="45.8926" lon="4.18093">
        <ele>578.396</ele>
        <time>2018-12-03T13:51:37Z</time>
      </trkpt>
      <trkpt lat="45.89268" lon="4.18095">
        <ele>578.822</ele>
        <time>2018-12-03T13:51:42Z</time>
      </trkpt>
      <trkpt lat="45.89274" lon="4.18099">
        <ele>579.058</ele>
        <time>2018-12-03T13:51:48Z</time>
      </trkpt>
      <trkpt lat="45.8928" lon="4.18102">
        <ele>579.701</ele>
        <time>2018-12-03T13:51:54Z</time>
      </trkpt>
      <trkpt lat="45.89285" lon="4.18106">
        <ele>580.208</ele>
        <time>2018-12-03T13:51:59Z</time>
      </trkpt>
      <trkpt lat="45.89291" lon="4.18109">
        <ele>580.417</ele>
        <time>2018-12-03T13:52:04Z</time>
      </trkpt>
      <trkpt lat="45.89298" lon="4.1811">
        <ele>581.139</ele>
        <time>2018-12-03T13:52:09Z</time>
      </trkpt>
      <trkpt lat="45.89306" lon="4.18111">
        <ele>581.877</ele>
        <time>2018-12-03T13:52:15Z</time>
      </trkpt>
      <trkpt lat="45.89313" lon="4.18117">
        <ele>582.091</ele>
        <time>2018-12-03T13:52:21Z</time>
      </trkpt>
      <trkpt lat="45.8932" lon="4.18118">
        <ele>582.448</ele>
        <time>2018-12-03T13:52:27Z</time>
      </trkpt>
      <trkpt lat="45.89326" lon="4.18121">
        <ele>582.46</ele>
        <time>2018-12-03T13:52:33Z</time>
      </trkpt>
      <trkpt lat="45.8933" lon="4.18122">
        <ele>582.128</ele>
        <time>2018-12-03T13:52:39Z</time>
      </trkpt>
      <trkpt lat="45.89334" lon="4.18124">
        <ele>581.806</ele>
        <time>2018-12-03T13:52:44Z</time>
      </trkpt>
      <trkpt lat="45.89339" lon="4.18127">
        <ele>581.735</ele>
        <time>2018-12-03T13:52:50Z</time>
      </trkpt>
      <trkpt lat="45.89346" lon="4.18132">
        <ele>581.804</ele>
        <time>2018-12-03T13:52:55Z</time>
      </trkpt>
      <trkpt lat="45.8935" lon="4.18136">
        <ele>581.867</ele>
        <time>2018-12-03T13:53:01Z</time>
      </trkpt>
      <trkpt lat="45.89356" lon="4.18139">
        <ele>582.285</ele>
        <time>2018-12-03T13:53:06Z</time>
      </trkpt>
      <trkpt lat="45.8936" lon="4.18143">
        <ele>582.577</ele>
        <time>2018-12-03T13:53:12Z</time>
      </trkpt>
      <trkpt lat="45.89364" lon="4.18148">
        <ele>583.345</ele>
        <time>2018-12-03T13:53:17Z</time>
      </trkpt>
      <trkpt lat="45.8937" lon="4.18149">
        <ele>583.743</ele>
        <time>2018-12-03T13:53:23Z</time>
      </trkpt>
      <trkpt lat="45.89377" lon="4.18153">
        <ele>583.85</ele>
        <time>2018-12-03T13:53:29Z</time>
      </trkpt>
      <trkpt lat="45.89383" lon="4.18157">
        <ele>583.961</ele>
        <time>2018-12-03T13:53:34Z</time>
      </trkpt>
      <trkpt lat="45.89388" lon="4.18157">
        <ele>584.688</ele>
        <time>2018-12-03T13:53:40Z</time>
      </trkpt>
      <trkpt lat="45.89393" lon="4.18159">
        <ele>585.345</ele>
        <time>2018-12-03T13:53:45Z</time>
      </trkpt>
      <trkpt lat="45.89399" lon="4.18161">
        <ele>586.036</ele>
        <time>2018-12-03T13:53:51Z</time>
      </trkpt>
      <trkpt lat="45.89403" lon="4.18163">
        <ele>586.585</ele>
        <time>2018-12-03T13:53:56Z</time>
      </trkpt>
      <trkpt lat="45.89407" lon="4.18167">
        <ele>587.483</ele>
        <time>2018-12-03T13:54:01Z</time>
      </trkpt>
      <trkpt lat="45.89408" lon="4.18174">
        <ele>588.107</ele>
        <time>2018-12-03T13:54:07Z</time>
      </trkpt>
      <trkpt lat="45.89407" lon="4.18176">
        <ele>588.924</ele>
        <time>2018-12-03T13:54:12Z</time>
      </trkpt>
      <trkpt lat="45.89408" lon="4.18183">
        <ele>589.84</ele>
        <time>2018-12-03T13:54:18Z</time>
      </trkpt>
      <trkpt lat="45.8941" lon="4.1819">
        <ele>590.342</ele>
        <time>2018-12-03T13:54:24Z</time>
      </trkpt>
      <trkpt lat="45.89412" lon="4.18194">
        <ele>590.955</ele>
        <time>2018-12-03T13:54:29Z</time>
      </trkpt>
      <trkpt lat="45.89414" lon="4.18199">
        <ele>591.744</ele>
        <time>2018-12-03T13:54:34Z</time>
      </trkpt>
      <trkpt lat="45.89412" lon="4.18207">
        <ele>592.527</ele>
        <time>2018-12-03T13:54:40Z</time>
      </trkpt>
      <trkpt lat="45.89409" lon="4.18216">
        <ele>592.516</ele>
        <time>2018-12-03T13:54:46Z</time>
      </trkpt>
      <trkpt lat="45.89407" lon="4.18224">
        <ele>592.897</ele>
        <time>2018-12-03T13:54:52Z</time>
      </trkpt>
      <trkpt lat="45.89406" lon="4.18233">
        <ele>593.208</ele>
        <time>2018-12-03T13:54:57Z</time>
      </trkpt>
      <trkpt lat="45.89404" lon="4.18239">
        <ele>593.482</ele>
        <time>2018-12-03T13:55:02Z</time>
      </trkpt>
      <trkpt lat="45.89405" lon="4.18241">
        <ele>594.013</ele>
        <time>2018-12-03T13:55:07Z</time>
      </trkpt>
      <trkpt lat="45.89406" lon="4.18246">
        <ele>594.355</ele>
        <time>2018-12-03T13:55:13Z</time>
      </trkpt>
      <trkpt lat="45.89404" lon="4.18245">
        <ele>594.559</ele>
        <time>2018-12-03T13:55:19Z</time>
      </trkpt>
      <trkpt lat="45.89406" lon="4.18244">
        <ele>594.095</ele>
        <time>2018-12-03T13:55:25Z</time>
      </trkpt>
      <trkpt lat="45.89406" lon="4.18245">
        <ele>594.118</ele>
        <time>2018-12-03T13:55:30Z</time>
      </trkpt>
      <trkpt lat="45.89405" lon="4.18246">
        <ele>595.246</ele>
        <time>2018-12-03T13:55:36Z</time>
      </trkpt>
      <trkpt lat="45.89405" lon="4.18248">
        <ele>595.687</ele>
        <time>2018-12-03T13:55:41Z</time>
      </trkpt>
      <trkpt lat="45.89399" lon="4.18248">
        <ele>596.084</ele>
        <time>2018-12-03T13:55:47Z</time>
      </trkpt>
      <trkpt lat="45.89397" lon="4.18247">
        <ele>596.293</ele>
        <time>2018-12-03T13:55:53Z</time>
      </trkpt>
      <trkpt lat="45.89393" lon="4.18245">
        <ele>596.316</ele>
        <time>2018-12-03T13:55:59Z</time>
      </trkpt>
      <trkpt lat="45.89389" lon="4.18244">
        <ele>597.097</ele>
        <time>2018-12-03T13:56:04Z</time>
      </trkpt>
      <trkpt lat="45.89383" lon="4.18242">
        <ele>597.362</ele>
        <time>2018-12-03T13:56:10Z</time>
      </trkpt>
      <trkpt lat="45.89378" lon="4.18243">
        <ele>596.859</ele>
        <time>2018-12-03T13:56:15Z</time>
      </trkpt>
      <trkpt lat="45.89372" lon="4.18244">
        <ele>596.19</ele>
        <time>2018-12-03T13:56:21Z</time>
      </trkpt>
      <trkpt lat="45.89367" lon="4.18244">
        <ele>595.831</ele>
        <time>2018-12-03T13:56:26Z</time>
      </trkpt>
      <trkpt lat="45.89361" lon="4.18242">
        <ele>595.746</ele>
        <time>2018-12-03T13:56:32Z</time>
      </trkpt>
      <trkpt lat="45.89354" lon="4.18243">
        <ele>595.422</ele>
        <time>2018-12-03T13:56:38Z</time>
      </trkpt>
      <trkpt lat="45.89347" lon="4.18243">
        <ele>595.7</ele>
        <time>2018-12-03T13:56:43Z</time>
      </trkpt>
      <trkpt lat="45.89341" lon="4.18244">
        <ele>595.814</ele>
        <time>2018-12-03T13:56:49Z</time>
      </trkpt>
      <trkpt lat="45.89337" lon="4.18243">
        <ele>596.168</ele>
        <time>2018-12-03T13:56:54Z</time>
      </trkpt>
      <trkpt lat="45.8933" lon="4.18243">
        <ele>596.004</ele>
        <time>2018-12-03T13:57:00Z</time>
      </trkpt>
      <trkpt lat="45.89323" lon="4.18243">
        <ele>595.595</ele>
        <time>2018-12-03T13:57:06Z</time>
      </trkpt>
      <trkpt lat="45.89318" lon="4.18242">
        <ele>595.609</ele>
        <time>2018-12-03T13:57:12Z</time>
      </trkpt>
      <trkpt lat="45.89315" lon="4.18242">
        <ele>595.361</ele>
        <time>2018-12-03T13:57:17Z</time>
      </trkpt>
      <trkpt lat="45.8931" lon="4.1824">
        <ele>595.007</ele>
        <time>2018-12-03T13:57:23Z</time>
      </trkpt>
      <trkpt lat="45.89306" lon="4.18239">
        <ele>594.922</ele>
        <time>2018-12-03T13:57:28Z</time>
      </trkpt>
      <trkpt lat="45.893" lon="4.18238">
        <ele>594.902</ele>
        <time>2018-12-03T13:57:34Z</time>
      </trkpt>
      <trkpt lat="45.89295" lon="4.18238">
        <ele>595.103</ele>
        <time>2018-12-03T13:57:40Z</time>
      </trkpt>
      <trkpt lat="45.89291" lon="4.18237">
        <ele>594.648</ele>
        <time>2018-12-03T13:57:45Z</time>
      </trkpt>
      <trkpt lat="45.89284" lon="4.18238">
        <ele>594.294</ele>
        <time>2018-12-03T13:57:51Z</time>
      </trkpt>
      <trkpt lat="45.89277" lon="4.18237">
        <ele>593.316</ele>
        <time>2018-12-03T13:57:57Z</time>
      </trkpt>
      <trkpt lat="45.89272" lon="4.18237">
        <ele>592.805</ele>
        <time>2018-12-03T13:58:02Z</time>
      </trkpt>
      <trkpt lat="45.89266" lon="4.18237">
        <ele>592.37</ele>
        <time>2018-12-03T13:58:08Z</time>
      </trkpt>
      <trkpt lat="45.8926" lon="4.18236">
        <ele>591.933</ele>
        <time>2018-12-03T13:58:14Z</time>
      </trkpt>
      <trkpt lat="45.89252" lon="4.18236">
        <ele>591.669</ele>
        <time>2018-12-03T13:58:20Z</time>
      </trkpt>
      <trkpt lat="45.89246" lon="4.18237">
        <ele>591.26</ele>
        <time>2018-12-03T13:58:26Z</time>
      </trkpt>
      <trkpt lat="45.8924" lon="4.18236">
        <ele>590.773</ele>
        <time>2018-12-03T13:58:31Z</time>
      </trkpt>
      <trkpt lat="45.89234" lon="4.18234">
        <ele>590.702</ele>
        <time>2018-12-03T13:58:37Z</time>
      </trkpt>
      <trkpt lat="45.89229" lon="4.18233">
        <ele>590.487</ele>
        <time>2018-12-03T13:58:43Z</time>
      </trkpt>
      <trkpt lat="45.89225" lon="4.18233">
        <ele>590.435</ele>
        <time>2018-12-03T13:58:48Z</time>
      </trkpt>
      <trkpt lat="45.89222" lon="4.18234">
        <ele>590.077</ele>
        <time>2018-12-03T13:58:54Z</time>
      </trkpt>
      <trkpt lat="45.89219" lon="4.18237">
        <ele>589.348</ele>
        <time>2018-12-03T13:58:59Z</time>
      </trkpt>
      <trkpt lat="45.89215" lon="4.18239">
        <ele>588.852</ele>
        <time>2018-12-03T13:59:05Z</time>
      </trkpt>
      <trkpt lat="45.89217" lon="4.18239">
        <ele>588.716</ele>
        <time>2018-12-03T13:59:10Z</time>
      </trkpt>
      <trkpt lat="45.89219" lon="4.18236">
        <ele>588.7</ele>
        <time>2018-12-03T13:59:15Z</time>
      </trkpt>
      <trkpt lat="45.89219" lon="4.18234">
        <ele>588.537</ele>
        <time>2018-12-03T13:59:21Z</time>
      </trkpt>
      <trkpt lat="45.89219" lon="4.18235">
        <ele>588.481</ele>
        <time>2018-12-03T13:59:27Z</time>
      </trkpt>
      <trkpt lat="45.89218" lon="4.18238">
        <ele>588.378</ele>
        <time>2018-12-03T13:59:32Z</time>
      </trkpt>
      <trkpt lat="45.89219" lon="4.18242">
        <ele>588.303</ele>
        <time>2018-12-03T13:59:38Z</time>
      </trkpt>
      <trkpt lat="45.89217" lon="4.18242">
        <ele>588.44</ele>
        <time>2018-12-03T13:59:43Z</time>
      </trkpt>
      <trkpt lat="45.89211" lon="4.1824">
        <ele>588.224</ele>
        <time>2018-12-03T13:59:48Z</time>
      </trkpt>
      <trkpt lat="45.89206" lon="4.18238">
        <ele>588.435</ele>
        <time>2018-12-03T13:59:54Z</time>
      </trkpt>
      <trkpt lat="45.89202" lon="4.18239">
        <ele>588.739</ele>
        <time>2018-12-03T13:59:59Z</time>
      </trkpt>
      <trkpt lat="45.89199" lon="4.18241">
        <ele>588.427</ele>
        <time>2018-12-03T14:00:04Z</time>
      </trkpt>
      <trkpt lat="45.89197" lon="4.18242">
        <ele>588.242</ele>
        <time>2018-12-03T14:00:10Z</time>
      </trkpt>
      <trkpt lat="45.89197" lon="4.18245">
        <ele>588.109</ele>
        <time>2018-12-03T14:00:15Z</time>
      </trkpt>
      <trkpt lat="45.89198" lon="4.18245">
        <ele>588.514</ele>
        <time>2018-12-03T14:00:21Z</time>
      </trkpt>
      <trkpt lat="45.89198" lon="4.18244">
        <ele>588.668</ele>
        <time>2018-12-03T14:00:27Z</time>
      </trkpt>
      <trkpt lat="45.89199" lon="4.18243">
        <ele>589.613</ele>
        <time>2018-12-03T14:00:33Z</time>
      </trkpt>
      <trkpt lat="45.89198" lon="4.18243">
        <ele>589.469</ele>
        <time>2018-12-03T14:00:38Z</time>
      </trkpt>
      <trkpt lat="45.89198" lon="4.18243">
        <ele>589.345</ele>
        <time>2018-12-03T14:00:44Z</time>
      </trkpt>
      <trkpt lat="45.89198" lon="4.18245">
        <ele>588.9</ele>
        <time>2018-12-03T14:00:50Z</time>
      </trkpt>
      <trkpt lat="45.89197" lon="4.18244">
        <ele>588.623</ele>
        <time>2018-12-03T14:00:56Z</time>
      </trkpt>
      <trkpt lat="45.89195" lon="4.18244">
        <ele>588.482</ele>
        <time>2018-12-03T14:01:01Z</time>
      </trkpt>
      <trkpt lat="45.89192" lon="4.18246">
        <ele>588.275</ele>
        <time>2018-12-03T14:01:06Z</time>
      </trkpt>
      <trkpt lat="45.89186" lon="4.18248">
        <ele>588.377</ele>
        <time>2018-12-03T14:01:12Z</time>
      </trkpt>
      <trkpt lat="45.89181" lon="4.18249">
        <ele>588.438</ele>
        <time>2018-12-03T14:01:17Z</time>
      </trkpt>
      <trkpt lat="45.89174" lon="4.1825">
        <ele>588.258</ele>
        <time>2018-12-03T14:01:23Z</time>
      </trkpt>
      <trkpt lat="45.89168" lon="4.18251">
        <ele>588.143</ele>
        <time>2018-12-03T14:01:28Z</time>
      </trkpt>
      <trkpt lat="45.89163" lon="4.18251">
        <ele>587.953</ele>
        <time>2018-12-03T14:01:34Z</time>
      </trkpt>
      <trkpt lat="45.89156" lon="4.18252">
        <ele>588.084</ele>
        <time>2018-12-03T14:01:40Z</time>
      </trkpt>
      <trkpt lat="45.89151" lon="4.18252">
        <ele>588.623</ele>
        <time>2018-12-03T14:01:46Z</time>
      </trkpt>
      <trkpt lat="45.89147" lon="4.18252">
        <ele>589.391</ele>
        <time>2018-12-03T14:01:52Z</time>
      </trkpt>
      <trkpt lat="45.89144" lon="4.18252">
        <ele>589.431</ele>
        <time>2018-12-03T14:01:57Z</time>
      </trkpt>
      <trkpt lat="45.89138" lon="4.18253">
        <ele>589.304</ele>
        <time>2018-12-03T14:02:03Z</time>
      </trkpt>
      <trkpt lat="45.89133" lon="4.18251">
        <ele>588.749</ele>
        <time>2018-12-03T14:02:08Z</time>
      </trkpt>
      <trkpt lat="45.89127" lon="4.18252">
        <ele>588.356</ele>
        <time>2018-12-03T14:02:13Z</time>
      </trkpt>
      <trkpt lat="45.89122" lon="4.18252">
        <ele>587.754</ele>
        <time>2018-12-03T14:02:19Z</time>
      </trkpt>
      <trkpt lat="45.89116" lon="4.18253">
        <ele>587.179</ele>
        <time>2018-12-03T14:02:25Z</time>
      </trkpt>
      <trkpt lat="45.89113" lon="4.18254">
        <ele>586.666</ele>
        <time>2018-12-03T14:02:31Z</time>
      </trkpt>
      <trkpt lat="45.89107" lon="4.18255">
        <ele>585.771</ele>
        <time>2018-12-03T14:02:37Z</time>
      </trkpt>
      <trkpt lat="45.89101" lon="4.18253">
        <ele>585.162</ele>
        <time>2018-12-03T14:02:42Z</time>
      </trkpt>
      <trkpt lat="45.89095" lon="4.18252">
        <ele>584.879</ele>
        <time>2018-12-03T14:02:48Z</time>
      </trkpt>
      <trkpt lat="45.89092" lon="4.18253">
        <ele>584.581</ele>
        <time>2018-12-03T14:02:53Z</time>
      </trkpt>
      <trkpt lat="45.89086" lon="4.18255">
        <ele>583.702</ele>
        <time>2018-12-03T14:02:58Z</time>
      </trkpt>
      <trkpt lat="45.89083" lon="4.18254">
        <ele>582.676</ele>
        <time>2018-12-03T14:03:04Z</time>
      </trkpt>
      <trkpt lat="45.89079" lon="4.18255">
        <ele>582.083</ele>
        <time>2018-12-03T14:03:09Z</time>
      </trkpt>
      <trkpt lat="45.89078" lon="4.18254">
        <ele>581.633</ele>
        <time>2018-12-03T14:03:15Z</time>
      </trkpt>
      <trkpt lat="45.89075" lon="4.18253">
        <ele>581.373</ele>
        <time>2018-12-03T14:03:20Z</time>
      </trkpt>
      <trkpt lat="45.89069" lon="4.18255">
        <ele>581.475</ele>
        <time>2018-12-03T14:03:26Z</time>
      </trkpt>
      <trkpt lat="45.89064" lon="4.18258">
        <ele>581.165</ele>
        <time>2018-12-03T14:03:32Z</time>
      </trkpt>
      <trkpt lat="45.89063" lon="4.1826">
        <ele>581.097</ele>
        <time>2018-12-03T14:03:38Z</time>
      </trkpt>
      <trkpt lat="45.8906" lon="4.18261">
        <ele>580.819</ele>
        <time>2018-12-03T14:03:43Z</time>
      </trkpt>
      <trkpt lat="45.89055" lon="4.18264">
        <ele>580.068</ele>
        <time>2018-12-03T14:03:49Z</time>
      </trkpt>
      <trkpt lat="45.8905" lon="4.18266">
        <ele>579.375</ele>
        <time>2018-12-03T14:03:55Z</time>
      </trkpt>
      <trkpt lat="45.89046" lon="4.18267">
        <ele>578.635</ele>
        <time>2018-12-03T14:04:01Z</time>
      </trkpt>
      <trkpt lat="45.89042" lon="4.18272">
        <ele>577.826</ele>
        <time>2018-12-03T14:04:07Z</time>
      </trkpt>
      <trkpt lat="45.89038" lon="4.18275">
        <ele>576.996</ele>
        <time>2018-12-03T14:04:13Z</time>
      </trkpt>
      <trkpt lat="45.89036" lon="4.18277">
        <ele>576.038</ele>
        <time>2018-12-03T14:04:19Z</time>
      </trkpt>
      <trkpt lat="45.89034" lon="4.18276">
        <ele>575.307</ele>
        <time>2018-12-03T14:04:24Z</time>
      </trkpt>
      <trkpt lat="45.89033" lon="4.18276">
        <ele>574.692</ele>
        <time>2018-12-03T14:04:29Z</time>
      </trkpt>
      <trkpt lat="45.89033" lon="4.18278">
        <ele>574.408</ele>
        <time>2018-12-03T14:04:35Z</time>
      </trkpt>
      <trkpt lat="45.89032" lon="4.18277">
        <ele>573.897</ele>
        <time>2018-12-03T14:04:40Z</time>
      </trkpt>
      <trkpt lat="45.8903" lon="4.1828">
        <ele>573.251</ele>
        <time>2018-12-03T14:04:45Z</time>
      </trkpt>
      <trkpt lat="45.89026" lon="4.18285">
        <ele>572.602</ele>
        <time>2018-12-03T14:04:51Z</time>
      </trkpt>
      <trkpt lat="45.89023" lon="4.18285">
        <ele>572.954</ele>
        <time>2018-12-03T14:04:56Z</time>
      </trkpt>
      <trkpt lat="45.89017" lon="4.18286">
        <ele>572.854</ele>
        <time>2018-12-03T14:05:02Z</time>
      </trkpt>
      <trkpt lat="45.89011" lon="4.1829">
        <ele>572.348</ele>
        <time>2018-12-03T14:05:08Z</time>
      </trkpt>
      <trkpt lat="45.89007" lon="4.18293">
        <ele>571.29</ele>
        <time>2018-12-03T14:05:14Z</time>
      </trkpt>
      <trkpt lat="45.89004" lon="4.18296">
        <ele>570.712</ele>
        <time>2018-12-03T14:05:19Z</time>
      </trkpt>
      <trkpt lat="45.88997" lon="4.18294">
        <ele>569.699</ele>
        <time>2018-12-03T14:05:25Z</time>
      </trkpt>
      <trkpt lat="45.88992" lon="4.18297">
        <ele>568.788</ele>
        <time>2018-12-03T14:05:30Z</time>
      </trkpt>
      <trkpt lat="45.88988" lon="4.18302">
        <ele>567.711</ele>
        <time>2018-12-03T14:05:36Z</time>
      </trkpt>
      <trkpt lat="45.88985" lon="4.18306">
        <ele>567.002</ele>
        <time>2018-12-03T14:05:41Z</time>
      </trkpt>
      <trkpt lat="45.88982" lon="4.1831">
        <ele>566.355</ele>
        <time>2018-12-03T14:05:46Z</time>
      </trkpt>
      <trkpt lat="45.88977" lon="4.18311">
        <ele>565.312</ele>
        <time>2018-12-03T14:05:52Z</time>
      </trkpt>
      <trkpt lat="45.88969" lon="4.18314">
        <ele>564.214</ele>
        <time>2018-12-03T14:05:58Z</time>
      </trkpt>
      <trkpt lat="45.88964" lon="4.18318">
        <ele>563.086</ele>
        <time>2018-12-03T14:06:03Z</time>
      </trkpt>
      <trkpt lat="45.8896" lon="4.18321">
        <ele>562.152</ele>
        <time>2018-12-03T14:06:08Z</time>
      </trkpt>
      <trkpt lat="45.88959" lon="4.18326">
        <ele>561.433</ele>
        <time>2018-12-03T14:06:14Z</time>
      </trkpt>
      <trkpt lat="45.88959" lon="4.18327">
        <ele>561.551</ele>
        <time>2018-12-03T14:06:19Z</time>
      </trkpt>
      <trkpt lat="45.8896" lon="4.18329">
        <ele>560.86</ele>
        <time>2018-12-03T14:06:25Z</time>
      </trkpt>
      <trkpt lat="45.88962" lon="4.1833">
        <ele>560.375</ele>
        <time>2018-12-03T14:06:30Z</time>
      </trkpt>
      <trkpt lat="45.88965" lon="4.18332">
        <ele>560.133</ele>
        <time>2018-12-03T14:06:35Z</time>
      </trkpt>
      <trkpt lat="45.88969" lon="4.18333">
        <ele>559.901</ele>
        <time>2018-12-03T14:06:41Z</time>
      </trkpt>
      <trkpt lat="45.88972" lon="4.18336">
        <ele>559.694</ele>
        <time>2018-12-03T14:06:46Z</time>
      </trkpt>
      <trkpt lat="45.88974" lon="4.18339">
        <ele>559.638</ele>
        <time>2018-12-03T14:06:52Z</time>
      </trkpt>
      <trkpt lat="45.88976" lon="4.1834">
        <ele>559.403</ele>
        <time>2018-12-03T14:06:58Z</time>
      </trkpt>
      <trkpt lat="45.8898" lon="4.18347">
        <ele>559.132</ele>
        <time>2018-12-03T14:07:04Z</time>
      </trkpt>
      <trkpt lat="45.88982" lon="4.18353">
        <ele>558.985</ele>
        <time>2018-12-03T14:07:09Z</time>
      </trkpt>
      <trkpt lat="45.88984" lon="4.1836">
        <ele>558.978</ele>
        <time>2018-12-03T14:07:15Z</time>
      </trkpt>
      <trkpt lat="45.88985" lon="4.18368">
        <ele>558.713</ele>
        <time>2018-12-03T14:07:20Z</time>
      </trkpt>
      <trkpt lat="45.88985" lon="4.18373">
        <ele>558.781</ele>
        <time>2018-12-03T14:07:26Z</time>
      </trkpt>
      <trkpt lat="45.88984" lon="4.18378">
        <ele>559.04</ele>
        <time>2018-12-03T14:07:31Z</time>
      </trkpt>
      <trkpt lat="45.88982" lon="4.18382">
        <ele>559.401</ele>
        <time>2018-12-03T14:07:36Z</time>
      </trkpt>
      <trkpt lat="45.8898" lon="4.18389">
        <ele>558.905</ele>
        <time>2018-12-03T14:07:42Z</time>
      </trkpt>
      <trkpt lat="45.88977" lon="4.18395">
        <ele>558.833</ele>
        <time>2018-12-03T14:07:47Z</time>
      </trkpt>
      <trkpt lat="45.88975" lon="4.184">
        <ele>558.913</ele>
        <time>2018-12-03T14:07:53Z</time>
      </trkpt>
      <trkpt lat="45.88971" lon="4.18405">
        <ele>558.786</ele>
        <time>2018-12-03T14:07:58Z</time>
      </trkpt>
      <trkpt lat="45.88968" lon="4.1841">
        <ele>558.844</ele>
        <time>2018-12-03T14:08:03Z</time>
      </trkpt>
      <trkpt lat="45.88965" lon="4.18414">
        <ele>558.637</ele>
        <time>2018-12-03T14:08:09Z</time>
      </trkpt>
      <trkpt lat="45.88962" lon="4.18418">
        <ele>558.552</ele>
        <time>2018-12-03T14:08:15Z</time>
      </trkpt>
      <trkpt lat="45.88959" lon="4.18422">
        <ele>558.628</ele>
        <time>2018-12-03T14:08:21Z</time>
      </trkpt>
      <trkpt lat="45.88956" lon="4.18427">
        <ele>558.983</ele>
        <time>2018-12-03T14:08:27Z</time>
      </trkpt>
      <trkpt lat="45.8895" lon="4.18434">
        <ele>559.001</ele>
        <time>2018-12-03T14:08:33Z</time>
      </trkpt>
      <trkpt lat="45.88946" lon="4.18438">
        <ele>558.898</ele>
        <time>2018-12-03T14:08:39Z</time>
      </trkpt>
      <trkpt lat="45.88943" lon="4.1844">
        <ele>559.005</ele>
        <time>2018-12-03T14:08:44Z</time>
      </trkpt>
      <trkpt lat="45.88939" lon="4.18445">
        <ele>559.295</ele>
        <time>2018-12-03T14:08:49Z</time>
      </trkpt>
      <trkpt lat="45.88936" lon="4.18447">
        <ele>559.721</ele>
        <time>2018-12-03T14:08:55Z</time>
      </trkpt>
      <trkpt lat="45.88934" lon="4.18447">
        <ele>560.083</ele>
        <time>2018-12-03T14:09:00Z</time>
      </trkpt>
      <trkpt lat="45.88931" lon="4.18452">
        <ele>560.662</ele>
        <time>2018-12-03T14:09:06Z</time>
      </trkpt>
      <trkpt lat="45.88927" lon="4.18455">
        <ele>561.068</ele>
        <time>2018-12-03T14:09:12Z</time>
      </trkpt>
      <trkpt lat="45.88923" lon="4.18455">
        <ele>561.799</ele>
        <time>2018-12-03T14:09:17Z</time>
      </trkpt>
      <trkpt lat="45.88919" lon="4.18458">
        <ele>562.358</ele>
        <time>2018-12-03T14:09:22Z</time>
      </trkpt>
      <trkpt lat="45.88918" lon="4.18461">
        <ele>562.79</ele>
        <time>2018-12-03T14:09:28Z</time>
      </trkpt>
      <trkpt lat="45.88914" lon="4.18463">
        <ele>563.007</ele>
        <time>2018-12-03T14:09:34Z</time>
      </trkpt>
      <trkpt lat="45.8891" lon="4.18465">
        <ele>563.493</ele>
        <time>2018-12-03T14:09:40Z</time>
      </trkpt>
      <trkpt lat="45.88907" lon="4.1847">
        <ele>563.764</ele>
        <time>2018-12-03T14:09:45Z</time>
      </trkpt>
      <trkpt lat="45.88903" lon="4.18471">
        <ele>564.431</ele>
        <time>2018-12-03T14:09:50Z</time>
      </trkpt>
      <trkpt lat="45.88899" lon="4.18472">
        <ele>565.567</ele>
        <time>2018-12-03T14:09:56Z</time>
      </trkpt>
      <trkpt lat="45.88897" lon="4.18476">
        <ele>566.438</ele>
        <time>2018-12-03T14:10:02Z</time>
      </trkpt>
      <trkpt lat="45.88895" lon="4.18477">
        <ele>566.88</ele>
        <time>2018-12-03T14:10:07Z</time>
      </trkpt>
      <trkpt lat="45.88891" lon="4.18479">
        <ele>566.952</ele>
        <time>2018-12-03T14:10:12Z</time>
      </trkpt>
      <trkpt lat="45.88885" lon="4.18482">
        <ele>567.518</ele>
        <time>2018-12-03T14:10:18Z</time>
      </trkpt>
      <trkpt lat="45.88881" lon="4.18484">
        <ele>567.697</ele>
        <time>2018-12-03T14:10:23Z</time>
      </trkpt>
      <trkpt lat="45.88877" lon="4.18485">
        <ele>567.818</ele>
        <time>2018-12-03T14:10:29Z</time>
      </trkpt>
      <trkpt lat="45.88871" lon="4.18487">
        <ele>568.191</ele>
        <time>2018-12-03T14:10:35Z</time>
      </trkpt>
      <trkpt lat="45.88865" lon="4.18491">
        <ele>568.752</ele>
        <time>2018-12-03T14:10:41Z</time>
      </trkpt>
      <trkpt lat="45.8886" lon="4.18494">
        <ele>568.97</ele>
        <time>2018-12-03T14:10:46Z</time>
      </trkpt>
      <trkpt lat="45.88855" lon="4.18496">
        <ele>569.435</ele>
        <time>2018-12-03T14:10:52Z</time>
      </trkpt>
      <trkpt lat="45.88849" lon="4.18499">
        <ele>569.674</ele>
        <time>2018-12-03T14:10:58Z</time>
      </trkpt>
      <trkpt lat="45.88847" lon="4.18501">
        <ele>570.008</ele>
        <time>2018-12-03T14:11:04Z</time>
      </trkpt>
      <trkpt lat="45.88843" lon="4.18503">
        <ele>570.628</ele>
        <time>2018-12-03T14:11:10Z</time>
      </trkpt>
      <trkpt lat="45.88838" lon="4.18506">
        <ele>571.02</ele>
        <time>2018-12-03T14:11:16Z</time>
      </trkpt>
      <trkpt lat="45.88833" lon="4.1851">
        <ele>571.073</ele>
        <time>2018-12-03T14:11:21Z</time>
      </trkpt>
      <trkpt lat="45.88828" lon="4.18513">
        <ele>571.558</ele>
        <time>2018-12-03T14:11:27Z</time>
      </trkpt>
      <trkpt lat="45.88825" lon="4.18514">
        <ele>571.812</ele>
        <time>2018-12-03T14:11:33Z</time>
      </trkpt>
      <trkpt lat="45.88818" lon="4.18519">
        <ele>571.859</ele>
        <time>2018-12-03T14:11:39Z</time>
      </trkpt>
      <trkpt lat="45.88813" lon="4.18522">
        <ele>572.247</ele>
        <time>2018-12-03T14:11:45Z</time>
      </trkpt>
      <trkpt lat="45.88807" lon="4.18526">
        <ele>572.899</ele>
        <time>2018-12-03T14:11:51Z</time>
      </trkpt>
      <trkpt lat="45.88802" lon="4.18529">
        <ele>573.384</ele>
        <time>2018-12-03T14:11:56Z</time>
      </trkpt>
      <trkpt lat="45.88797" lon="4.18534">
        <ele>573.927</ele>
        <time>2018-12-03T14:12:02Z</time>
      </trkpt>
      <trkpt lat="45.88794" lon="4.18536">
        <ele>574.725</ele>
        <time>2018-12-03T14:12:08Z</time>
      </trkpt>
      <trkpt lat="45.88791" lon="4.18537">
        <ele>574.826</ele>
        <time>2018-12-03T14:12:13Z</time>
      </trkpt>
      <trkpt lat="45.88788" lon="4.18539">
        <ele>575.308</ele>
        <time>2018-12-03T14:12:19Z</time>
      </trkpt>
      <trkpt lat="45.88784" lon="4.1854">
        <ele>575.701</ele>
        <time>2018-12-03T14:12:25Z</time>
      </trkpt>
      <trkpt lat="45.8878" lon="4.18544">
        <ele>576.132</ele>
        <time>2018-12-03T14:12:30Z</time>
      </trkpt>
      <trkpt lat="45.88773" lon="4.18547">
        <ele>576.558</ele>
        <time>2018-12-03T14:12:36Z</time>
      </trkpt>
      <trkpt lat="45.88768" lon="4.18549">
        <ele>577.177</ele>
        <time>2018-12-03T14:12:42Z</time>
      </trkpt>
      <trkpt lat="45.88763" lon="4.18552">
        <ele>577.358</ele>
        <time>2018-12-03T14:12:48Z</time>
      </trkpt>
      <trkpt lat="45.88759" lon="4.18553">
        <ele>577.603</ele>
        <time>2018-12-03T14:12:53Z</time>
      </trkpt>
      <trkpt lat="45.88755" lon="4.18555">
        <ele>578.073</ele>
        <time>2018-12-03T14:12:59Z</time>
      </trkpt>
      <trkpt lat="45.88752" lon="4.18557">
        <ele>578.485</ele>
        <time>2018-12-03T14:13:04Z</time>
      </trkpt>
      <trkpt lat="45.88746" lon="4.18558">
        <ele>578.738</ele>
        <time>2018-12-03T14:13:10Z</time>
      </trkpt>
      <trkpt lat="45.8874" lon="4.1856">
        <ele>579.219</ele>
        <time>2018-12-03T14:13:16Z</time>
      </trkpt>
      <trkpt lat="45.88735" lon="4.18562">
        <ele>579.429</ele>
        <time>2018-12-03T14:13:21Z</time>
      </trkpt>
      <trkpt lat="45.88727" lon="4.18565">
        <ele>579.412</ele>
        <time>2018-12-03T14:13:27Z</time>
      </trkpt>
      <trkpt lat="45.88722" lon="4.18566">
        <ele>579.619</ele>
        <time>2018-12-03T14:13:32Z</time>
      </trkpt>
      <trkpt lat="45.88718" lon="4.18568">
        <ele>579.496</ele>
        <time>2018-12-03T14:13:38Z</time>
      </trkpt>
      <trkpt lat="45.88712" lon="4.18569">
        <ele>579.692</ele>
        <time>2018-12-03T14:13:43Z</time>
      </trkpt>
      <trkpt lat="45.88709" lon="4.18569">
        <ele>579.883</ele>
        <time>2018-12-03T14:13:48Z</time>
      </trkpt>
      <trkpt lat="45.88704" lon="4.1857">
        <ele>580.32</ele>
        <time>2018-12-03T14:13:54Z</time>
      </trkpt>
      <trkpt lat="45.88701" lon="4.18572">
        <ele>580.65</ele>
        <time>2018-12-03T14:13:59Z</time>
      </trkpt>
      <trkpt lat="45.88698" lon="4.18578">
        <ele>581.167</ele>
        <time>2018-12-03T14:14:05Z</time>
      </trkpt>
      <trkpt lat="45.88699" lon="4.18584">
        <ele>581.589</ele>
        <time>2018-12-03T14:14:11Z</time>
      </trkpt>
      <trkpt lat="45.88699" lon="4.1859">
        <ele>582.098</ele>
        <time>2018-12-03T14:14:16Z</time>
      </trkpt>
      <trkpt lat="45.88701" lon="4.18595">
        <ele>582.608</ele>
        <time>2018-12-03T14:14:22Z</time>
      </trkpt>
      <trkpt lat="45.88701" lon="4.186">
        <ele>583.138</ele>
        <time>2018-12-03T14:14:27Z</time>
      </trkpt>
      <trkpt lat="45.88702" lon="4.18605">
        <ele>583.55</ele>
        <time>2018-12-03T14:14:32Z</time>
      </trkpt>
      <trkpt lat="45.88702" lon="4.18611">
        <ele>584.085</ele>
        <time>2018-12-03T14:14:37Z</time>
      </trkpt>
      <trkpt lat="45.88702" lon="4.18616">
        <ele>584.477</ele>
        <time>2018-12-03T14:14:43Z</time>
      </trkpt>
      <trkpt lat="45.88702" lon="4.18622">
        <ele>584.732</ele>
        <time>2018-12-03T14:14:49Z</time>
      </trkpt>
      <trkpt lat="45.88703" lon="4.18627">
        <ele>585.329</ele>
        <time>2018-12-03T14:14:54Z</time>
      </trkpt>
      <trkpt lat="45.88702" lon="4.18634">
        <ele>586.015</ele>
        <time>2018-12-03T14:15:00Z</time>
      </trkpt>
      <trkpt lat="45.88701" lon="4.1864">
        <ele>586.465</ele>
        <time>2018-12-03T14:15:05Z</time>
      </trkpt>
      <trkpt lat="45.88702" lon="4.1865">
        <ele>587.037</ele>
        <time>2018-12-03T14:15:11Z</time>
      </trkpt>
      <trkpt lat="45.88702" lon="4.18654">
        <ele>587.402</ele>
        <time>2018-12-03T14:15:16Z</time>
      </trkpt>
      <trkpt lat="45.88702" lon="4.18658">
        <ele>587.924</ele>
        <time>2018-12-03T14:15:21Z</time>
      </trkpt>
      <trkpt lat="45.88702" lon="4.18663">
        <ele>588.625</ele>
        <time>2018-12-03T14:15:27Z</time>
      </trkpt>
      <trkpt lat="45.88702" lon="4.18667">
        <ele>589.307</ele>
        <time>2018-12-03T14:15:32Z</time>
      </trkpt>
      <trkpt lat="45.88702" lon="4.18669">
        <ele>589.965</ele>
        <time>2018-12-03T14:15:38Z</time>
      </trkpt>
      <trkpt lat="45.88702" lon="4.18667">
        <ele>590.113</ele>
        <time>2018-12-03T14:15:43Z</time>
      </trkpt>
      <trkpt lat="45.88701" lon="4.18667">
        <ele>590.562</ele>
        <time>2018-12-03T14:15:49Z</time>
      </trkpt>
      <trkpt lat="45.88702" lon="4.18669">
        <ele>591.029</ele>
        <time>2018-12-03T14:15:55Z</time>
      </trkpt>
      <trkpt lat="45.88702" lon="4.1867">
        <ele>591.356</ele>
        <time>2018-12-03T14:16:00Z</time>
      </trkpt>
      <trkpt lat="45.88703" lon="4.1867">
        <ele>591.783</ele>
        <time>2018-12-03T14:16:06Z</time>
      </trkpt>
      <trkpt lat="45.88702" lon="4.18671">
        <ele>592.315</ele>
        <time>2018-12-03T14:16:12Z</time>
      </trkpt>
      <trkpt lat="45.88701" lon="4.18669">
        <ele>592.443</ele>
        <time>2018-12-03T14:16:18Z</time>
      </trkpt>
      <trkpt lat="45.88701" lon="4.1867">
        <ele>592.662</ele>
        <time>2018-12-03T14:16:24Z</time>
      </trkpt>
      <trkpt lat="45.887" lon="4.18673">
        <ele>592.719</ele>
        <time>2018-12-03T14:16:30Z</time>
      </trkpt>
      <trkpt lat="45.88697" lon="4.18672">
        <ele>592.4</ele>
        <time>2018-12-03T14:16:35Z</time>
      </trkpt>
      <trkpt lat="45.88692" lon="4.18672">
        <ele>592.16</ele>
        <time>2018-12-03T14:16:40Z</time>
      </trkpt>
      <trkpt lat="45.88687" lon="4.18673">
        <ele>592.305</ele>
        <time>2018-12-03T14:16:46Z</time>
      </trkpt>
      <trkpt lat="45.88687" lon="4.18673">
        <ele>592.584</ele>
        <time>2018-12-03T14:16:51Z</time>
      </trkpt>
      <trkpt lat="45.88683" lon="4.18672">
        <ele>592.681</ele>
        <time>2018-12-03T14:16:57Z</time>
      </trkpt>
      <trkpt lat="45.88678" lon="4.18671">
        <ele>592.725</ele>
        <time>2018-12-03T14:17:03Z</time>
      </trkpt>
      <trkpt lat="45.88671" lon="4.18671">
        <ele>593.029</ele>
        <time>2018-12-03T14:17:09Z</time>
      </trkpt>
      <trkpt lat="45.88662" lon="4.18671">
        <ele>593.323</ele>
        <time>2018-12-03T14:17:15Z</time>
      </trkpt>
      <trkpt lat="45.88656" lon="4.18671">
        <ele>593.651</ele>
        <time>2018-12-03T14:17:20Z</time>
      </trkpt>
      <trkpt lat="45.8865" lon="4.18673">
        <ele>593.889</ele>
        <time>2018-12-03T14:17:26Z</time>
      </trkpt>
      <trkpt lat="45.88643" lon="4.18673">
        <ele>593.912</ele>
        <time>2018-12-03T14:17:32Z</time>
      </trkpt>
      <trkpt lat="45.88639" lon="4.18675">
        <ele>594.077</ele>
        <time>2018-12-03T14:17:37Z</time>
      </trkpt>
      <trkpt lat="45.88634" lon="4.18678">
        <ele>594.174</ele>
        <time>2018-12-03T14:17:43Z</time>
      </trkpt>
      <trkpt lat="45.88627" lon="4.18679">
        <ele>594.013</ele>
        <time>2018-12-03T14:17:49Z</time>
      </trkpt>
      <trkpt lat="45.88622" lon="4.18678">
        <ele>593.844</ele>
        <time>2018-12-03T14:17:54Z</time>
      </trkpt>
      <trkpt lat="45.88616" lon="4.18679">
        <ele>593.562</ele>
        <time>2018-12-03T14:18:00Z</time>
      </trkpt>
      <trkpt lat="45.88608" lon="4.18682">
        <ele>593.032</ele>
        <time>2018-12-03T14:18:06Z</time>
      </trkpt>
      <trkpt lat="45.88602" lon="4.18683">
        <ele>592.782</ele>
        <time>2018-12-03T14:18:12Z</time>
      </trkpt>
      <trkpt lat="45.88596" lon="4.18686">
        <ele>592.619</ele>
        <time>2018-12-03T14:18:18Z</time>
      </trkpt>
      <trkpt lat="45.8859" lon="4.18688">
        <ele>591.981</ele>
        <time>2018-12-03T14:18:23Z</time>
      </trkpt>
      <trkpt lat="45.88585" lon="4.18689">
        <ele>591.553</ele>
        <time>2018-12-03T14:18:29Z</time>
      </trkpt>
      <trkpt lat="45.88578" lon="4.18689">
        <ele>591.183</ele>
        <time>2018-12-03T14:18:35Z</time>
      </trkpt>
      <trkpt lat="45.88571" lon="4.18691">
        <ele>590.936</ele>
        <time>2018-12-03T14:18:41Z</time>
      </trkpt>
      <trkpt lat="45.88565" lon="4.18691">
        <ele>591.022</ele>
        <time>2018-12-03T14:18:46Z</time>
      </trkpt>
      <trkpt lat="45.8856" lon="4.18692">
        <ele>591.139</ele>
        <time>2018-12-03T14:18:51Z</time>
      </trkpt>
      <trkpt lat="45.88555" lon="4.18693">
        <ele>591.058</ele>
        <time>2018-12-03T14:18:57Z</time>
      </trkpt>
      <trkpt lat="45.88549" lon="4.18695">
        <ele>591.146</ele>
        <time>2018-12-03T14:19:02Z</time>
      </trkpt>
      <trkpt lat="45.88544" lon="4.18696">
        <ele>590.676</ele>
        <time>2018-12-03T14:19:08Z</time>
      </trkpt>
      <trkpt lat="45.8854" lon="4.18699">
        <ele>590.173</ele>
        <time>2018-12-03T14:19:13Z</time>
      </trkpt>
      <trkpt lat="45.88533" lon="4.18703">
        <ele>589.933</ele>
        <time>2018-12-03T14:19:19Z</time>
      </trkpt>
      <trkpt lat="45.88525" lon="4.18708">
        <ele>589.366</ele>
        <time>2018-12-03T14:19:25Z</time>
      </trkpt>
      <trkpt lat="45.88519" lon="4.18711">
        <ele>588.935</ele>
        <time>2018-12-03T14:19:31Z</time>
      </trkpt>
      <trkpt lat="45.88516" lon="4.18712">
        <ele>588.218</ele>
        <time>2018-12-03T14:19:37Z</time>
      </trkpt>
      <trkpt lat="45.88511" lon="4.18715">
        <ele>588.032</ele>
        <time>2018-12-03T14:19:43Z</time>
      </trkpt>
      <trkpt lat="45.88506" lon="4.18718">
        <ele>587.581</ele>
        <time>2018-12-03T14:19:49Z</time>
      </trkpt>
      <trkpt lat="45.88501" lon="4.18721">
        <ele>587.471</ele>
        <time>2018-12-03T14:19:55Z</time>
      </trkpt>
      <trkpt lat="45.88496" lon="4.18725">
        <ele>587.16</ele>
        <time>2018-12-03T14:20:00Z</time>
      </trkpt>
      <trkpt lat="45.88491" lon="4.18729">
        <ele>586.959</ele>
        <time>2018-12-03T14:20:06Z</time>
      </trkpt>
      <trkpt lat="45.88485" lon="4.18731">
        <ele>586.737</ele>
        <time>2018-12-03T14:20:12Z</time>
      </trkpt>
      <trkpt lat="45.88477" lon="4.18737">
        <ele>586.307</ele>
        <time>2018-12-03T14:20:17Z</time>
      </trkpt>
      <trkpt lat="45.88473" lon="4.18739">
        <ele>586.212</ele>
        <time>2018-12-03T14:20:22Z</time>
      </trkpt>
      <trkpt lat="45.88467" lon="4.18744">
        <ele>586.278</ele>
        <time>2018-12-03T14:20:28Z</time>
      </trkpt>
      <trkpt lat="45.88463" lon="4.18748">
        <ele>586.199</ele>
        <time>2018-12-03T14:20:34Z</time>
      </trkpt>
      <trkpt lat="45.88456" lon="4.18752">
        <ele>585.671</ele>
        <time>2018-12-03T14:20:39Z</time>
      </trkpt>
      <trkpt lat="45.88451" lon="4.18756">
        <ele>585.049</ele>
        <time>2018-12-03T14:20:44Z</time>
      </trkpt>
      <trkpt lat="45.88445" lon="4.18761">
        <ele>584.765</ele>
        <time>2018-12-03T14:20:50Z</time>
      </trkpt>
      <trkpt lat="45.88437" lon="4.18766">
        <ele>584.172</ele>
        <time>2018-12-03T14:20:56Z</time>
      </trkpt>
      <trkpt lat="45.88432" lon="4.18771">
        <ele>583.804</ele>
        <time>2018-12-03T14:21:01Z</time>
      </trkpt>
      <trkpt lat="45.88427" lon="4.18775">
        <ele>583.357</ele>
        <time>2018-12-03T14:21:07Z</time>
      </trkpt>
      <trkpt lat="45.88422" lon="4.18779">
        <ele>583.057</ele>
        <time>2018-12-03T14:21:12Z</time>
      </trkpt>
      <trkpt lat="45.88417" lon="4.18783">
        <ele>582.882</ele>
        <time>2018-12-03T14:21:18Z</time>
      </trkpt>
      <trkpt lat="45.88412" lon="4.18787">
        <ele>582.976</ele>
        <time>2018-12-03T14:21:23Z</time>
      </trkpt>
      <trkpt lat="45.88406" lon="4.1879">
        <ele>582.752</ele>
        <time>2018-12-03T14:21:28Z</time>
      </trkpt>
      <trkpt lat="45.88401" lon="4.18796">
        <ele>582.479</ele>
        <time>2018-12-03T14:21:34Z</time>
      </trkpt>
      <trkpt lat="45.88396" lon="4.188">
        <ele>582.134</ele>
        <time>2018-12-03T14:21:40Z</time>
      </trkpt>
      <trkpt lat="45.88389" lon="4.18803">
        <ele>581.716</ele>
        <time>2018-12-03T14:21:46Z</time>
      </trkpt>
      <trkpt lat="45.88384" lon="4.18808">
        <ele>581.425</ele>
        <time>2018-12-03T14:21:52Z</time>
      </trkpt>
      <trkpt lat="45.88378" lon="4.18814">
        <ele>580.956</ele>
        <time>2018-12-03T14:21:58Z</time>
      </trkpt>
      <trkpt lat="45.88371" lon="4.18818">
        <ele>580.586</ele>
        <time>2018-12-03T14:22:04Z</time>
      </trkpt>
      <trkpt lat="45.88369" lon="4.18823">
        <ele>580.37</ele>
        <time>2018-12-03T14:22:09Z</time>
      </trkpt>
      <trkpt lat="45.88364" lon="4.1883">
        <ele>579.533</ele>
        <time>2018-12-03T14:22:15Z</time>
      </trkpt>
      <trkpt lat="45.88358" lon="4.18833">
        <ele>578.79</ele>
        <time>2018-12-03T14:22:20Z</time>
      </trkpt>
      <trkpt lat="45.88351" lon="4.1884">
        <ele>578.259</ele>
        <time>2018-12-03T14:22:26Z</time>
      </trkpt>
      <trkpt lat="45.88347" lon="4.18842">
        <ele>577.803</ele>
        <time>2018-12-03T14:22:31Z</time>
      </trkpt>
      <trkpt lat="45.88344" lon="4.18845">
        <ele>577.342</ele>
        <time>2018-12-03T14:22:36Z</time>
      </trkpt>
      <trkpt lat="45.88338" lon="4.18852">
        <ele>576.473</ele>
        <time>2018-12-03T14:22:42Z</time>
      </trkpt>
      <trkpt lat="45.88331" lon="4.18857">
        <ele>575.88</ele>
        <time>2018-12-03T14:22:48Z</time>
      </trkpt>
      <trkpt lat="45.88326" lon="4.18859">
        <ele>575.199</ele>
        <time>2018-12-03T14:22:53Z</time>
      </trkpt>
      <trkpt lat="45.88321" lon="4.18861">
        <ele>574.973</ele>
        <time>2018-12-03T14:22:59Z</time>
      </trkpt>
      <trkpt lat="45.88315" lon="4.18864">
        <ele>574.59</ele>
        <time>2018-12-03T14:23:05Z</time>
      </trkpt>
      <trkpt lat="45.88311" lon="4.18867">
        <ele>574.006</ele>
        <time>2018-12-03T14:23:11Z</time>
      </trkpt>
      <trkpt lat="45.88304" lon="4.18868">
        <ele>573.625</ele>
        <time>2018-12-03T14:23:16Z</time>
      </trkpt>
      <trkpt lat="45.88296" lon="4.18868">
        <ele>573.274</ele>
        <time>2018-12-03T14:23:22Z</time>
      </trkpt>
      <trkpt lat="45.88289" lon="4.18868">
        <ele>573.173</ele>
        <time>2018-12-03T14:23:27Z</time>
      </trkpt>
      <trkpt lat="45.88285" lon="4.18867">
        <ele>572.665</ele>
        <time>2018-12-03T14:23:32Z</time>
      </trkpt>
      <trkpt lat="45.88278" lon="4.18869">
        <ele>572.199</ele>
        <time>2018-12-03T14:23:38Z</time>
      </trkpt>
      <trkpt lat="45.88269" lon="4.1887">
        <ele>571.522</ele>
        <time>2018-12-03T14:23:44Z</time>
      </trkpt>
      <trkpt lat="45.88261" lon="4.18868">
        <ele>571.098</ele>
        <time>2018-12-03T14:23:50Z</time>
      </trkpt>
      <trkpt lat="45.88255" lon="4.18868">
        <ele>570.595</ele>
        <time>2018-12-03T14:23:56Z</time>
      </trkpt>
      <trkpt lat="45.88251" lon="4.18869">
        <ele>569.918</ele>
        <time>2018-12-03T14:24:01Z</time>
      </trkpt>
      <trkpt lat="45.88246" lon="4.18867">
        <ele>569.373</ele>
        <time>2018-12-03T14:24:07Z</time>
      </trkpt>
      <trkpt lat="45.88239" lon="4.18868">
        <ele>569.084</ele>
        <time>2018-12-03T14:24:12Z</time>
      </trkpt>
      <trkpt lat="45.88233" lon="4.1887">
        <ele>568.316</ele>
        <time>2018-12-03T14:24:18Z</time>
      </trkpt>
      <trkpt lat="45.88226" lon="4.18871">
        <ele>568.2</ele>
        <time>2018-12-03T14:24:24Z</time>
      </trkpt>
      <trkpt lat="45.88223" lon="4.1887">
        <ele>568.042</ele>
        <time>2018-12-03T14:24:29Z</time>
      </trkpt>
      <trkpt lat="45.88216" lon="4.18872">
        <ele>567.884</ele>
        <time>2018-12-03T14:24:35Z</time>
      </trkpt>
      <trkpt lat="45.88211" lon="4.18874">
        <ele>567.415</ele>
        <time>2018-12-03T14:24:40Z</time>
      </trkpt>
      <trkpt lat="45.88203" lon="4.18874">
        <ele>566.662</ele>
        <time>2018-12-03T14:24:46Z</time>
      </trkpt>
      <trkpt lat="45.88197" lon="4.18875">
        <ele>565.993</ele>
        <time>2018-12-03T14:24:52Z</time>
      </trkpt>
      <trkpt lat="45.8819" lon="4.18876">
        <ele>565.466</ele>
        <time>2018-12-03T14:24:58Z</time>
      </trkpt>
      <trkpt lat="45.88183" lon="4.18877">
        <ele>564.86</ele>
        <time>2018-12-03T14:25:04Z</time>
      </trkpt>
      <trkpt lat="45.88177" lon="4.18878">
        <ele>564.193</ele>
        <time>2018-12-03T14:25:10Z</time>
      </trkpt>
      <trkpt lat="45.88172" lon="4.1888">
        <ele>563.832</ele>
        <time>2018-12-03T14:25:15Z</time>
      </trkpt>
      <trkpt lat="45.88165" lon="4.18878">
        <ele>563.066</ele>
        <time>2018-12-03T14:25:21Z</time>
      </trkpt>
      <trkpt lat="45.88158" lon="4.18879">
        <ele>562.617</ele>
        <time>2018-12-03T14:25:27Z</time>
      </trkpt>
      <trkpt lat="45.88152" lon="4.18879">
        <ele>562.423</ele>
        <time>2018-12-03T14:25:32Z</time>
      </trkpt>
      <trkpt lat="45.88145" lon="4.18881">
        <ele>562.305</ele>
        <time>2018-12-03T14:25:38Z</time>
      </trkpt>
      <trkpt lat="45.88138" lon="4.1888">
        <ele>562.083</ele>
        <time>2018-12-03T14:25:44Z</time>
      </trkpt>
      <trkpt lat="45.88132" lon="4.1888">
        <ele>561.832</ele>
        <time>2018-12-03T14:25:50Z</time>
      </trkpt>
      <trkpt lat="45.88125" lon="4.18881">
        <ele>561.578</ele>
        <time>2018-12-03T14:25:55Z</time>
      </trkpt>
      <trkpt lat="45.88119" lon="4.18881">
        <ele>561.397</ele>
        <time>2018-12-03T14:26:00Z</time>
      </trkpt>
      <trkpt lat="45.88112" lon="4.18881">
        <ele>561.055</ele>
        <time>2018-12-03T14:26:06Z</time>
      </trkpt>
      <trkpt lat="45.88105" lon="4.18881">
        <ele>560.762</ele>
        <time>2018-12-03T14:26:12Z</time>
      </trkpt>
      <trkpt lat="45.88101" lon="4.18882">
        <ele>560.429</ele>
        <time>2018-12-03T14:26:18Z</time>
      </trkpt>
      <trkpt lat="45.88093" lon="4.18882">
        <ele>560.054</ele>
        <time>2018-12-03T14:26:24Z</time>
      </trkpt>
      <trkpt lat="45.88092" lon="4.18883">
        <ele>559.634</ele>
        <time>2018-12-03T14:26:30Z</time>
      </trkpt>
      <trkpt lat="45.88095" lon="4.18884">
        <ele>559.537</ele>
        <time>2018-12-03T14:26:35Z</time>
      </trkpt>
      <trkpt lat="45.88097" lon="4.18882">
        <ele>559.489</ele>
        <time>2018-12-03T14:26:41Z</time>
      </trkpt>
      <trkpt lat="45.88097" lon="4.18881">
        <ele>559.966</ele>
        <time>2018-12-03T14:26:47Z</time>
      </trkpt>
      <trkpt lat="45.88096" lon="4.18881">
        <ele>560.013</ele>
        <time>2018-12-03T14:26:52Z</time>
      </trkpt>
      <trkpt lat="45.88096" lon="4.18881">
        <ele>559.64</ele>
        <time>2018-12-03T14:26:58Z</time>
      </trkpt>
      <trkpt lat="45.88095" lon="4.18882">
        <ele>559.345</ele>
        <time>2018-12-03T14:27:04Z</time>
      </trkpt>
      <trkpt lat="45.88094" lon="4.18883">
        <ele>559.009</ele>
        <time>2018-12-03T14:27:10Z</time>
      </trkpt>
      <trkpt lat="45.88092" lon="4.18882">
        <ele>559.019</ele>
        <time>2018-12-03T14:27:16Z</time>
      </trkpt>
      <trkpt lat="45.88089" lon="4.18882">
        <ele>559.054</ele>
        <time>2018-12-03T14:27:21Z</time>
      </trkpt>
      <trkpt lat="45.88088" lon="4.18881">
        <ele>559.123</ele>
        <time>2018-12-03T14:27:27Z</time>
      </trkpt>
      <trkpt lat="45.8809" lon="4.18881">
        <ele>559.209</ele>
        <time>2018-12-03T14:27:33Z</time>
      </trkpt>
      <trkpt lat="45.88091" lon="4.18881">
        <ele>559.284</ele>
        <time>2018-12-03T14:27:39Z</time>
      </trkpt>
      <trkpt lat="45.88092" lon="4.18881">
        <ele>559.626</ele>
        <time>2018-12-03T14:27:45Z</time>
      </trkpt>
      <trkpt lat="45.88092" lon="4.1888">
        <ele>559.641</ele>
        <time>2018-12-03T14:27:51Z</time>
      </trkpt>
      <trkpt lat="45.88094" lon="4.18882">
        <ele>559.925</ele>
        <time>2018-12-03T14:27:57Z</time>
      </trkpt>
      <trkpt lat="45.88094" lon="4.18882">
        <ele>560.014</ele>
        <time>2018-12-03T14:28:02Z</time>
      </trkpt>
      <trkpt lat="45.88092" lon="4.18879">
        <ele>560.135</ele>
        <time>2018-12-03T14:28:08Z</time>
      </trkpt>
      <trkpt lat="45.88091" lon="4.18878">
        <ele>561.257</ele>
        <time>2018-12-03T14:28:14Z</time>
      </trkpt>
      <trkpt lat="45.8809" lon="4.18878">
        <ele>561.338</ele>
        <time>2018-12-03T14:28:20Z</time>
      </trkpt>
      <trkpt lat="45.8809" lon="4.18878">
        <ele>561.156</ele>
        <time>2018-12-03T14:28:25Z</time>
      </trkpt>
      <trkpt lat="45.88089" lon="4.18877">
        <ele>561.413</ele>
        <time>2018-12-03T14:28:30Z</time>
      </trkpt>
      <trkpt lat="45.88086" lon="4.1888">
        <ele>561.593</ele>
        <time>2018-12-03T14:28:35Z</time>
      </trkpt>
      <trkpt lat="45.88082" lon="4.18881">
        <ele>561.07</ele>
        <time>2018-12-03T14:28:41Z</time>
      </trkpt>
      <trkpt lat="45.8808" lon="4.18882">
        <ele>560.602</ele>
        <time>2018-12-03T14:28:47Z</time>
      </trkpt>
      <trkpt lat="45.88077" lon="4.18885">
        <ele>559.991</ele>
        <time>2018-12-03T14:28:53Z</time>
      </trkpt>
      <trkpt lat="45.88075" lon="4.18885">
        <ele>560.352</ele>
        <time>2018-12-03T14:28:59Z</time>
      </trkpt>
      <trkpt lat="45.88071" lon="4.18884">
        <ele>560.527</ele>
        <time>2018-12-03T14:29:05Z</time>
      </trkpt>
      <trkpt lat="45.88067" lon="4.18888">
        <ele>560.523</ele>
        <time>2018-12-03T14:29:11Z</time>
      </trkpt>
      <trkpt lat="45.88062" lon="4.18889">
        <ele>560.375</ele>
        <time>2018-12-03T14:29:16Z</time>
      </trkpt>
      <trkpt lat="45.88059" lon="4.18891">
        <ele>560.536</ele>
        <time>2018-12-03T14:29:22Z</time>
      </trkpt>
      <trkpt lat="45.88053" lon="4.18892">
        <ele>560.297</ele>
        <time>2018-12-03T14:29:27Z</time>
      </trkpt>
      <trkpt lat="45.88045" lon="4.18894">
        <ele>559.785</ele>
        <time>2018-12-03T14:29:33Z</time>
      </trkpt>
      <trkpt lat="45.88039" lon="4.18896">
        <ele>559.463</ele>
        <time>2018-12-03T14:29:38Z</time>
      </trkpt>
      <trkpt lat="45.88033" lon="4.18897">
        <ele>558.949</ele>
        <time>2018-12-03T14:29:43Z</time>
      </trkpt>
      <trkpt lat="45.88024" lon="4.18899">
        <ele>558.554</ele>
        <time>2018-12-03T14:29:49Z</time>
      </trkpt>
      <trkpt lat="45.88017" lon="4.18899">
        <ele>557.848</ele>
        <time>2018-12-03T14:29:55Z</time>
      </trkpt>
      <trkpt lat="45.88013" lon="4.18901">
        <ele>557.442</ele>
        <time>2018-12-03T14:30:00Z</time>
      </trkpt>
      <trkpt lat="45.88007" lon="4.18901">
        <ele>556.626</ele>
        <time>2018-12-03T14:30:06Z</time>
      </trkpt>
      <trkpt lat="45.88003" lon="4.18903">
        <ele>556.07</ele>
        <time>2018-12-03T14:30:11Z</time>
      </trkpt>
      <trkpt lat="45.87997" lon="4.18903">
        <ele>556.289</ele>
        <time>2018-12-03T14:30:16Z</time>
      </trkpt>
      <trkpt lat="45.87991" lon="4.18906">
        <ele>556.41</ele>
        <time>2018-12-03T14:30:21Z</time>
      </trkpt>
      <trkpt lat="45.87986" lon="4.18911">
        <ele>556.312</ele>
        <time>2018-12-03T14:30:27Z</time>
      </trkpt>
      <trkpt lat="45.87981" lon="4.18914">
        <ele>556.293</ele>
        <time>2018-12-03T14:30:33Z</time>
      </trkpt>
      <trkpt lat="45.87977" lon="4.18915">
        <ele>556.367</ele>
        <time>2018-12-03T14:30:39Z</time>
      </trkpt>
      <trkpt lat="45.87972" lon="4.18918">
        <ele>555.91</ele>
        <time>2018-12-03T14:30:44Z</time>
      </trkpt>
      <trkpt lat="45.87964" lon="4.18921">
        <ele>554.993</ele>
        <time>2018-12-03T14:30:50Z</time>
      </trkpt>
      <trkpt lat="45.87956" lon="4.18923">
        <ele>554.353</ele>
        <time>2018-12-03T14:30:55Z</time>
      </trkpt>
      <trkpt lat="45.87951" lon="4.18925">
        <ele>553.705</ele>
        <time>2018-12-03T14:31:00Z</time>
      </trkpt>
      <trkpt lat="45.87945" lon="4.1893">
        <ele>553</ele>
        <time>2018-12-03T14:31:06Z</time>
      </trkpt>
      <trkpt lat="45.8794" lon="4.18936">
        <ele>552.3</ele>
        <time>2018-12-03T14:31:11Z</time>
      </trkpt>
      <trkpt lat="45.87936" lon="4.18942">
        <ele>551.847</ele>
        <time>2018-12-03T14:31:16Z</time>
      </trkpt>
      <trkpt lat="45.8793" lon="4.18947">
        <ele>551.445</ele>
        <time>2018-12-03T14:31:22Z</time>
      </trkpt>
      <trkpt lat="45.87925" lon="4.18949">
        <ele>550.812</ele>
        <time>2018-12-03T14:31:28Z</time>
      </trkpt>
      <trkpt lat="45.87921" lon="4.18952">
        <ele>550.293</ele>
        <time>2018-12-03T14:31:34Z</time>
      </trkpt>
      <trkpt lat="45.87916" lon="4.18953">
        <ele>549.817</ele>
        <time>2018-12-03T14:31:40Z</time>
      </trkpt>
      <trkpt lat="45.8791" lon="4.18954">
        <ele>549.089</ele>
        <time>2018-12-03T14:31:46Z</time>
      </trkpt>
      <trkpt lat="45.87906" lon="4.18954">
        <ele>548.532</ele>
        <time>2018-12-03T14:31:51Z</time>
      </trkpt>
      <trkpt lat="45.87898" lon="4.18953">
        <ele>548.027</ele>
        <time>2018-12-03T14:31:57Z</time>
      </trkpt>
      <trkpt lat="45.87894" lon="4.18954">
        <ele>547.67</ele>
        <time>2018-12-03T14:32:02Z</time>
      </trkpt>
      <trkpt lat="45.87888" lon="4.18955">
        <ele>547.017</ele>
        <time>2018-12-03T14:32:08Z</time>
      </trkpt>
      <trkpt lat="45.87884" lon="4.18957">
        <ele>546.68</ele>
        <time>2018-12-03T14:32:13Z</time>
      </trkpt>
      <trkpt lat="45.87878" lon="4.18958">
        <ele>546.121</ele>
        <time>2018-12-03T14:32:19Z</time>
      </trkpt>
      <trkpt lat="45.87875" lon="4.18959">
        <ele>545.547</ele>
        <time>2018-12-03T14:32:24Z</time>
      </trkpt>
      <trkpt lat="45.8787" lon="4.18958">
        <ele>545.217</ele>
        <time>2018-12-03T14:32:30Z</time>
      </trkpt>
      <trkpt lat="45.87866" lon="4.18955">
        <ele>544.676</ele>
        <time>2018-12-03T14:32:35Z</time>
      </trkpt>
      <trkpt lat="45.8786" lon="4.18948">
        <ele>543.918</ele>
        <time>2018-12-03T14:32:41Z</time>
      </trkpt>
      <trkpt lat="45.87859" lon="4.18943">
        <ele>543.443</ele>
        <time>2018-12-03T14:32:46Z</time>
      </trkpt>
      <trkpt lat="45.87859" lon="4.18937">
        <ele>543.033</ele>
        <time>2018-12-03T14:32:51Z</time>
      </trkpt>
      <trkpt lat="45.8786" lon="4.18929">
        <ele>542.892</ele>
        <time>2018-12-03T14:32:57Z</time>
      </trkpt>
      <trkpt lat="45.8786" lon="4.1892">
        <ele>542.512</ele>
        <time>2018-12-03T14:33:02Z</time>
      </trkpt>
      <trkpt lat="45.87861" lon="4.18912">
        <ele>542.239</ele>
        <time>2018-12-03T14:33:08Z</time>
      </trkpt>
      <trkpt lat="45.87861" lon="4.1891">
        <ele>541.928</ele>
        <time>2018-12-03T14:33:14Z</time>
      </trkpt>
      <trkpt lat="45.87862" lon="4.18909">
        <ele>541.361</ele>
        <time>2018-12-03T14:33:19Z</time>
      </trkpt>
      <trkpt lat="45.87862" lon="4.18906">
        <ele>541.203</ele>
        <time>2018-12-03T14:33:24Z</time>
      </trkpt>
      <trkpt lat="45.87862" lon="4.18905">
        <ele>540.955</ele>
        <time>2018-12-03T14:33:30Z</time>
      </trkpt>
      <trkpt lat="45.87862" lon="4.18902">
        <ele>540.528</ele>
        <time>2018-12-03T14:33:36Z</time>
      </trkpt>
      <trkpt lat="45.87864" lon="4.18902">
        <ele>540.698</ele>
        <time>2018-12-03T14:33:42Z</time>
      </trkpt>
      <trkpt lat="45.87864" lon="4.18897">
        <ele>540.778</ele>
        <time>2018-12-03T14:33:47Z</time>
      </trkpt>
      <trkpt lat="45.87865" lon="4.18889">
        <ele>540.691</ele>
        <time>2018-12-03T14:33:53Z</time>
      </trkpt>
      <trkpt lat="45.87866" lon="4.18885">
        <ele>539.945</ele>
        <time>2018-12-03T14:33:59Z</time>
      </trkpt>
      <trkpt lat="45.87867" lon="4.18879">
        <ele>539.107</ele>
        <time>2018-12-03T14:34:05Z</time>
      </trkpt>
      <trkpt lat="45.87867" lon="4.18873">
        <ele>538.575</ele>
        <time>2018-12-03T14:34:10Z</time>
      </trkpt>
      <trkpt lat="45.87867" lon="4.18866">
        <ele>537.881</ele>
        <time>2018-12-03T14:34:15Z</time>
      </trkpt>
      <trkpt lat="45.87869" lon="4.18855">
        <ele>537.158</ele>
        <time>2018-12-03T14:34:20Z</time>
      </trkpt>
      <trkpt lat="45.87868" lon="4.18845">
        <ele>536.256</ele>
        <time>2018-12-03T14:34:26Z</time>
      </trkpt>
      <trkpt lat="45.87869" lon="4.18838">
        <ele>535.615</ele>
        <time>2018-12-03T14:34:31Z</time>
      </trkpt>
      <trkpt lat="45.87869" lon="4.18828">
        <ele>534.694</ele>
        <time>2018-12-03T14:34:37Z</time>
      </trkpt>
      <trkpt lat="45.87869" lon="4.18819">
        <ele>534.01</ele>
        <time>2018-12-03T14:34:43Z</time>
      </trkpt>
      <trkpt lat="45.87869" lon="4.1881">
        <ele>532.977</ele>
        <time>2018-12-03T14:34:49Z</time>
      </trkpt>
      <trkpt lat="45.87868" lon="4.18802">
        <ele>532.035</ele>
        <time>2018-12-03T14:34:55Z</time>
      </trkpt>
      <trkpt lat="45.87866" lon="4.18795">
        <ele>531.515</ele>
        <time>2018-12-03T14:35:00Z</time>
      </trkpt>
      <trkpt lat="45.87865" lon="4.18788">
        <ele>530.573</ele>
        <time>2018-12-03T14:35:06Z</time>
      </trkpt>
      <trkpt lat="45.87864" lon="4.18784">
        <ele>529.798</ele>
        <time>2018-12-03T14:35:12Z</time>
      </trkpt>
      <trkpt lat="45.87859" lon="4.18783">
        <ele>529.366</ele>
        <time>2018-12-03T14:35:17Z</time>
      </trkpt>
      <trkpt lat="45.87851" lon="4.18785">
        <ele>529.063</ele>
        <time>2018-12-03T14:35:22Z</time>
      </trkpt>
      <trkpt lat="45.87845" lon="4.18791">
        <ele>528.518</ele>
        <time>2018-12-03T14:35:28Z</time>
      </trkpt>
      <trkpt lat="45.87842" lon="4.18795">
        <ele>528.066</ele>
        <time>2018-12-03T14:35:33Z</time>
      </trkpt>
      <trkpt lat="45.8784" lon="4.18798">
        <ele>527.562</ele>
        <time>2018-12-03T14:35:38Z</time>
      </trkpt>
      <trkpt lat="45.87834" lon="4.18801">
        <ele>527.084</ele>
        <time>2018-12-03T14:35:44Z</time>
      </trkpt>
      <trkpt lat="45.87829" lon="4.18805">
        <ele>526.842</ele>
        <time>2018-12-03T14:35:49Z</time>
      </trkpt>
      <trkpt lat="45.87823" lon="4.1881">
        <ele>526.208</ele>
        <time>2018-12-03T14:35:55Z</time>
      </trkpt>
      <trkpt lat="45.87819" lon="4.18815">
        <ele>525.329</ele>
        <time>2018-12-03T14:36:00Z</time>
      </trkpt>
      <trkpt lat="45.87813" lon="4.18818">
        <ele>524.852</ele>
        <time>2018-12-03T14:36:06Z</time>
      </trkpt>
      <trkpt lat="45.87808" lon="4.1882">
        <ele>524.34</ele>
        <time>2018-12-03T14:36:12Z</time>
      </trkpt>
      <trkpt lat="45.87804" lon="4.18821">
        <ele>523.688</ele>
        <time>2018-12-03T14:36:17Z</time>
      </trkpt>
      <trkpt lat="45.87801" lon="4.18819">
        <ele>522.867</ele>
        <time>2018-12-03T14:36:23Z</time>
      </trkpt>
      <trkpt lat="45.87798" lon="4.18816">
        <ele>522.311</ele>
        <time>2018-12-03T14:36:28Z</time>
      </trkpt>
      <trkpt lat="45.87797" lon="4.1881">
        <ele>522.057</ele>
        <time>2018-12-03T14:36:33Z</time>
      </trkpt>
      <trkpt lat="45.87796" lon="4.18799">
        <ele>521.797</ele>
        <time>2018-12-03T14:36:39Z</time>
      </trkpt>
      <trkpt lat="45.87795" lon="4.18789">
        <ele>522.007</ele>
        <time>2018-12-03T14:36:44Z</time>
      </trkpt>
      <trkpt lat="45.87794" lon="4.18781">
        <ele>521.822</ele>
        <time>2018-12-03T14:36:50Z</time>
      </trkpt>
      <trkpt lat="45.87792" lon="4.18775">
        <ele>521.441</ele>
        <time>2018-12-03T14:36:55Z</time>
      </trkpt>
      <trkpt lat="45.8779" lon="4.18765">
        <ele>520.947</ele>
        <time>2018-12-03T14:37:01Z</time>
      </trkpt>
      <trkpt lat="45.87788" lon="4.18754">
        <ele>520.451</ele>
        <time>2018-12-03T14:37:07Z</time>
      </trkpt>
      <trkpt lat="45.87787" lon="4.18745">
        <ele>520.233</ele>
        <time>2018-12-03T14:37:12Z</time>
      </trkpt>
      <trkpt lat="45.87783" lon="4.18734">
        <ele>519.968</ele>
        <time>2018-12-03T14:37:18Z</time>
      </trkpt>
      <trkpt lat="45.8778" lon="4.18725">
        <ele>519.426</ele>
        <time>2018-12-03T14:37:24Z</time>
      </trkpt>
      <trkpt lat="45.87778" lon="4.18718">
        <ele>519.073</ele>
        <time>2018-12-03T14:37:30Z</time>
      </trkpt>
      <trkpt lat="45.87773" lon="4.18707">
        <ele>518.825</ele>
        <time>2018-12-03T14:37:36Z</time>
      </trkpt>
      <trkpt lat="45.87768" lon="4.18701">
        <ele>518.233</ele>
        <time>2018-12-03T14:37:42Z</time>
      </trkpt>
      <trkpt lat="45.87762" lon="4.18698">
        <ele>517.934</ele>
        <time>2018-12-03T14:37:48Z</time>
      </trkpt>
      <trkpt lat="45.87758" lon="4.18701">
        <ele>517.731</ele>
        <time>2018-12-03T14:37:53Z</time>
      </trkpt>
      <trkpt lat="45.87752" lon="4.18702">
        <ele>517.231</ele>
        <time>2018-12-03T14:37:59Z</time>
      </trkpt>
      <trkpt lat="45.87746" lon="4.18704">
        <ele>516.793</ele>
        <time>2018-12-03T14:38:04Z</time>
      </trkpt>
      <trkpt lat="45.87741" lon="4.18703">
        <ele>516.361</ele>
        <time>2018-12-03T14:38:09Z</time>
      </trkpt>
      <trkpt lat="45.87735" lon="4.18705">
        <ele>515.656</ele>
        <time>2018-12-03T14:38:15Z</time>
      </trkpt>
      <trkpt lat="45.8773" lon="4.18707">
        <ele>515.107</ele>
        <time>2018-12-03T14:38:20Z</time>
      </trkpt>
      <trkpt lat="45.87725" lon="4.18709">
        <ele>514.168</ele>
        <time>2018-12-03T14:38:26Z</time>
      </trkpt>
      <trkpt lat="45.87718" lon="4.1871">
        <ele>513.332</ele>
        <time>2018-12-03T14:38:32Z</time>
      </trkpt>
      <trkpt lat="45.87713" lon="4.1871">
        <ele>512.28</ele>
        <time>2018-12-03T14:38:38Z</time>
      </trkpt>
      <trkpt lat="45.87704" lon="4.18711">
        <ele>511.372</ele>
        <time>2018-12-03T14:38:44Z</time>
      </trkpt>
      <trkpt lat="45.87698" lon="4.18712">
        <ele>510.687</ele>
        <time>2018-12-03T14:38:49Z</time>
      </trkpt>
      <trkpt lat="45.87691" lon="4.18713">
        <ele>509.689</ele>
        <time>2018-12-03T14:38:54Z</time>
      </trkpt>
      <trkpt lat="45.87684" lon="4.18715">
        <ele>508.75</ele>
        <time>2018-12-03T14:39:00Z</time>
      </trkpt>
      <trkpt lat="45.87678" lon="4.18717">
        <ele>508.354</ele>
        <time>2018-12-03T14:39:06Z</time>
      </trkpt>
      <trkpt lat="45.87673" lon="4.18716">
        <ele>507.74</ele>
        <time>2018-12-03T14:39:12Z</time>
      </trkpt>
      <trkpt lat="45.87669" lon="4.18718">
        <ele>507.125</ele>
        <time>2018-12-03T14:39:17Z</time>
      </trkpt>
      <trkpt lat="45.87664" lon="4.1872">
        <ele>506.549</ele>
        <time>2018-12-03T14:39:22Z</time>
      </trkpt>
      <trkpt lat="45.87659" lon="4.18723">
        <ele>505.881</ele>
        <time>2018-12-03T14:39:28Z</time>
      </trkpt>
      <trkpt lat="45.87653" lon="4.18722">
        <ele>505.238</ele>
        <time>2018-12-03T14:39:34Z</time>
      </trkpt>
      <trkpt lat="45.87646" lon="4.18719">
        <ele>504.612</ele>
        <time>2018-12-03T14:39:40Z</time>
      </trkpt>
      <trkpt lat="45.87641" lon="4.18712">
        <ele>504.166</ele>
        <time>2018-12-03T14:39:46Z</time>
      </trkpt>
      <trkpt lat="45.87635" lon="4.1871">
        <ele>503.591</ele>
        <time>2018-12-03T14:39:52Z</time>
      </trkpt>
      <trkpt lat="45.87629" lon="4.18707">
        <ele>502.739</ele>
        <time>2018-12-03T14:39:58Z</time>
      </trkpt>
      <trkpt lat="45.87624" lon="4.18704">
        <ele>502.036</ele>
        <time>2018-12-03T14:40:04Z</time>
      </trkpt>
      <trkpt lat="45.8762" lon="4.18702">
        <ele>501.655</ele>
        <time>2018-12-03T14:40:10Z</time>
      </trkpt>
      <trkpt lat="45.87614" lon="4.187">
        <ele>501.271</ele>
        <time>2018-12-03T14:40:16Z</time>
      </trkpt>
      <trkpt lat="45.87608" lon="4.18697">
        <ele>500.7</ele>
        <time>2018-12-03T14:40:22Z</time>
      </trkpt>
      <trkpt lat="45.87604" lon="4.18696">
        <ele>499.916</ele>
        <time>2018-12-03T14:40:27Z</time>
      </trkpt>
      <trkpt lat="45.87599" lon="4.18695">
        <ele>499.101</ele>
        <time>2018-12-03T14:40:33Z</time>
      </trkpt>
      <trkpt lat="45.87596" lon="4.18693">
        <ele>498.477</ele>
        <time>2018-12-03T14:40:38Z</time>
      </trkpt>
      <trkpt lat="45.8759" lon="4.1869">
        <ele>497.826</ele>
        <time>2018-12-03T14:40:44Z</time>
      </trkpt>
      <trkpt lat="45.87587" lon="4.18689">
        <ele>497.763</ele>
        <time>2018-12-03T14:40:49Z</time>
      </trkpt>
      <trkpt lat="45.87583" lon="4.18687">
        <ele>497.984</ele>
        <time>2018-12-03T14:40:55Z</time>
      </trkpt>
      <trkpt lat="45.87578" lon="4.18685">
        <ele>497.782</ele>
        <time>2018-12-03T14:41:01Z</time>
      </trkpt>
      <trkpt lat="45.87572" lon="4.18685">
        <ele>496.947</ele>
        <time>2018-12-03T14:41:07Z</time>
      </trkpt>
      <trkpt lat="45.87566" lon="4.18683">
        <ele>496.195</ele>
        <time>2018-12-03T14:41:13Z</time>
      </trkpt>
      <trkpt lat="45.87561" lon="4.18682">
        <ele>495.462</ele>
        <time>2018-12-03T14:41:18Z</time>
      </trkpt>
      <trkpt lat="45.87555" lon="4.1868">
        <ele>494.74</ele>
        <time>2018-12-03T14:41:23Z</time>
      </trkpt>
      <trkpt lat="45.87552" lon="4.18679">
        <ele>493.384</ele>
        <time>2018-12-03T14:41:29Z</time>
      </trkpt>
      <trkpt lat="45.87546" lon="4.18676">
        <ele>492.465</ele>
        <time>2018-12-03T14:41:34Z</time>
      </trkpt>
      <trkpt lat="45.87542" lon="4.18675">
        <ele>491.367</ele>
        <time>2018-12-03T14:41:40Z</time>
      </trkpt>
      <trkpt lat="45.87539" lon="4.18674">
        <ele>490.588</ele>
        <time>2018-12-03T14:41:45Z</time>
      </trkpt>
      <trkpt lat="45.87538" lon="4.18675">
        <ele>489.777</ele>
        <time>2018-12-03T14:41:50Z</time>
      </trkpt>
      <trkpt lat="45.87536" lon="4.18673">
        <ele>488.37</ele>
        <time>2018-12-03T14:41:56Z</time>
      </trkpt>
      <trkpt lat="45.87534" lon="4.18671">
        <ele>487.24</ele>
        <time>2018-12-03T14:42:02Z</time>
      </trkpt>
      <trkpt lat="45.87533" lon="4.18669">
        <ele>486.762</ele>
        <time>2018-12-03T14:42:08Z</time>
      </trkpt>
      <trkpt lat="45.87532" lon="4.18669">
        <ele>486.506</ele>
        <time>2018-12-03T14:42:14Z</time>
      </trkpt>
      <trkpt lat="45.87531" lon="4.18669">
        <ele>486.364</ele>
        <time>2018-12-03T14:42:19Z</time>
      </trkpt>
      <trkpt lat="45.8753" lon="4.18669">
        <ele>486.021</ele>
        <time>2018-12-03T14:42:25Z</time>
      </trkpt>
      <trkpt lat="45.87528" lon="4.18668">
        <ele>485.665</ele>
        <time>2018-12-03T14:42:30Z</time>
      </trkpt>
      <trkpt lat="45.87528" lon="4.1867">
        <ele>484.997</ele>
        <time>2018-12-03T14:42:35Z</time>
      </trkpt>
      <trkpt lat="45.87527" lon="4.18668">
        <ele>483.905</ele>
        <time>2018-12-03T14:42:41Z</time>
      </trkpt>
      <trkpt lat="45.87527" lon="4.18667">
        <ele>482.874</ele>
        <time>2018-12-03T14:42:46Z</time>
      </trkpt>
      <trkpt lat="45.87526" lon="4.18669">
        <ele>482.281</ele>
        <time>2018-12-03T14:42:51Z</time>
      </trkpt>
      <trkpt lat="45.87525" lon="4.18669">
        <ele>481.511</ele>
        <time>2018-12-03T14:42:57Z</time>
      </trkpt>
      <trkpt lat="45.87524" lon="4.18673">
        <ele>481.185</ele>
        <time>2018-12-03T14:43:03Z</time>
      </trkpt>
      <trkpt lat="45.87524" lon="4.18674">
        <ele>481.093</ele>
        <time>2018-12-03T14:43:08Z</time>
      </trkpt>
      <trkpt lat="45.87524" lon="4.18673">
        <ele>480.109</ele>
        <time>2018-12-03T14:43:15Z</time>
      </trkpt>
      <trkpt lat="45.87524" lon="4.18671">
        <ele>479.526</ele>
        <time>2018-12-03T14:43:21Z</time>
      </trkpt>
      <trkpt lat="45.87523" lon="4.18671">
        <ele>479.443</ele>
        <time>2018-12-03T14:43:26Z</time>
      </trkpt>
      <trkpt lat="45.87522" lon="4.18671">
        <ele>479.93</ele>
        <time>2018-12-03T14:43:31Z</time>
      </trkpt>
      <trkpt lat="45.8752" lon="4.1867">
        <ele>480.13</ele>
        <time>2018-12-03T14:43:37Z</time>
      </trkpt>
      <trkpt lat="45.87519" lon="4.18669">
        <ele>479.878</ele>
        <time>2018-12-03T14:43:43Z</time>
      </trkpt>
      <trkpt lat="45.87518" lon="4.18669">
        <ele>479.382</ele>
        <time>2018-12-03T14:43:49Z</time>
      </trkpt>
      <trkpt lat="45.87518" lon="4.18669">
        <ele>478.963</ele>
        <time>2018-12-03T14:43:54Z</time>
      </trkpt>
      <trkpt lat="45.87518" lon="4.18669">
        <ele>477.86</ele>
        <time>2018-12-03T14:44:00Z</time>
      </trkpt>
      <trkpt lat="45.87519" lon="4.18668">
        <ele>477.44</ele>
        <time>2018-12-03T14:44:05Z</time>
      </trkpt>
      <trkpt lat="45.87519" lon="4.18668">
        <ele>477.352</ele>
        <time>2018-12-03T14:44:11Z</time>
      </trkpt>
      <trkpt lat="45.87519" lon="4.18668">
        <ele>477.295</ele>
        <time>2018-12-03T14:44:16Z</time>
      </trkpt>
      <trkpt lat="45.87519" lon="4.18668">
        <ele>477.208</ele>
        <time>2018-12-03T14:44:22Z</time>
      </trkpt>
      <trkpt lat="45.87519" lon="4.18668">
        <ele>477.158</ele>
        <time>2018-12-03T14:44:28Z</time>
      </trkpt>
      <trkpt lat="45.87519" lon="4.18668">
        <ele>477.124</ele>
        <time>2018-12-03T14:44:33Z</time>
      </trkpt>
      <trkpt lat="45.87519" lon="4.18668">
        <ele>477.037</ele>
        <time>2018-12-03T14:44:39Z</time>
      </trkpt>
      <trkpt lat="45.87519" lon="4.18668">
        <ele>476.947</ele>
        <time>2018-12-03T14:44:44Z</time>
      </trkpt>
      <trkpt lat="45.87519" lon="4.18668">
        <ele>476.862</ele>
        <time>2018-12-03T14:44:50Z</time>
      </trkpt>
      <trkpt lat="45.87519" lon="4.18668">
        <ele>476.817</ele>
        <time>2018-12-03T14:44:55Z</time>
      </trkpt>
      <trkpt lat="45.87519" lon="4.18668">
        <ele>476.785</ele>
        <time>2018-12-03T14:45:01Z</time>
      </trkpt>
      <trkpt lat="45.87519" lon="4.18668">
        <ele>476.761</ele>
        <time>2018-12-03T14:45:07Z</time>
      </trkpt>
      <trkpt lat="45.87519" lon="4.18668">
        <ele>476.785</ele>
        <time>2018-12-03T14:45:13Z</time>
      </trkpt>
      <trkpt lat="45.87519" lon="4.18668">
        <ele>476.778</ele>
        <time>2018-12-03T14:45:19Z</time>
      </trkpt>
      <trkpt lat="45.87519" lon="4.18668">
        <ele>476.786</ele>
        <time>2018-12-03T14:45:24Z</time>
      </trkpt>
      <trkpt lat="45.87519" lon="4.18668">
        <ele>476.715</ele>
        <time>2018-12-03T14:45:30Z</time>
      </trkpt>
      <trkpt lat="45.87519" lon="4.18668">
        <ele>476.742</ele>
        <time>2018-12-03T14:45:35Z</time>
      </trkpt>
      <trkpt lat="45.87519" lon="4.18668">
        <ele>476.813</ele>
        <time>2018-12-03T14:45:41Z</time>
      </trkpt>
      <trkpt lat="45.87519" lon="4.18668">
        <ele>476.83</ele>
        <time>2018-12-03T14:45:46Z</time>
      </trkpt>
      <trkpt lat="45.87519" lon="4.18668">
        <ele>476.8</ele>
        <time>2018-12-03T14:45:51Z</time>
      </trkpt>
      <trkpt lat="45.87519" lon="4.18668">
        <ele>476.673</ele>
        <time>2018-12-03T14:45:57Z</time>
      </trkpt>
      <trkpt lat="45.87519" lon="4.18669">
        <ele>476.649</ele>
        <time>2018-12-03T14:46:03Z</time>
      </trkpt>
      <trkpt lat="45.87519" lon="4.18669">
        <ele>476.642</ele>
        <time>2018-12-03T14:46:08Z</time>
      </trkpt>
      <trkpt lat="45.8752" lon="4.1867">
        <ele>476.516</ele>
        <time>2018-12-03T14:46:13Z</time>
      </trkpt>
      <trkpt lat="45.8752" lon="4.1867">
        <ele>476.437</ele>
        <time>2018-12-03T14:46:19Z</time>
      </trkpt>
      <trkpt lat="45.8752" lon="4.18669">
        <ele>476.218</ele>
        <time>2018-12-03T14:46:24Z</time>
      </trkpt>
      <trkpt lat="45.8752" lon="4.18669">
        <ele>476.139</ele>
        <time>2018-12-03T14:46:30Z</time>
      </trkpt>
      <trkpt lat="45.8752" lon="4.18669">
        <ele>476.096</ele>
        <time>2018-12-03T14:46:36Z</time>
      </trkpt>
      <trkpt lat="45.8752" lon="4.18669">
        <ele>476.036</ele>
        <time>2018-12-03T14:46:42Z</time>
      </trkpt>
      <trkpt lat="45.8752" lon="4.18669">
        <ele>475.95</ele>
        <time>2018-12-03T14:46:47Z</time>
      </trkpt>
      <trkpt lat="45.8752" lon="4.18669">
        <ele>475.8</ele>
        <time>2018-12-03T14:46:53Z</time>
      </trkpt>
      <trkpt lat="45.8752" lon="4.18669">
        <ele>475.712</ele>
        <time>2018-12-03T14:46:58Z</time>
      </trkpt>
      <trkpt lat="45.8752" lon="4.18669">
        <ele>475.643</ele>
        <time>2018-12-03T14:47:04Z</time>
      </trkpt>
      <trkpt lat="45.8752" lon="4.18669">
        <ele>475.518</ele>
        <time>2018-12-03T14:47:10Z</time>
      </trkpt>
      <trkpt lat="45.8752" lon="4.1867">
        <ele>475.493</ele>
        <time>2018-12-03T14:47:16Z</time>
      </trkpt>
      <trkpt lat="45.8752" lon="4.18674">
        <ele>475.52</ele>
        <time>2018-12-03T14:47:21Z</time>
      </trkpt>
      <trkpt lat="45.8752" lon="4.18674">
        <ele>475.518</ele>
        <time>2018-12-03T14:47:27Z</time>
      </trkpt>
      <trkpt lat="45.8752" lon="4.18674">
        <ele>475.522</ele>
        <time>2018-12-03T14:47:33Z</time>
      </trkpt>
      <trkpt lat="45.8752" lon="4.18674">
        <ele>474.832</ele>
        <time>2018-12-03T14:47:39Z</time>
      </trkpt>
      <trkpt lat="45.87517" lon="4.18675">
        <ele>474.144</ele>
        <time>2018-12-03T14:47:45Z</time>
      </trkpt>
      <trkpt lat="45.87517" lon="4.18674">
        <ele>474.097</ele>
        <time>2018-12-03T14:47:50Z</time>
      </trkpt>
      <trkpt lat="45.87516" lon="4.18675">
        <ele>474.485</ele>
        <time>2018-12-03T14:47:56Z</time>
      </trkpt>
      <trkpt lat="45.87515" lon="4.18675">
        <ele>474.174</ele>
        <time>2018-12-03T14:48:02Z</time>
      </trkpt>
      <trkpt lat="45.87513" lon="4.18677">
        <ele>473.849</ele>
        <time>2018-12-03T14:48:08Z</time>
      </trkpt>
      <trkpt lat="45.87509" lon="4.18678">
        <ele>472.353</ele>
        <time>2018-12-03T14:48:14Z</time>
      </trkpt>
      <trkpt lat="45.87503" lon="4.18674">
        <ele>471.519</ele>
        <time>2018-12-03T14:48:19Z</time>
      </trkpt>
      <trkpt lat="45.875" lon="4.18669">
        <ele>471.042</ele>
        <time>2018-12-03T14:48:25Z</time>
      </trkpt>
      <trkpt lat="45.875" lon="4.18669">
        <ele>470.868</ele>
        <time>2018-12-03T14:48:30Z</time>
      </trkpt>
      <trkpt lat="45.875" lon="4.18669">
        <ele>470.791</ele>
        <time>2018-12-03T14:48:36Z</time>
      </trkpt>
      <trkpt lat="45.875" lon="4.18669">
        <ele>470.926</ele>
        <time>2018-12-03T14:48:42Z</time>
      </trkpt>
      <trkpt lat="45.875" lon="4.18669">
        <ele>471.148</ele>
        <time>2018-12-03T14:48:47Z</time>
      </trkpt>
      <trkpt lat="45.875" lon="4.18669">
        <ele>471.618</ele>
        <time>2018-12-03T14:48:53Z</time>
      </trkpt>
      <trkpt lat="45.875" lon="4.18669">
        <ele>472.261</ele>
        <time>2018-12-03T14:48:58Z</time>
      </trkpt>
      <trkpt lat="45.875" lon="4.18669">
        <ele>472.389</ele>
        <time>2018-12-03T14:49:04Z</time>
      </trkpt>
      <trkpt lat="45.875" lon="4.18669">
        <ele>472.505</ele>
        <time>2018-12-03T14:49:10Z</time>
      </trkpt>
      <trkpt lat="45.875" lon="4.18669">
        <ele>472.417</ele>
        <time>2018-12-03T14:49:15Z</time>
      </trkpt>
      <trkpt lat="45.875" lon="4.18669">
        <ele>472.511</ele>
        <time>2018-12-03T14:49:21Z</time>
      </trkpt>
      <trkpt lat="45.875" lon="4.18669">
        <ele>472.381</ele>
        <time>2018-12-03T14:49:27Z</time>
      </trkpt>
      <trkpt lat="45.875" lon="4.18669">
        <ele>472.234</ele>
        <time>2018-12-03T14:49:33Z</time>
      </trkpt>
      <trkpt lat="45.875" lon="4.18669">
        <ele>472.048</ele>
        <time>2018-12-03T14:49:39Z</time>
      </trkpt>
      <trkpt lat="45.875" lon="4.18669">
        <ele>471.967</ele>
        <time>2018-12-03T14:49:45Z</time>
      </trkpt>
      <trkpt lat="45.875" lon="4.18668">
        <ele>472.162</ele>
        <time>2018-12-03T14:49:50Z</time>
      </trkpt>
      <trkpt lat="45.875" lon="4.18668">
        <ele>472.084</ele>
        <time>2018-12-03T14:49:55Z</time>
      </trkpt>
      <trkpt lat="45.875" lon="4.18668">
        <ele>471.936</ele>
        <time>2018-12-03T14:50:01Z</time>
      </trkpt>
      <trkpt lat="45.875" lon="4.18668">
        <ele>471.749</ele>
        <time>2018-12-03T14:50:07Z</time>
      </trkpt>
      <trkpt lat="45.875" lon="4.18668">
        <ele>471.646</ele>
        <time>2018-12-03T14:50:13Z</time>
      </trkpt>
      <trkpt lat="45.875" lon="4.18668">
        <ele>471.597</ele>
        <time>2018-12-03T14:50:19Z</time>
      </trkpt>
      <trkpt lat="45.87499" lon="4.18668">
        <ele>471.41</ele>
        <time>2018-12-03T14:50:24Z</time>
      </trkpt>
      <trkpt lat="45.87499" lon="4.18668">
        <ele>471.095</ele>
        <time>2018-12-03T14:50:30Z</time>
      </trkpt>
      <trkpt lat="45.87498" lon="4.18667">
        <ele>470.967</ele>
        <time>2018-12-03T14:50:36Z</time>
      </trkpt>
      <trkpt lat="45.87498" lon="4.18666">
        <ele>471.346</ele>
        <time>2018-12-03T14:50:41Z</time>
      </trkpt>
      <trkpt lat="45.87496" lon="4.18665">
        <ele>472.139</ele>
        <time>2018-12-03T14:50:46Z</time>
      </trkpt>
      <trkpt lat="45.87496" lon="4.18665">
        <ele>472.36</ele>
        <time>2018-12-03T14:50:52Z</time>
      </trkpt>
      <trkpt lat="45.87494" lon="4.18661">
        <ele>472.443</ele>
        <time>2018-12-03T14:50:57Z</time>
      </trkpt>
      <trkpt lat="45.87492" lon="4.18654">
        <ele>471.67</ele>
        <time>2018-12-03T14:51:02Z</time>
      </trkpt>
      <trkpt lat="45.87491" lon="4.18645">
        <ele>470.951</ele>
        <time>2018-12-03T14:51:08Z</time>
      </trkpt>
      <trkpt lat="45.87488" lon="4.18639">
        <ele>470.892</ele>
        <time>2018-12-03T14:51:13Z</time>
      </trkpt>
      <trkpt lat="45.87485" lon="4.18631">
        <ele>470.528</ele>
        <time>2018-12-03T14:51:18Z</time>
      </trkpt>
      <trkpt lat="45.8748" lon="4.18622">
        <ele>470.733</ele>
        <time>2018-12-03T14:51:23Z</time>
      </trkpt>
      <trkpt lat="45.87479" lon="4.18614">
        <ele>471.542</ele>
        <time>2018-12-03T14:51:29Z</time>
      </trkpt>
      <trkpt lat="45.87478" lon="4.18609">
        <ele>471.861</ele>
        <time>2018-12-03T14:51:35Z</time>
      </trkpt>
      <trkpt lat="45.87477" lon="4.18603">
        <ele>471.356</ele>
        <time>2018-12-03T14:51:40Z</time>
      </trkpt>
      <trkpt lat="45.87474" lon="4.18593">
        <ele>470.493</ele>
        <time>2018-12-03T14:51:46Z</time>
      </trkpt>
      <trkpt lat="45.87474" lon="4.18588">
        <ele>470.283</ele>
        <time>2018-12-03T14:51:52Z</time>
      </trkpt>
      <trkpt lat="45.87469" lon="4.18583">
        <ele>469.665</ele>
        <time>2018-12-03T14:51:58Z</time>
      </trkpt>
      <trkpt lat="45.87467" lon="4.18578">
        <ele>469.502</ele>
        <time>2018-12-03T14:52:03Z</time>
      </trkpt>
      <trkpt lat="45.87465" lon="4.18572">
        <ele>468.236</ele>
        <time>2018-12-03T14:52:09Z</time>
      </trkpt>
      <trkpt lat="45.87465" lon="4.18566">
        <ele>467.54</ele>
        <time>2018-12-03T14:52:14Z</time>
      </trkpt>
      <trkpt lat="45.87463" lon="4.1856">
        <ele>466.775</ele>
        <time>2018-12-03T14:52:20Z</time>
      </trkpt>
      <trkpt lat="45.87459" lon="4.18554">
        <ele>465.458</ele>
        <time>2018-12-03T14:52:26Z</time>
      </trkpt>
      <trkpt lat="45.87454" lon="4.18548">
        <ele>465.572</ele>
        <time>2018-12-03T14:52:32Z</time>
      </trkpt>
      <trkpt lat="45.87452" lon="4.1854">
        <ele>466.633</ele>
        <time>2018-12-03T14:52:38Z</time>
      </trkpt>
      <trkpt lat="45.87449" lon="4.18532">
        <ele>466.989</ele>
        <time>2018-12-03T14:52:43Z</time>
      </trkpt>
      <trkpt lat="45.87448" lon="4.18529">
        <ele>467.291</ele>
        <time>2018-12-03T14:52:49Z</time>
      </trkpt>
      <trkpt lat="45.87448" lon="4.18523">
        <ele>467.32</ele>
        <time>2018-12-03T14:52:55Z</time>
      </trkpt>
      <trkpt lat="45.87446" lon="4.18519">
        <ele>466.673</ele>
        <time>2018-12-03T14:53:01Z</time>
      </trkpt>
      <trkpt lat="45.87444" lon="4.18513">
        <ele>466.226</ele>
        <time>2018-12-03T14:53:06Z</time>
      </trkpt>
      <trkpt lat="45.8744" lon="4.18507">
        <ele>465.752</ele>
        <time>2018-12-03T14:53:12Z</time>
      </trkpt>
      <trkpt lat="45.87436" lon="4.18503">
        <ele>465.301</ele>
        <time>2018-12-03T14:53:18Z</time>
      </trkpt>
      <trkpt lat="45.87433" lon="4.18502">
        <ele>464.568</ele>
        <time>2018-12-03T14:53:24Z</time>
      </trkpt>
      <trkpt lat="45.87428" lon="4.18502">
        <ele>464.198</ele>
        <time>2018-12-03T14:53:30Z</time>
      </trkpt>
      <trkpt lat="45.87426" lon="4.18505">
        <ele>462.974</ele>
        <time>2018-12-03T14:53:35Z</time>
      </trkpt>
      <trkpt lat="45.87421" lon="4.18506">
        <ele>462.396</ele>
        <time>2018-12-03T14:53:41Z</time>
      </trkpt>
      <trkpt lat="45.87416" lon="4.18506">
        <ele>462.135</ele>
        <time>2018-12-03T14:53:46Z</time>
      </trkpt>
      <trkpt lat="45.87411" lon="4.18505">
        <ele>462.249</ele>
        <time>2018-12-03T14:53:52Z</time>
      </trkpt>
      <trkpt lat="45.87407" lon="4.18501">
        <ele>462.376</ele>
        <time>2018-12-03T14:53:58Z</time>
      </trkpt>
      <trkpt lat="45.87404" lon="4.18495">
        <ele>462.307</ele>
        <time>2018-12-03T14:54:03Z</time>
      </trkpt>
      <trkpt lat="45.874" lon="4.18484">
        <ele>461.941</ele>
        <time>2018-12-03T14:54:09Z</time>
      </trkpt>
      <trkpt lat="45.87399" lon="4.18478">
        <ele>461.427</ele>
        <time>2018-12-03T14:54:14Z</time>
      </trkpt>
      <trkpt lat="45.874" lon="4.18468">
        <ele>460.666</ele>
        <time>2018-12-03T14:54:20Z</time>
      </trkpt>
      <trkpt lat="45.87399" lon="4.18464">
        <ele>459.828</ele>
        <time>2018-12-03T14:54:26Z</time>
      </trkpt>
      <trkpt lat="45.87398" lon="4.18455">
        <ele>459.403</ele>
        <time>2018-12-03T14:54:31Z</time>
      </trkpt>
      <trkpt lat="45.87399" lon="4.18448">
        <ele>459.279</ele>
        <time>2018-12-03T14:54:36Z</time>
      </trkpt>
      <trkpt lat="45.87399" lon="4.18438">
        <ele>458.962</ele>
        <time>2018-12-03T14:54:42Z</time>
      </trkpt>
      <trkpt lat="45.87399" lon="4.1843">
        <ele>458.723</ele>
        <time>2018-12-03T14:54:47Z</time>
      </trkpt>
      <trkpt lat="45.87399" lon="4.18423">
        <ele>458.069</ele>
        <time>2018-12-03T14:54:53Z</time>
      </trkpt>
      <trkpt lat="45.874" lon="4.18416">
        <ele>457.591</ele>
        <time>2018-12-03T14:54:59Z</time>
      </trkpt>
      <trkpt lat="45.87401" lon="4.18411">
        <ele>456.826</ele>
        <time>2018-12-03T14:55:04Z</time>
      </trkpt>
      <trkpt lat="45.87401" lon="4.18405">
        <ele>456.57</ele>
        <time>2018-12-03T14:55:10Z</time>
      </trkpt>
      <trkpt lat="45.87399" lon="4.184">
        <ele>456.338</ele>
        <time>2018-12-03T14:55:15Z</time>
      </trkpt>
      <trkpt lat="45.87395" lon="4.18391">
        <ele>455.856</ele>
        <time>2018-12-03T14:55:21Z</time>
      </trkpt>
      <trkpt lat="45.87392" lon="4.18384">
        <ele>454.875</ele>
        <time>2018-12-03T14:55:26Z</time>
      </trkpt>
      <trkpt lat="45.8739" lon="4.18377">
        <ele>454.367</ele>
        <time>2018-12-03T14:55:32Z</time>
      </trkpt>
      <trkpt lat="45.87385" lon="4.18369">
        <ele>454.29</ele>
        <time>2018-12-03T14:55:37Z</time>
      </trkpt>
      <trkpt lat="45.87383" lon="4.18364">
        <ele>454.483</ele>
        <time>2018-12-03T14:55:43Z</time>
      </trkpt>
      <trkpt lat="45.87381" lon="4.18357">
        <ele>454.873</ele>
        <time>2018-12-03T14:55:48Z</time>
      </trkpt>
      <trkpt lat="45.87378" lon="4.18352">
        <ele>455.606</ele>
        <time>2018-12-03T14:55:54Z</time>
      </trkpt>
      <trkpt lat="45.87377" lon="4.18348">
        <ele>455.985</ele>
        <time>2018-12-03T14:56:00Z</time>
      </trkpt>
      <trkpt lat="45.87379" lon="4.18348">
        <ele>455.677</ele>
        <time>2018-12-03T14:56:05Z</time>
      </trkpt>
      <trkpt lat="45.87379" lon="4.18349">
        <ele>455.201</ele>
        <time>2018-12-03T14:56:11Z</time>
      </trkpt>
      <trkpt lat="45.87379" lon="4.18349">
        <ele>454.906</ele>
        <time>2018-12-03T14:56:16Z</time>
      </trkpt>
      <trkpt lat="45.87378" lon="4.18349">
        <ele>454.364</ele>
        <time>2018-12-03T14:56:22Z</time>
      </trkpt>
      <trkpt lat="45.87375" lon="4.18351">
        <ele>453.786</ele>
        <time>2018-12-03T14:56:27Z</time>
      </trkpt>
      <trkpt lat="45.87372" lon="4.18358">
        <ele>453.514</ele>
        <time>2018-12-03T14:56:33Z</time>
      </trkpt>
      <trkpt lat="45.8737" lon="4.18365">
        <ele>453.981</ele>
        <time>2018-12-03T14:56:38Z</time>
      </trkpt>
      <trkpt lat="45.87369" lon="4.18369">
        <ele>454.648</ele>
        <time>2018-12-03T14:56:43Z</time>
      </trkpt>
      <trkpt lat="45.87366" lon="4.18371">
        <ele>455.003</ele>
        <time>2018-12-03T14:56:48Z</time>
      </trkpt>
      <trkpt lat="45.87363" lon="4.18378">
        <ele>455.502</ele>
        <time>2018-12-03T14:56:54Z</time>
      </trkpt>
      <trkpt lat="45.8736" lon="4.18383">
        <ele>456.777</ele>
        <time>2018-12-03T14:57:00Z</time>
      </trkpt>
      <trkpt lat="45.87359" lon="4.18386">
        <ele>458.35</ele>
        <time>2018-12-03T14:57:05Z</time>
      </trkpt>
      <trkpt lat="45.87358" lon="4.18394">
        <ele>459.405</ele>
        <time>2018-12-03T14:57:11Z</time>
      </trkpt>
      <trkpt lat="45.87358" lon="4.18401">
        <ele>460.292</ele>
        <time>2018-12-03T14:57:16Z</time>
      </trkpt>
      <trkpt lat="45.87357" lon="4.18409">
        <ele>461.202</ele>
        <time>2018-12-03T14:57:22Z</time>
      </trkpt>
      <trkpt lat="45.87357" lon="4.18414">
        <ele>462.019</ele>
        <time>2018-12-03T14:57:27Z</time>
      </trkpt>
      <trkpt lat="45.87356" lon="4.18413">
        <ele>462.431</ele>
        <time>2018-12-03T14:57:32Z</time>
      </trkpt>
      <trkpt lat="45.87356" lon="4.18413">
        <ele>462.496</ele>
        <time>2018-12-03T14:57:38Z</time>
      </trkpt>
      <trkpt lat="45.87356" lon="4.18413">
        <ele>462.534</ele>
        <time>2018-12-03T14:57:43Z</time>
      </trkpt>
      <trkpt lat="45.87356" lon="4.18414">
        <ele>462.805</ele>
        <time>2018-12-03T14:57:48Z</time>
      </trkpt>
      <trkpt lat="45.87356" lon="4.18417">
        <ele>463.095</ele>
        <time>2018-12-03T14:57:54Z</time>
      </trkpt>
      <trkpt lat="45.87354" lon="4.18422">
        <ele>464.035</ele>
        <time>2018-12-03T14:58:00Z</time>
      </trkpt>
      <trkpt lat="45.87352" lon="4.18425">
        <ele>464.671</ele>
        <time>2018-12-03T14:58:05Z</time>
      </trkpt>
      <trkpt lat="45.87348" lon="4.18428">
        <ele>465.616</ele>
        <time>2018-12-03T14:58:10Z</time>
      </trkpt>
      <trkpt lat="45.87345" lon="4.18433">
        <ele>466.41</ele>
        <time>2018-12-03T14:58:16Z</time>
      </trkpt>
      <trkpt lat="45.87341" lon="4.18437">
        <ele>466.566</ele>
        <time>2018-12-03T14:58:21Z</time>
      </trkpt>
      <trkpt lat="45.87336" lon="4.18438">
        <ele>467.436</ele>
        <time>2018-12-03T14:58:27Z</time>
      </trkpt>
      <trkpt lat="45.87333" lon="4.18437">
        <ele>467.992</ele>
        <time>2018-12-03T14:58:32Z</time>
      </trkpt>
      <trkpt lat="45.8733" lon="4.18439">
        <ele>467.138</ele>
        <time>2018-12-03T14:58:45Z</time>
      </trkpt>
      <trkpt lat="45.87323" lon="4.18438">
        <ele>466.57</ele>
        <time>2018-12-03T14:58:50Z</time>
      </trkpt>
      <trkpt lat="45.87316" lon="4.18444">
        <ele>466.916</ele>
        <time>2018-12-03T14:58:56Z</time>
      </trkpt>
      <trkpt lat="45.87313" lon="4.18442">
        <ele>467.763</ele>
        <time>2018-12-03T14:59:02Z</time>
      </trkpt>
      <trkpt lat="45.87307" lon="4.18441">
        <ele>468.647</ele>
        <time>2018-12-03T14:59:07Z</time>
      </trkpt>
      <trkpt lat="45.87302" lon="4.18439">
        <ele>469.592</ele>
        <time>2018-12-03T14:59:12Z</time>
      </trkpt>
      <trkpt lat="45.87298" lon="4.18437">
        <ele>471.492</ele>
        <time>2018-12-03T14:59:18Z</time>
      </trkpt>
      <trkpt lat="45.87295" lon="4.18434">
        <ele>472.978</ele>
        <time>2018-12-03T14:59:23Z</time>
      </trkpt>
      <trkpt lat="45.87292" lon="4.18433">
        <ele>474.22</ele>
        <time>2018-12-03T14:59:29Z</time>
      </trkpt>
      <trkpt lat="45.87287" lon="4.18433">
        <ele>474.871</ele>
        <time>2018-12-03T14:59:34Z</time>
      </trkpt>
      <trkpt lat="45.87284" lon="4.18435">
        <ele>475.79</ele>
        <time>2018-12-03T14:59:40Z</time>
      </trkpt>
      <trkpt lat="45.87282" lon="4.18436">
        <ele>476.659</ele>
        <time>2018-12-03T14:59:46Z</time>
      </trkpt>
      <trkpt lat="45.87283" lon="4.18436">
        <ele>477.084</ele>
        <time>2018-12-03T14:59:51Z</time>
      </trkpt>
      <trkpt lat="45.87283" lon="4.18438">
        <ele>477.496</ele>
        <time>2018-12-03T14:59:57Z</time>
      </trkpt>
      <trkpt lat="45.87283" lon="4.18439">
        <ele>478.234</ele>
        <time>2018-12-03T15:00:02Z</time>
      </trkpt>
      <trkpt lat="45.87283" lon="4.18441">
        <ele>478.198</ele>
        <time>2018-12-03T15:00:08Z</time>
      </trkpt>
      <trkpt lat="45.87283" lon="4.18447">
        <ele>478.035</ele>
        <time>2018-12-03T15:00:13Z</time>
      </trkpt>
      <trkpt lat="45.87285" lon="4.18454">
        <ele>478.487</ele>
        <time>2018-12-03T15:00:19Z</time>
      </trkpt>
      <trkpt lat="45.87289" lon="4.18462">
        <ele>478.789</ele>
        <time>2018-12-03T15:00:24Z</time>
      </trkpt>
      <trkpt lat="45.87291" lon="4.18468">
        <ele>479.284</ele>
        <time>2018-12-03T15:00:29Z</time>
      </trkpt>
      <trkpt lat="45.87293" lon="4.18474">
        <ele>480.195</ele>
        <time>2018-12-03T15:00:35Z</time>
      </trkpt>
      <trkpt lat="45.87295" lon="4.18477">
        <ele>480.4</ele>
        <time>2018-12-03T15:00:40Z</time>
      </trkpt>
      <trkpt lat="45.87298" lon="4.18483">
        <ele>480.386</ele>
        <time>2018-12-03T15:00:45Z</time>
      </trkpt>
      <trkpt lat="45.87301" lon="4.18489">
        <ele>480.166</ele>
        <time>2018-12-03T15:00:51Z</time>
      </trkpt>
      <trkpt lat="45.87302" lon="4.18494">
        <ele>480.643</ele>
        <time>2018-12-03T15:00:56Z</time>
      </trkpt>
      <trkpt lat="45.87304" lon="4.185">
        <ele>480.794</ele>
        <time>2018-12-03T15:01:02Z</time>
      </trkpt>
      <trkpt lat="45.87305" lon="4.18508">
        <ele>480.964</ele>
        <time>2018-12-03T15:01:08Z</time>
      </trkpt>
      <trkpt lat="45.87309" lon="4.18513">
        <ele>481.201</ele>
        <time>2018-12-03T15:01:13Z</time>
      </trkpt>
      <trkpt lat="45.8731" lon="4.18516">
        <ele>481.522</ele>
        <time>2018-12-03T15:01:19Z</time>
      </trkpt>
      <trkpt lat="45.87312" lon="4.18521">
        <ele>482.14</ele>
        <time>2018-12-03T15:01:25Z</time>
      </trkpt>
      <trkpt lat="45.87313" lon="4.18528">
        <ele>482.743</ele>
        <time>2018-12-03T15:01:30Z</time>
      </trkpt>
      <trkpt lat="45.87315" lon="4.18537">
        <ele>483.709</ele>
        <time>2018-12-03T15:01:36Z</time>
      </trkpt>
      <trkpt lat="45.87317" lon="4.18545">
        <ele>484.507</ele>
        <time>2018-12-03T15:01:42Z</time>
      </trkpt>
      <trkpt lat="45.87316" lon="4.18551">
        <ele>485.078</ele>
        <time>2018-12-03T15:01:48Z</time>
      </trkpt>
      <trkpt lat="45.87312" lon="4.18558">
        <ele>485.421</ele>
        <time>2018-12-03T15:01:54Z</time>
      </trkpt>
      <trkpt lat="45.87303" lon="4.18557">
        <ele>486.121</ele>
        <time>2018-12-03T15:02:00Z</time>
      </trkpt>
      <trkpt lat="45.87298" lon="4.18556">
        <ele>486.628</ele>
        <time>2018-12-03T15:02:05Z</time>
      </trkpt>
      <trkpt lat="45.87293" lon="4.18555">
        <ele>487.159</ele>
        <time>2018-12-03T15:02:11Z</time>
      </trkpt>
      <trkpt lat="45.8729" lon="4.18555">
        <ele>487.846</ele>
        <time>2018-12-03T15:02:16Z</time>
      </trkpt>
      <trkpt lat="45.87286" lon="4.18558">
        <ele>488.263</ele>
        <time>2018-12-03T15:02:22Z</time>
      </trkpt>
      <trkpt lat="45.87281" lon="4.1856">
        <ele>488.523</ele>
        <time>2018-12-03T15:02:27Z</time>
      </trkpt>
      <trkpt lat="45.87278" lon="4.18563">
        <ele>489.13</ele>
        <time>2018-12-03T15:02:32Z</time>
      </trkpt>
      <trkpt lat="45.87272" lon="4.18564">
        <ele>489.975</ele>
        <time>2018-12-03T15:02:37Z</time>
      </trkpt>
      <trkpt lat="45.87266" lon="4.18569">
        <ele>490.737</ele>
        <time>2018-12-03T15:02:43Z</time>
      </trkpt>
      <trkpt lat="45.87264" lon="4.18573">
        <ele>491.501</ele>
        <time>2018-12-03T15:02:49Z</time>
      </trkpt>
      <trkpt lat="45.8726" lon="4.18574">
        <ele>492.218</ele>
        <time>2018-12-03T15:02:54Z</time>
      </trkpt>
      <trkpt lat="45.87254" lon="4.18574">
        <ele>492.824</ele>
        <time>2018-12-03T15:02:59Z</time>
      </trkpt>
      <trkpt lat="45.8725" lon="4.18578">
        <ele>493.786</ele>
        <time>2018-12-03T15:03:04Z</time>
      </trkpt>
      <trkpt lat="45.87246" lon="4.18579">
        <ele>494.877</ele>
        <time>2018-12-03T15:03:10Z</time>
      </trkpt>
      <trkpt lat="45.87239" lon="4.1858">
        <ele>495.5</ele>
        <time>2018-12-03T15:03:15Z</time>
      </trkpt>
      <trkpt lat="45.87235" lon="4.1858">
        <ele>495.827</ele>
        <time>2018-12-03T15:03:20Z</time>
      </trkpt>
      <trkpt lat="45.87233" lon="4.18585">
        <ele>496.715</ele>
        <time>2018-12-03T15:03:26Z</time>
      </trkpt>
      <trkpt lat="45.87225" lon="4.1859">
        <ele>497.651</ele>
        <time>2018-12-03T15:03:32Z</time>
      </trkpt>
      <trkpt lat="45.87223" lon="4.18592">
        <ele>498.265</ele>
        <time>2018-12-03T15:03:37Z</time>
      </trkpt>
      <trkpt lat="45.87218" lon="4.18599">
        <ele>498.752</ele>
        <time>2018-12-03T15:03:43Z</time>
      </trkpt>
      <trkpt lat="45.87215" lon="4.18608">
        <ele>499.013</ele>
        <time>2018-12-03T15:03:48Z</time>
      </trkpt>
      <trkpt lat="45.87213" lon="4.18613">
        <ele>499.277</ele>
        <time>2018-12-03T15:03:53Z</time>
      </trkpt>
      <trkpt lat="45.87208" lon="4.18621">
        <ele>499.442</ele>
        <time>2018-12-03T15:03:59Z</time>
      </trkpt>
      <trkpt lat="45.87203" lon="4.18627">
        <ele>498.794</ele>
        <time>2018-12-03T15:04:05Z</time>
      </trkpt>
      <trkpt lat="45.87198" lon="4.18635">
        <ele>499.093</ele>
        <time>2018-12-03T15:04:11Z</time>
      </trkpt>
      <trkpt lat="45.87196" lon="4.18639">
        <ele>499.582</ele>
        <time>2018-12-03T15:04:16Z</time>
      </trkpt>
      <trkpt lat="45.87194" lon="4.18645">
        <ele>500.091</ele>
        <time>2018-12-03T15:04:22Z</time>
      </trkpt>
      <trkpt lat="45.87191" lon="4.18652">
        <ele>500.125</ele>
        <time>2018-12-03T15:04:27Z</time>
      </trkpt>
      <trkpt lat="45.87187" lon="4.18659">
        <ele>499.738</ele>
        <time>2018-12-03T15:04:33Z</time>
      </trkpt>
      <trkpt lat="45.87182" lon="4.18664">
        <ele>499.258</ele>
        <time>2018-12-03T15:04:38Z</time>
      </trkpt>
      <trkpt lat="45.87179" lon="4.18674">
        <ele>499.017</ele>
        <time>2018-12-03T15:04:44Z</time>
      </trkpt>
      <trkpt lat="45.87177" lon="4.18681">
        <ele>498.491</ele>
        <time>2018-12-03T15:04:49Z</time>
      </trkpt>
      <trkpt lat="45.87174" lon="4.18689">
        <ele>498.189</ele>
        <time>2018-12-03T15:04:55Z</time>
      </trkpt>
      <trkpt lat="45.87173" lon="4.18696">
        <ele>498.55</ele>
        <time>2018-12-03T15:05:01Z</time>
      </trkpt>
      <trkpt lat="45.87176" lon="4.18708">
        <ele>499.07</ele>
        <time>2018-12-03T15:05:07Z</time>
      </trkpt>
      <trkpt lat="45.87179" lon="4.18715">
        <ele>499.435</ele>
        <time>2018-12-03T15:05:13Z</time>
      </trkpt>
      <trkpt lat="45.8718" lon="4.1872">
        <ele>500.026</ele>
        <time>2018-12-03T15:05:18Z</time>
      </trkpt>
      <trkpt lat="45.87183" lon="4.18729">
        <ele>501.017</ele>
        <time>2018-12-03T15:05:24Z</time>
      </trkpt>
      <trkpt lat="45.87185" lon="4.18734">
        <ele>501.853</ele>
        <time>2018-12-03T15:05:29Z</time>
      </trkpt>
      <trkpt lat="45.87187" lon="4.18742">
        <ele>502.452</ele>
        <time>2018-12-03T15:05:35Z</time>
      </trkpt>
      <trkpt lat="45.87188" lon="4.18748">
        <ele>503.043</ele>
        <time>2018-12-03T15:05:40Z</time>
      </trkpt>
      <trkpt lat="45.87191" lon="4.18754">
        <ele>503.713</ele>
        <time>2018-12-03T15:05:46Z</time>
      </trkpt>
      <trkpt lat="45.87194" lon="4.18763">
        <ele>504.548</ele>
        <time>2018-12-03T15:05:51Z</time>
      </trkpt>
      <trkpt lat="45.87196" lon="4.1877">
        <ele>505.474</ele>
        <time>2018-12-03T15:05:57Z</time>
      </trkpt>
      <trkpt lat="45.87196" lon="4.1878">
        <ele>506.168</ele>
        <time>2018-12-03T15:06:03Z</time>
      </trkpt>
      <trkpt lat="45.87196" lon="4.18789">
        <ele>506.588</ele>
        <time>2018-12-03T15:06:09Z</time>
      </trkpt>
      <trkpt lat="45.87194" lon="4.1879">
        <ele>507.399</ele>
        <time>2018-12-03T15:06:15Z</time>
      </trkpt>
      <trkpt lat="45.87191" lon="4.1879">
        <ele>507.726</ele>
        <time>2018-12-03T15:06:20Z</time>
      </trkpt>
      <trkpt lat="45.87191" lon="4.18791">
        <ele>508.101</ele>
        <time>2018-12-03T15:06:26Z</time>
      </trkpt>
      <trkpt lat="45.87192" lon="4.18792">
        <ele>508.265</ele>
        <time>2018-12-03T15:06:31Z</time>
      </trkpt>
      <trkpt lat="45.87193" lon="4.18794">
        <ele>508.544</ele>
        <time>2018-12-03T15:06:36Z</time>
      </trkpt>
      <trkpt lat="45.87192" lon="4.18794">
        <ele>508.976</ele>
        <time>2018-12-03T15:06:42Z</time>
      </trkpt>
      <trkpt lat="45.87191" lon="4.18791">
        <ele>509.212</ele>
        <time>2018-12-03T15:06:48Z</time>
      </trkpt>
      <trkpt lat="45.87191" lon="4.18791">
        <ele>509.509</ele>
        <time>2018-12-03T15:06:53Z</time>
      </trkpt>
      <trkpt lat="45.87192" lon="4.18793">
        <ele>509.773</ele>
        <time>2018-12-03T15:06:58Z</time>
      </trkpt>
      <trkpt lat="45.87191" lon="4.18797">
        <ele>509.996</ele>
        <time>2018-12-03T15:07:04Z</time>
      </trkpt>
      <trkpt lat="45.8719" lon="4.18803">
        <ele>510.103</ele>
        <time>2018-12-03T15:07:10Z</time>
      </trkpt>
      <trkpt lat="45.87188" lon="4.18806">
        <ele>510.06</ele>
        <time>2018-12-03T15:07:15Z</time>
      </trkpt>
      <trkpt lat="45.87187" lon="4.18812">
        <ele>509.396</ele>
        <time>2018-12-03T15:07:21Z</time>
      </trkpt>
      <trkpt lat="45.87186" lon="4.18821">
        <ele>508.869</ele>
        <time>2018-12-03T15:07:27Z</time>
      </trkpt>
      <trkpt lat="45.87185" lon="4.1883">
        <ele>509.329</ele>
        <time>2018-12-03T15:07:33Z</time>
      </trkpt>
      <trkpt lat="45.87184" lon="4.18833">
        <ele>509.616</ele>
        <time>2018-12-03T15:07:38Z</time>
      </trkpt>
      <trkpt lat="45.87182" lon="4.18836">
        <ele>509.738</ele>
        <time>2018-12-03T15:07:43Z</time>
      </trkpt>
      <trkpt lat="45.87181" lon="4.18843">
        <ele>509.407</ele>
        <time>2018-12-03T15:07:49Z</time>
      </trkpt>
      <trkpt lat="45.87181" lon="4.18849">
        <ele>509.266</ele>
        <time>2018-12-03T15:07:55Z</time>
      </trkpt>
      <trkpt lat="45.87182" lon="4.18858">
        <ele>509.396</ele>
        <time>2018-12-03T15:08:01Z</time>
      </trkpt>
      <trkpt lat="45.87181" lon="4.18864">
        <ele>509.693</ele>
        <time>2018-12-03T15:08:06Z</time>
      </trkpt>
      <trkpt lat="45.8718" lon="4.18867">
        <ele>509.887</ele>
        <time>2018-12-03T15:08:11Z</time>
      </trkpt>
      <trkpt lat="45.87179" lon="4.18871">
        <ele>510.084</ele>
        <time>2018-12-03T15:08:16Z</time>
      </trkpt>
      <trkpt lat="45.87177" lon="4.18878">
        <ele>510.221</ele>
        <time>2018-12-03T15:08:22Z</time>
      </trkpt>
      <trkpt lat="45.87177" lon="4.18887">
        <ele>510.022</ele>
        <time>2018-12-03T15:08:28Z</time>
      </trkpt>
      <trkpt lat="45.87178" lon="4.18892">
        <ele>510.113</ele>
        <time>2018-12-03T15:08:34Z</time>
      </trkpt>
      <trkpt lat="45.87178" lon="4.18899">
        <ele>510.794</ele>
        <time>2018-12-03T15:08:40Z</time>
      </trkpt>
      <trkpt lat="45.87178" lon="4.18904">
        <ele>511.588</ele>
        <time>2018-12-03T15:08:46Z</time>
      </trkpt>
      <trkpt lat="45.87178" lon="4.1891">
        <ele>511.995</ele>
        <time>2018-12-03T15:08:51Z</time>
      </trkpt>
      <trkpt lat="45.87177" lon="4.18919">
        <ele>512.194</ele>
        <time>2018-12-03T15:08:57Z</time>
      </trkpt>
      <trkpt lat="45.87177" lon="4.18923">
        <ele>512.293</ele>
        <time>2018-12-03T15:09:02Z</time>
      </trkpt>
      <trkpt lat="45.87177" lon="4.18928">
        <ele>513.372</ele>
        <time>2018-12-03T15:09:08Z</time>
      </trkpt>
      <trkpt lat="45.87178" lon="4.18935">
        <ele>514.073</ele>
        <time>2018-12-03T15:09:13Z</time>
      </trkpt>
      <trkpt lat="45.87178" lon="4.18942">
        <ele>514.672</ele>
        <time>2018-12-03T15:09:19Z</time>
      </trkpt>
      <trkpt lat="45.87179" lon="4.18947">
        <ele>515.534</ele>
        <time>2018-12-03T15:09:24Z</time>
      </trkpt>
      <trkpt lat="45.87179" lon="4.18955">
        <ele>515.864</ele>
        <time>2018-12-03T15:09:29Z</time>
      </trkpt>
      <trkpt lat="45.87179" lon="4.18963">
        <ele>515.94</ele>
        <time>2018-12-03T15:09:35Z</time>
      </trkpt>
      <trkpt lat="45.87179" lon="4.1897">
        <ele>515.977</ele>
        <time>2018-12-03T15:09:40Z</time>
      </trkpt>
      <trkpt lat="45.87178" lon="4.18978">
        <ele>516.247</ele>
        <time>2018-12-03T15:09:46Z</time>
      </trkpt>
      <trkpt lat="45.87177" lon="4.18987">
        <ele>516.418</ele>
        <time>2018-12-03T15:09:52Z</time>
      </trkpt>
      <trkpt lat="45.87176" lon="4.18994">
        <ele>516.809</ele>
        <time>2018-12-03T15:09:58Z</time>
      </trkpt>
      <trkpt lat="45.87174" lon="4.18999">
        <ele>516.97</ele>
        <time>2018-12-03T15:10:03Z</time>
      </trkpt>
      <trkpt lat="45.87173" lon="4.19005">
        <ele>517.283</ele>
        <time>2018-12-03T15:10:08Z</time>
      </trkpt>
      <trkpt lat="45.87173" lon="4.19013">
        <ele>517.859</ele>
        <time>2018-12-03T15:10:14Z</time>
      </trkpt>
      <trkpt lat="45.8717" lon="4.19016">
        <ele>518.392</ele>
        <time>2018-12-03T15:10:19Z</time>
      </trkpt>
      <trkpt lat="45.87168" lon="4.19023">
        <ele>518.626</ele>
        <time>2018-12-03T15:10:25Z</time>
      </trkpt>
      <trkpt lat="45.87165" lon="4.19029">
        <ele>519.237</ele>
        <time>2018-12-03T15:10:30Z</time>
      </trkpt>
      <trkpt lat="45.87161" lon="4.19033">
        <ele>520.03</ele>
        <time>2018-12-03T15:10:36Z</time>
      </trkpt>
      <trkpt lat="45.87158" lon="4.19041">
        <ele>520.804</ele>
        <time>2018-12-03T15:10:42Z</time>
      </trkpt>
      <trkpt lat="45.87156" lon="4.19046">
        <ele>521.448</ele>
        <time>2018-12-03T15:10:47Z</time>
      </trkpt>
      <trkpt lat="45.8715" lon="4.19052">
        <ele>521.748</ele>
        <time>2018-12-03T15:10:53Z</time>
      </trkpt>
      <trkpt lat="45.87147" lon="4.19056">
        <ele>522.082</ele>
        <time>2018-12-03T15:10:58Z</time>
      </trkpt>
      <trkpt lat="45.87142" lon="4.1906">
        <ele>522.869</ele>
        <time>2018-12-03T15:11:04Z</time>
      </trkpt>
      <trkpt lat="45.87139" lon="4.19064">
        <ele>523.312</ele>
        <time>2018-12-03T15:11:09Z</time>
      </trkpt>
      <trkpt lat="45.87134" lon="4.19068">
        <ele>523.882</ele>
        <time>2018-12-03T15:11:15Z</time>
      </trkpt>
      <trkpt lat="45.87131" lon="4.19071">
        <ele>524.625</ele>
        <time>2018-12-03T15:11:20Z</time>
      </trkpt>
      <trkpt lat="45.87127" lon="4.19075">
        <ele>525.287</ele>
        <time>2018-12-03T15:11:25Z</time>
      </trkpt>
      <trkpt lat="45.87124" lon="4.19078">
        <ele>525.732</ele>
        <time>2018-12-03T15:11:31Z</time>
      </trkpt>
      <trkpt lat="45.87119" lon="4.1908">
        <ele>525.863</ele>
        <time>2018-12-03T15:11:37Z</time>
      </trkpt>
      <trkpt lat="45.87112" lon="4.19082">
        <ele>526.167</ele>
        <time>2018-12-03T15:11:43Z</time>
      </trkpt>
      <trkpt lat="45.87108" lon="4.19083">
        <ele>526.311</ele>
        <time>2018-12-03T15:11:48Z</time>
      </trkpt>
      <trkpt lat="45.87101" lon="4.19082">
        <ele>526.61</ele>
        <time>2018-12-03T15:11:54Z</time>
      </trkpt>
      <trkpt lat="45.87095" lon="4.19083">
        <ele>526.806</ele>
        <time>2018-12-03T15:12:00Z</time>
      </trkpt>
      <trkpt lat="45.8709" lon="4.19086">
        <ele>526.864</ele>
        <time>2018-12-03T15:12:05Z</time>
      </trkpt>
      <trkpt lat="45.87084" lon="4.19089">
        <ele>527.616</ele>
        <time>2018-12-03T15:12:11Z</time>
      </trkpt>
      <trkpt lat="45.8708" lon="4.1909">
        <ele>528.298</ele>
        <time>2018-12-03T15:12:17Z</time>
      </trkpt>
      <trkpt lat="45.87077" lon="4.19091">
        <ele>528.512</ele>
        <time>2018-12-03T15:12:22Z</time>
      </trkpt>
      <trkpt lat="45.87072" lon="4.19093">
        <ele>528.803</ele>
        <time>2018-12-03T15:12:27Z</time>
      </trkpt>
      <trkpt lat="45.87065" lon="4.19096">
        <ele>528.808</ele>
        <time>2018-12-03T15:12:33Z</time>
      </trkpt>
      <trkpt lat="45.8706" lon="4.19097">
        <ele>528.878</ele>
        <time>2018-12-03T15:12:38Z</time>
      </trkpt>
      <trkpt lat="45.87055" lon="4.19099">
        <ele>529.037</ele>
        <time>2018-12-03T15:12:44Z</time>
      </trkpt>
      <trkpt lat="45.87051" lon="4.191">
        <ele>529.158</ele>
        <time>2018-12-03T15:12:49Z</time>
      </trkpt>
      <trkpt lat="45.87045" lon="4.19102">
        <ele>529.472</ele>
        <time>2018-12-03T15:12:54Z</time>
      </trkpt>
      <trkpt lat="45.87039" lon="4.19099">
        <ele>529.49</ele>
        <time>2018-12-03T15:13:00Z</time>
      </trkpt>
      <trkpt lat="45.87033" lon="4.19099">
        <ele>529.436</ele>
        <time>2018-12-03T15:13:05Z</time>
      </trkpt>
      <trkpt lat="45.87026" lon="4.191">
        <ele>529.533</ele>
        <time>2018-12-03T15:13:11Z</time>
      </trkpt>
      <trkpt lat="45.87021" lon="4.19102">
        <ele>529.516</ele>
        <time>2018-12-03T15:13:16Z</time>
      </trkpt>
      <trkpt lat="45.87015" lon="4.19105">
        <ele>529.187</ele>
        <time>2018-12-03T15:13:22Z</time>
      </trkpt>
      <trkpt lat="45.87009" lon="4.19105">
        <ele>529.132</ele>
        <time>2018-12-03T15:13:27Z</time>
      </trkpt>
      <trkpt lat="45.87002" lon="4.19107">
        <ele>529.178</ele>
        <time>2018-12-03T15:13:33Z</time>
      </trkpt>
      <trkpt lat="45.86997" lon="4.19108">
        <ele>529.387</ele>
        <time>2018-12-03T15:13:38Z</time>
      </trkpt>
      <trkpt lat="45.86989" lon="4.19109">
        <ele>529.485</ele>
        <time>2018-12-03T15:13:44Z</time>
      </trkpt>
      <trkpt lat="45.86984" lon="4.19112">
        <ele>529.578</ele>
        <time>2018-12-03T15:13:49Z</time>
      </trkpt>
      <trkpt lat="45.86977" lon="4.19114">
        <ele>528.948</ele>
        <time>2018-12-03T15:13:55Z</time>
      </trkpt>
      <trkpt lat="45.86972" lon="4.19113">
        <ele>528.361</ele>
        <time>2018-12-03T15:14:01Z</time>
      </trkpt>
      <trkpt lat="45.86969" lon="4.1911">
        <ele>528.747</ele>
        <time>2018-12-03T15:14:06Z</time>
      </trkpt>
      <trkpt lat="45.86964" lon="4.19109">
        <ele>529.093</ele>
        <time>2018-12-03T15:14:12Z</time>
      </trkpt>
      <trkpt lat="45.86959" lon="4.19108">
        <ele>529.876</ele>
        <time>2018-12-03T15:14:17Z</time>
      </trkpt>
      <trkpt lat="45.86954" lon="4.19108">
        <ele>530.025</ele>
        <time>2018-12-03T15:14:23Z</time>
      </trkpt>
      <trkpt lat="45.86949" lon="4.19108">
        <ele>529.982</ele>
        <time>2018-12-03T15:14:28Z</time>
      </trkpt>
      <trkpt lat="45.86945" lon="4.1911">
        <ele>530.134</ele>
        <time>2018-12-03T15:14:34Z</time>
      </trkpt>
      <trkpt lat="45.86939" lon="4.19108">
        <ele>530.16</ele>
        <time>2018-12-03T15:14:39Z</time>
      </trkpt>
      <trkpt lat="45.86932" lon="4.19107">
        <ele>530.234</ele>
        <time>2018-12-03T15:14:45Z</time>
      </trkpt>
      <trkpt lat="45.86929" lon="4.19106">
        <ele>530.013</ele>
        <time>2018-12-03T15:14:50Z</time>
      </trkpt>
      <trkpt lat="45.86925" lon="4.19108">
        <ele>529.858</ele>
        <time>2018-12-03T15:14:56Z</time>
      </trkpt>
      <trkpt lat="45.8692" lon="4.19108">
        <ele>529.988</ele>
        <time>2018-12-03T15:15:01Z</time>
      </trkpt>
      <trkpt lat="45.86914" lon="4.1911">
        <ele>529.717</ele>
        <time>2018-12-03T15:15:07Z</time>
      </trkpt>
      <trkpt lat="45.86908" lon="4.19114">
        <ele>529.535</ele>
        <time>2018-12-03T15:15:13Z</time>
      </trkpt>
      <trkpt lat="45.86903" lon="4.19116">
        <ele>529.611</ele>
        <time>2018-12-03T15:15:19Z</time>
      </trkpt>
      <trkpt lat="45.86901" lon="4.19122">
        <ele>529.829</ele>
        <time>2018-12-03T15:15:24Z</time>
      </trkpt>
      <trkpt lat="45.86899" lon="4.19133">
        <ele>529.753</ele>
        <time>2018-12-03T15:15:30Z</time>
      </trkpt>
      <trkpt lat="45.86896" lon="4.19139">
        <ele>529.346</ele>
        <time>2018-12-03T15:15:36Z</time>
      </trkpt>
      <trkpt lat="45.86894" lon="4.1914">
        <ele>529.184</ele>
        <time>2018-12-03T15:15:42Z</time>
      </trkpt>
      <trkpt lat="45.86894" lon="4.19145">
        <ele>529.186</ele>
        <time>2018-12-03T15:15:47Z</time>
      </trkpt>
      <trkpt lat="45.86893" lon="4.19149">
        <ele>529.079</ele>
        <time>2018-12-03T15:15:52Z</time>
      </trkpt>
      <trkpt lat="45.8689" lon="4.19161">
        <ele>529.083</ele>
        <time>2018-12-03T15:15:58Z</time>
      </trkpt>
      <trkpt lat="45.86889" lon="4.19167">
        <ele>529.52</ele>
        <time>2018-12-03T15:16:04Z</time>
      </trkpt>
      <trkpt lat="45.86888" lon="4.19172">
        <ele>530.03</ele>
        <time>2018-12-03T15:16:09Z</time>
      </trkpt>
      <trkpt lat="45.8689" lon="4.19182">
        <ele>530.303</ele>
        <time>2018-12-03T15:16:15Z</time>
      </trkpt>
      <trkpt lat="45.8689" lon="4.19188">
        <ele>530.254</ele>
        <time>2018-12-03T15:16:20Z</time>
      </trkpt>
      <trkpt lat="45.86891" lon="4.19191">
        <ele>530.238</ele>
        <time>2018-12-03T15:16:25Z</time>
      </trkpt>
      <trkpt lat="45.86892" lon="4.19198">
        <ele>530.813</ele>
        <time>2018-12-03T15:16:31Z</time>
      </trkpt>
      <trkpt lat="45.86893" lon="4.19203">
        <ele>531.119</ele>
        <time>2018-12-03T15:16:36Z</time>
      </trkpt>
      <trkpt lat="45.86894" lon="4.19207">
        <ele>531.72</ele>
        <time>2018-12-03T15:16:42Z</time>
      </trkpt>
      <trkpt lat="45.86894" lon="4.19208">
        <ele>531.586</ele>
        <time>2018-12-03T15:16:47Z</time>
      </trkpt>
      <trkpt lat="45.86894" lon="4.19208">
        <ele>531.583</ele>
        <time>2018-12-03T15:16:52Z</time>
      </trkpt>
      <trkpt lat="45.86894" lon="4.19208">
        <ele>531.649</ele>
        <time>2018-12-03T15:16:58Z</time>
      </trkpt>
      <trkpt lat="45.86894" lon="4.19208">
        <ele>531.881</ele>
        <time>2018-12-03T15:17:04Z</time>
      </trkpt>
      <trkpt lat="45.86894" lon="4.19208">
        <ele>532.026</ele>
        <time>2018-12-03T15:17:11Z</time>
      </trkpt>
      <trkpt lat="45.86894" lon="4.19207">
        <ele>532.216</ele>
        <time>2018-12-03T15:17:17Z</time>
      </trkpt>
      <trkpt lat="45.86894" lon="4.19207">
        <ele>532.317</ele>
        <time>2018-12-03T15:17:22Z</time>
      </trkpt>
      <trkpt lat="45.86894" lon="4.19207">
        <ele>532.37</ele>
        <time>2018-12-03T15:17:28Z</time>
      </trkpt>
    </trkseg>
  </trk>
</gpx>